[[{"header":{"parameterUnit":"m.s-1","parameterCategory":1,"la1":30.6,"la2":28.766,"lo1":-90.7593,"lo2":-88.6598,"dy":0.0162,"dx":0.0183,"nx":116,"ny":114,"refTime":"2023-09-29T18:00:00:Z","depth":0,"parameterNumber":2,"parameterNumberName":"U-component_of_WINDS"},"data":[0.0,0.0,0.0,0.0,0.0,0.0,0.0,0.0,0.0,0.0,0.0,0.0,0.0,0.0,0.0,0.0,0.0,0.0,0.0,0.0,0.0,0.0,0.0,0.0,0.0,0.0,0.0,0.0,0.0,0.0,0.0,0.0,0.0,0.0,0.0,0.0,0.0,0.0,0.0,0.0,0.0,0.0,0.0,0.0,0.0,0.0,0.0,0.0,0.0,0.0,0.0,0.0,0.0,0.0,0.0,0.0,0.0,0.0,0.0,0.0,0.0,0.0,0.0,0.0,0.0,0.0,0.0,0.0,0.0,0.0,0.0,0.0,0.0,0.0,0.0,0.0,0.0,0.0,0.0,0.0,0.0,0.0,0.0,0.0,0.0,0.0,0.0,0.0,0.0,0.0,0.0,0.0,0.0,0.0,0.0,0.0,0.0,0.0,0.0,0.0,0.0,0.0,0.0,0.0,0.0,0.0,0.0,0.0,0.0,0.0,0.0,0.0,0.0,0.0,0.0,0.0,0.0,0.0,0.0,0.0,0.0,0.0,0.0,0.0,0.0,0.0,0.0,0.0,0.0,0.0,0.0,0.0,0.0,0.0,0.0,0.0,0.0,0.0,0.0,0.0,0.0,0.0,0.0,0.0,0.0,0.0,0.0,0.0,0.0,0.0,0.0,0.0,0.0,0.0,0.0,0.0,0.0,0.0,0.0,0.0,0.0,0.0,0.0,0.0,0.0,0.0,0.0,0.0,0.0,0.0,0.0,0.0,0.0,0.0,0.0,0.0,0.0,0.0,0.0,0.0,0.0,0.0,0.0,0.0,0.0,0.0,0.0,0.0,0.0,0.0,0.0,0.0,0.0,0.0,0.0,0.0,0.0,0.0,0.0,0.0,0.0,0.0,0.0,0.0,0.0,0.0,0.0,0.0,0.0,0.0,0.0,0.0,0.0,0.0,0.0,0.0,0.0,0.0,0.0,0.0,0.0,0.0,0.0,0.0,0.0,0.0,0.0,0.0,0.0,0.0,0.0,0.0,0.0,0.0,0.0,0.0,0.0,0.0,0.0,0.0,0.0,0.0,0.0,0.0,0.0,0.0,0.0,0.0,0.0,0.0,0.0,0.0,0.0,0.0,0.0,0.0,0.0,0.0,0.0,0.0,0.0,0.0,0.0,0.0,0.0,0.0,0.0,0.0,0.0,0.0,0.0,0.0,0.0,0.0,0.0,0.0,0.0,0.0,0.0,0.0,0.0,0.0,0.0,0.0,0.0,0.0,0.0,0.0,0.0,0.0,0.0,0.0,0.0,0.0,0.0,0.0,0.0,0.0,0.0,0.0,0.0,0.0,0.0,0.0,0.0,0.0,0.0,0.0,0.0,0.0,0.0,0.0,0.0,0.0,0.0,0.0,0.0,0.0,0.0,0.0,0.0,0.0,0.0,0.0,0.0,0.0,0.0,0.0,0.0,0.0,0.0,0.0,0.0,0.0,0.0,0.0,0.0,0.0,0.0,0.0,0.0,0.0,0.0,0.0,0.0,0.0,0.0,0.0,0.0,0.0,0.0,0.0,0.0,0.0,0.0,0.0,0.0,0.0,0.0,0.0,0.0,0.0,0.0,0.0,0.0,0.0,0.0,0.0,0.0,0.0,0.0,0.0,0.0,0.0,0.0,0.0,0.0,0.0,0.0,0.0,0.0,0.0,0.0,0.0,0.0,0.0,0.0,0.0,0.0,0.0,0.0,0.0,0.0,0.0,0.0,0.0,0.0,0.0,0.0,0.0,0.0,0.0,0.0,0.0,0.0,0.0,0.0,0.0,0.0,0.0,0.0,0.0,0.0,0.0,0.0,0.0,0.0,0.0,0.0,0.0,0.0,0.0,0.0,0.0,0.0,0.0,0.0,0.0,0.0,0.0,0.0,0.0,0.0,0.0,0.0,0.0,0.0,0.0,0.0,0.0,0.0,0.0,0.0,0.0,0.0,0.0,0.0,0.0,0.0,0.0,0.0,0.0,0.0,0.0,0.0,0.0,0.0,0.0,0.0,0.0,0.0,0.0,0.0,0.0,0.0,0.0,0.0,0.0,0.0,0.0,0.0,0.0,0.0,0.0,0.0,0.0,0.0,0.0,0.0,0.0,0.0,0.0,0.0,0.0,0.0,0.0,0.0,0.0,0.0,0.0,0.0,0.0,0.0,0.0,0.0,0.0,0.0,0.0,0.0,0.0,0.0,0.0,0.0,0.0,0.0,0.0,0.0,0.0,0.0,0.0,0.0,0.0,0.0,0.0,0.0,0.0,0.0,0.0,0.0,0.0,0.0,0.0,0.0,0.0,0.0,0.0,0.0,0.0,0.0,0.0,0.0,0.0,0.0,0.0,0.0,0.0,0.0,0.0,0.0,0.0,0.0,0.0,0.0,0.0,0.0,0.0,0.0,0.0,0.0,0.0,0.0,0.0,0.0,0.0,0.0,0.0,0.0,0.0,0.0,0.0,0.0,0.0,0.0,0.0,0.0,0.0,0.0,0.0,0.0,0.0,0.0,0.0,0.0,0.0,0.0,0.0,0.0,0.0,0.0,0.0,0.0,0.0,0.0,0.0,0.0,0.0,0.0,0.0,0.0,0.0,0.0,0.0,0.0,0.0,0.0,0.0,0.0,0.0,0.0,0.0,0.0,0.0,0.0,0.0,0.0,0.0,0.0,0.0,0.0,0.0,0.0,0.0,0.0,0.0,0.0,0.0,0.0,0.0,0.0,0.0,0.0,0.0,0.0,0.0,0.0,0.0,0.0,0.0,0.0,0.0,0.0,0.0,0.0,0.0,0.0,0.0,0.0,0.0,0.0,0.0,0.0,0.0,0.0,0.0,0.0,0.0,0.0,0.0,0.0,0.0,0.0,0.0,0.0,0.0,0.0,0.0,0.0,0.0,0.0,0.0,0.0,0.0,0.0,0.0,0.0,0.0,0.0,0.0,0.0,0.0,0.0,0.0,0.0,0.0,0.0,0.0,0.0,0.0,0.0,0.0,0.0,0.0,0.0,0.0,0.0,0.0,0.0,0.0,0.0,0.0,0.0,0.0,0.0,0.0,0.0,0.0,0.0,0.0,0.0,0.0,0.0,0.0,0.0,0.0,0.0,0.0,0.0,0.0,0.0,0.0,0.0,0.0,0.0,0.0,0.0,0.0,0.0,0.0,0.0,0.0,0.0,0.0,0.0,0.0,0.0,0.0,0.0,0.0,0.0,0.0,0.0,0.0,0.0,0.0,0.0,0.0,0.0,0.0,0.0,0.0,0.0,0.0,0.0,0.0,0.0,0.0,0.0,0.0,0.0,0.0,0.0,0.0,0.0,0.0,0.0,0.0,0.0,0.0,0.0,0.0,0.0,0.0,0.0,0.0,0.0,0.0,0.0,0.0,0.0,0.0,0.0,0.0,0.0,0.0,0.0,0.0,0.0,0.0,0.0,0.0,0.0,0.0,0.0,0.0,0.0,0.0,0.0,0.0,0.0,0.0,0.0,0.0,0.0,0.0,0.0,0.0,0.0,0.0,0.0,0.0,0.0,0.0,0.0,0.0,0.0,0.0,0.0,0.0,0.0,0.0,0.0,0.0,0.0,0.0,0.0,0.0,0.0,0.0,0.0,0.0,0.0,0.0,0.0,0.0,0.0,0.0,0.0,0.0,0.0,0.0,0.0,0.0,0.0,0.0,0.0,0.0,0.0,0.0,0.0,0.0,0.0,0.0,0.0,0.0,0.0,0.0,0.0,0.0,0.0,0.0,0.0,0.0,0.0,0.0,0.0,0.0,0.0,0.0,0.0,0.0,0.0,0.0,0.0,0.0,0.0,0.0,0.0,0.0,0.0,0.0,0.0,0.0,0.0,0.0,0.0,0.0,0.0,0.0,0.0,0.0,0.0,0.0,0.0,0.0,0.0,0.0,0.0,0.0,0.0,0.0,0.0,0.0,0.0,0.0,0.0,0.0,0.0,0.0,0.0,0.0,0.0,0.0,0.0,0.0,0.0,0.0,0.0,0.0,0.0,0.0,0.0,0.0,0.0,0.0,0.0,0.0,0.0,0.0,0.0,0.0,0.0,0.0,0.0,0.0,0.0,0.0,0.0,0.0,0.0,0.0,0.0,0.0,0.0,0.0,0.0,0.0,0.0,0.0,0.0,0.0,0.0,0.0,0.0,0.0,0.0,0.0,0.0,0.0,0.0,0.0,0.0,0.0,0.0,0.0,0.0,0.0,0.0,0.0,0.0,0.0,0.0,0.0,0.0,0.0,0.0,0.0,0.0,0.0,0.0,0.0,0.0,0.0,0.0,0.0,0.0,0.0,0.0,0.0,0.0,0.0,0.0,0.0,0.0,0.0,0.0,0.0,0.0,0.0,0.0,0.0,0.0,0.0,0.0,0.0,0.0,0.0,0.0,0.0,0.0,0.0,0.0,0.0,0.0,0.0,0.0,0.0,0.0,0.0,0.0,0.0,0.0,0.0,0.0,0.0,0.0,0.0,0.0,0.0,0.0,0.0,0.0,0.0,0.0,0.0,0.0,0.0,0.0,0.0,0.0,0.0,0.0,0.0,0.0,0.0,0.0,0.0,0.0,0.0,0.0,0.0,0.0,0.0,0.0,0.0,0.0,0.0,0.0,0.0,0.0,0.0,0.0,0.0,0.0,0.0,0.0,0.0,0.0,0.0,0.0,0.0,0.0,0.0,0.0,0.0,0.0,0.0,0.0,0.0,0.0,0.0,0.0,0.0,0.0,0.0,0.0,0.0,0.0,0.0,0.0,0.0,0.0,0.0,0.0,0.0,0.0,0.0,0.0,0.0,0.0,0.0,0.0,0.0,0.0,0.0,0.0,0.0,0.0,0.0,0.0,0.0,0.0,0.0,0.0,0.0,0.0,0.0,0.0,0.0,0.0,0.0,0.0,0.0,0.0,0.0,0.0,0.0,0.0,0.0,0.0,0.0,0.0,0.0,0.0,0.0,0.0,0.0,0.0,0.0,0.0,0.0,0.0,0.0,0.0,0.0,0.0,0.0,0.0,0.0,0.0,0.0,0.0,0.0,0.0,0.0,0.0,0.0,0.0,0.0,0.0,0.0,0.0,0.0,0.0,0.0,0.0,0.0,0.0,0.0,0.0,0.0,0.0,0.0,0.0,0.0,0.0,0.0,0.0,0.0,0.0,0.0,0.0,0.0,0.0,0.0,0.0,0.0,0.0,0.0,0.0,0.0,0.0,0.0,0.0,0.0,0.0,0.0,0.0,0.0,0.0,0.0,0.0,0.0,0.0,0.0,0.0,0.0,0.0,0.0,0.0,0.0,0.0,0.0,0.0,0.0,0.0,0.0,0.0,0.0,0.0,0.0,0.0,0.0,0.0,0.0,0.0,0.0,0.0,0.0,0.0,0.0,0.0,0.0,0.0,0.0,0.0,0.0,0.0,0.0,0.0,0.0,0.0,0.0,0.0,0.0,0.0,0.0,0.0,0.0,0.0,0.0,0.0,0.0,0.0,0.0,0.0,0.0,0.0,0.0,0.0,0.0,0.0,0.0,0.0,0.0,0.0,0.0,0.0,0.0,0.0,0.0,0.0,0.0,0.0,0.0,0.0,0.0,0.0,0.0,0.0,0.0,0.0,0.0,0.0,0.0,0.0,0.0,0.0,0.0,0.0,0.0,0.0,0.0,0.0,0.0,0.0,0.0,0.0,0.0,0.0,0.0,0.0,0.0,0.0,0.0,0.0,0.0,0.0,0.0,0.0,0.0,0.0,0.0,0.0,0.0,0.0,0.0,0.0,0.0,0.0,0.0,0.0,0.0,0.0,0.0,0.0,0.0,0.0,0.0,0.0,0.0,0.0,0.0,0.0,0.0,0.0,0.0,0.0,0.0,0.0,0.0,0.0,0.0,0.0,0.0,0.0,0.0,0.0,0.0,0.0,0.0,0.0,0.0,0.0,0.0,0.0,0.0,0.0,0.0,0.0,0.0,0.0,0.0,0.0,0.0,0.0,0.0,0.0,0.0,0.0,0.0,0.0,0.0,0.0,0.0,0.0,0.0,0.0,0.0,0.0,0.0,0.0,0.0,0.0,0.0,0.0,0.0,0.0,0.0,0.0,0.0,-1.1333,-1.0324,0.0,0.0,0.0,0.0,0.0,0.0,0.0,0.0,0.0,0.0,0.0,0.0,0.0,0.0,0.0,0.0,0.0,0.0,0.0,0.0,0.0,0.0,0.0,0.0,0.0,0.0,0.0,0.0,0.0,0.0,0.0,0.0,0.0,0.0,0.0,0.0,0.0,-1.1648,-1.1839,-1.2081,-1.2353,-1.1688,-1.0872,-0.9895,0.0,0.0,0.0,0.0,0.0,0.0,0.0,0.0,0.0,0.0,0.0,0.0,0.0,0.0,0.0,0.0,0.0,0.0,0.0,0.0,0.0,0.0,0.0,0.0,0.0,0.0,0.0,0.0,0.0,0.0,0.0,0.0,0.0,0.0,0.0,0.0,0.0,0.0,0.0,0.0,0.0,0.0,0.0,0.0,0.0,0.0,0.0,0.0,0.0,0.0,0.0,0.0,0.0,0.0,0.0,0.0,0.0,0.0,0.0,0.0,0.0,0.0,0.0,0.0,0.0,0.0,0.0,0.0,0.0,0.0,-1.3254,-1.2192,0.0,0.0,0.0,0.0,0.0,0.0,0.0,0.0,0.0,0.0,0.0,0.0,0.0,0.0,0.0,0.0,0.0,0.0,0.0,0.0,0.0,0.0,0.0,-1.2948,-1.3199,-1.3199,-1.3022,-1.2872,-1.272,0.0,0.0,0.0,0.0,0.0,-1.2571,-1.2524,-1.245,-1.231,-1.2629,-1.3149,-1.3783,-1.3253,-1.2394,-1.13,-1.0939,0.0,0.0,0.0,0.0,0.0,0.0,0.0,0.0,0.0,0.0,0.0,0.0,0.0,0.0,0.0,0.0,0.0,0.0,0.0,0.0,0.0,0.0,0.0,0.0,0.0,0.0,0.0,0.0,0.0,0.0,0.0,0.0,0.0,0.0,0.0,0.0,0.0,0.0,0.0,0.0,0.0,0.0,0.0,0.0,0.0,0.0,0.0,0.0,0.0,0.0,0.0,0.0,0.0,0.0,0.0,0.0,0.0,0.0,0.0,0.0,0.0,0.0,0.0,-1.779,-1.779,-1.779,-1.7666,-1.7497,-1.7194,-1.5461,-1.4397,-1.3882,-1.3466,0.0,0.0,0.0,0.0,0.0,0.0,0.0,0.0,0.0,0.0,0.0,0.0,0.0,0.0,0.0,0.0,0.0,0.0,0.0,-1.2615,-1.3205,-1.322,-1.3199,-1.3199,-1.3063,-1.2913,-1.272,0.0,0.0,0.0,0.0,0.0,-1.4439,-1.4763,-1.4878,-1.4743,-1.4507,-1.4455,-1.4546,-1.4291,-1.4058,-1.3749,-1.2107,-1.1345,-1.1249,0.0,0.0,0.0,0.0,0.0,0.0,0.0,0.0,0.0,0.0,0.0,0.0,0.0,0.0,0.0,0.0,0.0,0.0,0.0,0.0,0.0,0.0,0.0,0.0,0.0,0.0,0.0,0.0,0.0,0.0,0.0,0.0,0.0,0.0,0.0,0.0,0.0,0.0,0.0,0.0,0.0,-1.403,-1.4292,0.0,0.0,0.0,0.0,0.0,0.0,0.0,0.0,0.0,0.0,0.0,0.0,0.0,-1.932,-1.9389,-1.9389,-1.9389,-1.9389,-1.9389,-1.9389,-1.9389,-1.9254,-1.9095,-1.8885,-1.8489,0.0,-1.5484,-1.5314,0.0,0.0,0.0,0.0,0.0,0.0,0.0,0.0,0.0,0.0,0.0,0.0,0.0,0.0,0.0,0.0,0.0,0.0,0.0,0.0,0.0,-1.407,-1.4355,-1.468,-1.4588,-1.4576,-1.478,-1.4777,0.0,0.0,0.0,-1.5212,-1.5362,-1.5512,-1.5737,-1.6099,-1.6253,-1.6421,-1.6557,-1.6384,-1.6252,-1.6114,-1.4869,-1.3729,-1.2703,-1.209,0.0,0.0,0.0,0.0,0.0,0.0,0.0,0.0,0.0,0.0,0.0,0.0,0.0,0.0,0.0,0.0,0.0,0.0,0.0,0.0,0.0,0.0,0.0,0.0,0.0,0.0,0.0,0.0,0.0,0.0,0.0,0.0,0.0,0.0,0.0,0.0,0.0,0.0,0.0,-1.4555,-1.561,-1.6052,-1.6568,-1.7159,0.0,0.0,0.0,0.0,0.0,0.0,0.0,0.0,0.0,-2.1424,-2.154,-2.1744,-2.1997,-2.1883,-2.1831,-2.1819,-2.1768,-2.1716,-2.1716,-2.1652,-2.1525,-2.1342,-2.1289,-2.0488,-1.9199,-1.791,-1.7066,-1.6545,0.0,0.0,0.0,0.0,-1.4542,-1.4278,0.0,0.0,0.0,0.0,0.0,0.0,0.0,0.0,0.0,0.0,0.0,0.0,-1.4443,-1.4929,-1.5423,-1.5853,-1.5924,-1.6086,-1.6383,-1.6393,-1.6317,-1.6118,-1.6324,-1.6364,-1.6243,-1.6401,-1.6758,-1.7264,-1.7645,-1.7882,-1.8037,-1.7918,-1.7774,-1.7629,-1.705,-1.5837,-1.4243,-1.3604,-1.2985,-1.2358,0.0,0.0,0.0,0.0,0.0,0.0,0.0,0.0,0.0,0.0,0.0,0.0,0.0,0.0,0.0,0.0,0.0,0.0,0.0,0.0,0.0,0.0,0.0,0.0,0.0,0.0,0.0,0.0,0.0,0.0,0.0,0.0,0.0,0.0,0.0,0.0,0.0,-1.6217,-1.7082,-1.7767,-1.8058,-1.8581,0.0,0.0,0.0,0.0,0.0,0.0,-2.173,-2.192,-2.2354,-2.3168,-2.3333,-2.364,-2.4117,-2.3962,-2.398,-2.4157,-2.4034,-2.4,-2.3966,-2.3802,-2.3629,-2.3482,-2.3273,-2.2903,-2.2238,-2.038,-1.9199,-1.8545,-1.8308,-1.7897,-1.7345,-1.6775,-1.6508,-1.6371,0.0,0.0,0.0,0.0,0.0,0.0,0.0,0.0,0.0,0.0,0.0,-1.4529,-1.5092,-1.5633,-1.5937,-1.5896,-1.6363,-1.6578,-1.6411,-1.6393,-1.6317,-1.6118,-1.7073,-1.7544,-1.7436,-1.8227,-1.8613,-1.8516,-1.8399,-1.8308,-1.818,-1.8037,-1.7918,-1.7786,-1.7617,-1.6809,-1.5552,-1.4824,-1.4129,-1.3478,-1.2855,0.0,0.0,0.0,0.0,0.0,0.0,0.0,0.0,0.0,0.0,0.0,0.0,0.0,0.0,0.0,0.0,0.0,0.0,0.0,0.0,0.0,0.0,0.0,0.0,0.0,0.0,0.0,0.0,0.0,0.0,0.0,0.0,0.0,0.0,0.0,0.0,0.0,0.0,-1.9222,-1.974,0.0,0.0,0.0,0.0,-2.3035,-2.3266,-2.3575,-2.4108,-2.4145,-2.4169,-2.4218,-2.4218,-2.4497,-2.5034,-2.5013,-2.5317,-2.5881,-2.5881,-2.5847,-2.5834,-2.5135,-2.4801,-2.4764,-2.4041,-2.3625,-2.3333,-2.2294,-2.1247,-2.035,-2.0022,-1.9565,-1.9037,-1.8761,-1.8641,-1.8641,0.0,0.0,0.0,0.0,0.0,0.0,0.0,0.0,-1.3163,-1.3822,-1.44,-1.4987,-1.5581,-1.5789,-1.6177,-1.6927,-1.7173,-1.7357,-1.7559,-1.7926,-1.8034,-1.7848,-1.8573,-1.8884,-1.8662,-1.9541,-1.9963,-1.9817,-2.0374,-2.0589,-2.0445,-2.0234,-2.0113,-2.0033,-1.978,-1.9012,-1.7871,-1.6753,-1.5657,-1.4686,-1.4469,-1.3767,0.0,0.0,0.0,0.0,0.0,0.0,0.0,0.0,0.0,0.0,0.0,0.0,0.0,0.0,0.0,0.0,0.0,0.0,0.0,0.0,0.0,0.0,0.0,0.0,0.0,0.0,0.0,0.0,0.0,0.0,0.0,0.0,0.0,0.0,0.0,0.0,0.0,-2.1081,-2.1356,0.0,-2.3077,-2.3238,-2.3582,-2.4402,-2.4505,-2.4945,-2.5869,-2.5975,-2.6206,-2.6553,-2.6683,-2.6854,-2.7028,-2.6909,-2.6937,-2.7148,-2.7027,-2.6991,-2.6978,-2.6709,-2.6575,-2.6563,-2.6307,-2.615,-2.6067,-2.5695,-2.4253,-2.2274,-2.2034,-2.1809,-2.1592,-2.1035,-2.0858,-2.0767,0.0,0.0,0.0,0.0,0.0,0.0,0.0,-1.2796,-1.344,-1.4084,-1.4857,-1.5481,-1.5853,-1.6233,-1.6747,-1.752,-1.7983,-1.8294,-1.8499,-1.9073,-1.9319,-1.9097,-1.9759,-2.0157,-2.018,-2.0891,-2.1211,-2.1056,-2.1634,-2.1829,-2.169,-2.1465,-2.1338,-2.1281,-2.0986,-2.0442,-1.9685,-1.8744,-1.7429,-1.5939,-1.5846,-1.5128,-1.4098,0.0,0.0,0.0,0.0,0.0,0.0,0.0,0.0,0.0,0.0,0.0,0.0,0.0,0.0,0.0,0.0,0.0,0.0,0.0,0.0,0.0,0.0,0.0,0.0,0.0,0.0,0.0,0.0,0.0,0.0,0.0,0.0,0.0,0.0,-2.048,-2.1476,-2.2759,-2.2912,-2.3433,-2.4818,-2.4929,-2.5292,-2.6136,-2.622,-2.6579,-2.7412,-2.7509,-2.7744,-2.8072,-2.8243,-2.838,-2.857,-2.8447,-2.8498,-2.8686,-2.855,-2.8475,-2.8475,-2.825,-2.8163,-2.8151,-2.7964,-2.7889,-2.7815,-2.7742,-2.6588,-2.4795,-2.416,-2.369,-2.3313,-2.2794,-2.262,-2.2526,0.0,0.0,0.0,0.0,0.0,0.0,-1.2129,-1.2784,-1.3413,-1.4041,-1.5211,-1.598,-1.5924,-1.6987,-1.7668,-1.7632,-1.8722,-1.9307,-1.91,-1.968,-1.9957,-1.9804,-2.0569,-2.1314,-2.1925,-2.2247,-2.2373,-2.2263,-2.2071,-2.1946,-2.1805,-2.1678,-2.1537,-2.1409,-2.1186,-2.099,-2.0847,-2.0704,-1.9338,-1.7288,-1.6981,-1.6254,-1.5335,0.0,0.0,0.0,0.0,0.0,0.0,0.0,0.0,0.0,0.0,0.0,0.0,0.0,0.0,0.0,0.0,0.0,0.0,0.0,0.0,0.0,0.0,0.0,0.0,0.0,0.0,0.0,0.0,0.0,0.0,0.0,0.0,0.0,-2.2211,-2.2395,-2.2988,-2.4226,-2.4349,-2.4867,-2.6136,-2.6283,-2.6872,-2.8324,-2.845,-2.8547,-2.8767,-2.8792,-2.8805,-2.8805,-2.8805,-2.9061,-2.9562,-2.9575,-2.9881,-3.0458,-3.0458,-3.0458,-3.0432,-2.9856,-2.9562,-2.9511,-2.901,-2.8682,-2.8462,-2.8257,-2.8074,-2.7815,-2.6317,-2.5113,-2.4164,-2.3975,-2.3872,-2.3848,0.0,0.0,0.0,0.0,0.0,0.0,-1.2678,-1.2977,-1.3459,-1.4536,-1.531,-1.5954,-1.6433,-1.7162,-1.7791,-1.8222,-1.8881,-1.9204,-1.91,-1.9993,-2.084,-2.1545,-2.1624,-2.1926,-2.2538,-2.2825,-2.3169,-2.3584,-2.3829,-2.4052,-2.431,-2.4157,-2.4015,-2.3798,-2.3232,-2.2683,-2.2151,-2.1581,-2.0668,-1.9578,-1.8641,-1.7488,-1.6334,0.0,0.0,0.0,0.0,0.0,0.0,0.0,0.0,0.0,0.0,0.0,0.0,0.0,0.0,0.0,0.0,0.0,0.0,0.0,0.0,0.0,0.0,0.0,0.0,0.0,0.0,0.0,0.0,0.0,0.0,0.0,-2.2146,-2.2543,-2.2543,-2.3291,-2.4284,-2.5524,-2.5682,-2.6255,-2.7662,-2.7811,-2.8174,-2.913,-2.9589,-3.0036,-3.0496,-3.0932,-3.1163,-3.1163,-3.1163,-3.1227,-3.1381,-3.1394,-3.1458,-3.1612,-3.1612,-3.1612,-3.1612,-3.1458,-3.1163,-3.074,-3.0586,-3.0241,-2.9857,-2.9781,-2.9477,-2.8933,-2.7532,-2.6808,-2.6514,-2.6075,-2.5404,-2.4731,0.0,0.0,0.0,0.0,0.0,0.0,-1.2812,-1.2981,-1.3417,-1.4686,-1.5583,-1.6269,-1.6666,-1.7413,-1.8033,-1.8383,-1.91,-1.9494,-1.9388,-2.0635,-2.1659,-2.2278,-2.2548,-2.2818,-2.3177,-2.3679,-2.4125,-2.4478,-2.4875,-2.5143,-2.5294,-2.5148,-2.5,-2.4775,-2.429,-2.3684,-2.2997,-2.2494,-2.1741,-2.0858,-2.0176,-1.8985,-1.7582,-1.7016,-1.6465,-1.5846,-1.5059,-1.4542,-1.413,-1.3337,0.0,0.0,0.0,0.0,0.0,0.0,0.0,0.0,0.0,0.0,0.0,0.0,0.0,0.0,0.0,0.0,0.0,0.0,0.0,0.0,0.0,0.0,0.0,0.0,-2.3503,-2.4191,-2.4288,-2.4769,-2.5595,-2.6957,-2.713,-2.7664,-2.9082,-2.9234,-2.964,-3.065,-3.1048,-3.1422,-3.1823,-3.2146,-3.2367,-3.2367,-3.2367,-3.2367,-3.2367,-3.2367,-3.2367,-3.2367,-3.2367,-3.2367,-3.2367,-3.2367,-3.2146,-3.1836,-3.1836,-3.1513,-3.0983,-3.0907,-3.0495,-2.9905,0.0,0.0,0.0,0.0,-2.7147,-2.6609,0.0,0.0,0.0,0.0,0.0,0.0,-1.2579,-1.283,-1.3319,-1.4525,-1.5775,-1.6589,-1.6659,-1.7576,-1.8216,-1.8285,-1.9322,-1.9979,-1.997,-2.1431,-2.2307,-2.2388,-2.3219,-2.3723,-2.3762,-2.459,-2.5031,-2.5097,-2.553,-2.5639,-2.5499,-2.5371,-2.519,-2.4976,-2.4783,-2.4298,-2.3607,-2.3342,-2.2577,-2.1518,-2.1428,-2.0392,-1.8834,-1.8156,-1.7598,-1.7033,-1.5916,-1.545,-1.5252,-1.4192,0.0,0.0,0.0,0.0,0.0,0.0,0.0,0.0,0.0,0.0,0.0,0.0,0.0,0.0,0.0,0.0,0.0,0.0,0.0,0.0,0.0,0.0,0.0,0.0,-2.4892,-2.6352,-2.6663,-2.6609,-2.6997,-2.8314,-2.8564,-2.9132,-3.0394,-3.0599,-3.1126,-3.2342,-3.2498,-3.2604,-3.279,-3.2855,0.0,0.0,0.0,-3.2934,-3.2934,-3.2961,-3.2961,-3.2961,-3.2961,-3.2961,-3.2961,-3.2961,-3.2935,-3.2869,-3.283,-3.2503,-3.194,-3.1721,-3.1319,-3.0737,-2.9931,-2.9279,-2.8779,-2.8779,-2.8741,-2.869,0.0,0.0,0.0,0.0,0.0,0.0,-1.1903,-1.2429,-1.3011,-1.3817,-1.4971,-1.5913,-1.6391,-1.7079,-1.7702,-1.8187,-1.9209,-2.0188,-2.104,-2.1844,-2.2485,-2.2855,-2.3392,-2.3841,-2.4178,-2.4728,-2.5227,-2.5667,-2.6198,-2.6557,-2.6691,-2.6657,-2.6456,-2.616,-2.5661,-2.5028,-2.4355,-2.3705,-2.2952,-2.2177,-2.1632,-2.0608,-1.9369,-1.8819,-1.8206,-1.7586,-1.6961,-1.6479,-1.5998,-1.5342,-1.4849,-1.4406,-1.4041,-1.3912,0.0,0.0,0.0,0.0,0.0,0.0,0.0,0.0,0.0,0.0,0.0,0.0,0.0,0.0,0.0,0.0,0.0,0.0,0.0,-2.4693,-2.5774,-2.6801,-2.7896,-2.8366,-2.8733,-2.9022,-2.9604,-3.0342,-3.119,-3.1733,-3.2187,-3.2593,-3.3103,-3.3377,-3.3417,-3.3835,-3.4071,-3.4071,-3.429,-3.4385,-3.4385,-3.4536,-3.4658,-3.4658,-3.4658,0.0,-3.4658,-3.4658,-3.4365,-3.3914,-3.3727,-3.3344,-3.2751,-3.2555,-3.2111,-3.1512,-3.0585,-2.9869,-2.9332,-2.9332,-2.9074,-2.869,0.0,0.0,0.0,0.0,0.0,0.0,-1.1647,-1.2251,-1.2899,-1.362,-1.4743,-1.5723,-1.6324,-1.6895,-1.7435,-1.804,-1.9117,-2.022,-2.1318,-2.2189,-2.276,-2.299,-2.3643,-2.4087,-2.4292,-2.5026,-2.5537,-2.5793,-2.6622,-2.6997,-2.699,-2.6909,-2.6726,-2.6487,-2.6185,-2.5519,-2.4561,-2.4114,-2.332,-2.2365,-2.1958,-2.129,-2.0399,-1.9598,-1.9093,-1.8694,-1.7843,-1.7368,-1.7025,-1.6185,-1.5726,-1.5398,-1.4902,-1.4759,-1.47,0.0,0.0,0.0,0.0,0.0,0.0,0.0,0.0,0.0,0.0,0.0,0.0,0.0,0.0,-2.2142,-2.3016,0.0,-2.4603,-2.5761,-2.6798,-2.7771,-2.8667,-2.9705,-3.0343,-3.0343,-3.0714,-3.1384,-3.2462,-3.2813,-3.3139,-3.3522,-3.3822,-3.3992,-3.3992,-3.4378,-3.4577,-3.4577,-3.4839,-3.4962,-3.4962,-3.5044,-3.5086,-3.5086,-3.5086,-3.5086,-3.5086,-3.5086,-3.4926,-3.4646,-3.4524,-3.4152,-3.3582,-3.3212,-3.2671,-3.2092,-3.1637,-3.0939,-3.0258,-3.0258,-3.0077,-2.9868,0.0,0.0,0.0,0.0,0.0,0.0,-1.1382,-1.198,-1.2635,-1.3353,-1.4403,-1.5351,-1.6078,-1.661,-1.7224,-1.8051,-1.9057,-2.0089,-2.1107,-2.2183,-2.283,-2.2924,-2.3705,-2.4187,-2.4263,-2.5179,-2.572,-2.5793,-2.6707,-2.7064,-2.699,-2.6794,-2.6561,-2.6336,-2.6336,-2.5619,-2.4489,-2.4238,-2.3511,-2.242,-2.2278,-2.1873,-2.1296,-2.0322,-1.9904,-1.9648,-1.8582,-1.8138,-1.7909,-1.6965,-1.661,-1.6433,-1.5877,-1.5805,-1.5759,-1.5239,-1.5452,0.0,0.0,0.0,0.0,0.0,0.0,0.0,0.0,-1.9641,-2.0184,-2.176,-2.2607,-2.3269,-2.3947,-2.4998,-2.5984,-2.6618,-2.7746,-2.8729,-2.9261,-3.0585,-3.1578,-3.1695,-3.185,-3.2331,-3.3496,-3.3692,-3.3927,-3.4358,-3.4397,-3.4491,-3.4638,-3.4831,-3.5022,-3.5182,-3.5271,-3.5328,-3.5328,-3.5262,-3.5236,-3.5236,-3.5236,-3.5236,-3.5236,-3.5236,-3.5236,-3.5195,-3.5195,-3.486,-3.4326,-3.3793,-3.3273,-3.2819,-3.2606,-3.1993,-3.1294,-3.1151,-3.1099,-3.1099,0.0,0.0,0.0,0.0,0.0,0.0,0.0,0.0,-1.1777,-1.2467,-1.3143,-1.4011,-1.5189,-1.5851,-1.6826,-1.8394,-1.9148,-1.975,-2.0291,-2.1377,-2.2206,-2.2617,-2.3251,-2.376,-2.4099,-2.4769,-2.5315,-2.5793,-2.6272,-2.6657,-2.699,-2.6794,-2.6346,-2.5686,-2.5686,-2.5096,-2.4061,-2.3746,-2.3231,-2.2647,-2.2321,-2.1873,-2.1344,-2.0742,-2.0213,-1.9724,-1.9107,-1.8576,-1.8156,-1.8022,-1.7663,-1.7183,-1.6656,-1.6811,-1.7087,-1.6536,-1.6775,-1.7171,-1.7111,-1.7267,-1.7751,-1.8951,-1.9273,-1.9556,0.0,-2.1264,-2.181,-2.2625,-2.3226,-2.3972,-2.5156,-2.5937,-2.6643,-2.736,-2.8388,-2.9248,-2.9682,-3.0738,-3.1772,-3.2489,-3.3024,-3.3443,-3.3574,-3.4018,-3.4332,-3.4397,-3.4397,-3.4703,-3.5413,-3.5482,-3.5873,-3.6644,-3.6335,-3.6179,-3.6179,-3.5818,-3.5642,-3.5642,-3.5642,-3.5642,-3.5642,-3.5642,-3.5642,-3.5642,-3.544,-3.525,-3.4939,-3.4353,-3.4073,-3.3913,-3.2913,-3.2435,-3.2277,-3.1721,-3.1535,-3.1535,0.0,0.0,0.0,0.0,0.0,0.0,0.0,0.0,-1.1629,-1.2258,-1.2861,-1.3693,-1.4893,-1.5868,-1.6874,-1.794,-1.8521,-1.9235,-2.0124,-2.0892,-2.1533,-2.2036,-2.2877,-2.3398,-2.3561,-2.4521,-2.5049,-2.5148,-2.5574,-2.5826,-2.5894,-2.5696,-2.5438,-2.5146,-2.5146,-2.472,-2.3973,-2.3647,-2.3182,-2.2622,-2.2013,-2.1596,-2.1308,-2.0454,-2.0013,-1.9736,-1.9179,-1.8855,0.0,-1.8301,-1.8049,-1.7772,-1.7219,-1.7279,-1.7484,-1.7254,-1.7411,-1.7703,-1.8019,-1.8411,-1.889,-1.9715,-2.0185,-2.0656,-2.1506,-2.1852,-2.232,-2.3342,-2.3954,-2.4598,-2.546,-2.6429,-2.7351,-2.7967,-2.8912,-2.9852,-3.066,-3.1604,-3.2463,-3.3143,-3.3718,-3.4058,-3.4058,-3.4267,-3.4541,-3.4894,-3.5021,-3.5397,-3.6075,-3.6372,-3.6706,-3.7059,-3.703,-3.698,-3.698,-3.6496,-3.6225,-3.6225,-3.5886,-3.571,-3.571,-3.571,-3.571,-3.571,-3.5602,-3.5521,-3.5413,-3.5171,-3.4874,-3.4511,-3.4013,-3.3446,-3.2734,-3.1896,-3.1609,-3.1609,0.0,0.0,0.0,0.0,0.0,0.0,0.0,0.0,0.0,0.0,-1.2532,-1.3424,-1.4772,-1.5678,-1.6504,-1.723,-1.7815,-1.8552,-1.9552,-2.0215,-2.0838,-2.1391,-2.2271,-2.2869,-2.3126,-2.3989,-2.4515,-2.4632,-2.4858,-2.5027,-2.5084,-2.4885,-2.4713,-2.4594,-2.4594,-2.428,-2.3722,-2.3263,-2.2813,-2.2419,-2.1523,-2.1091,-2.0875,-2.0109,-1.9724,-1.9543,-1.9158,-1.8987,-1.8965,-1.858,-1.8485,-1.8389,-1.7883,-1.7897,-1.8081,-1.7934,-1.8154,-1.856,-1.9004,-1.9548,-2.013,-2.0649,-2.1094,-2.1597,-2.2217,-2.2496,-2.2942,-2.3998,-2.4657,-2.5197,-2.5737,-2.6914,-2.7977,-2.842,-2.9353,-3.0348,-3.1241,-3.2137,-3.2855,-3.33,-3.3966,-3.4397,-3.4397,-3.4397,-3.4646,-3.5247,-3.5473,-3.5947,-3.6813,-3.7214,-3.7553,-3.7758,-3.7781,-3.7743,-3.7743,-3.6999,-3.6605,-3.6592,-3.5995,-3.571,-3.571,-3.571,-3.571,-3.571,-3.571,-3.571,-3.571,-3.571,-3.5425,-3.5019,-3.4856,-3.4217,-3.3254,-3.2347,-3.1927,-3.178,0.0,0.0,0.0,0.0,0.0,0.0,0.0,0.0,0.0,0.0,0.0,-1.2911,-1.4702,-1.4928,-1.5371,-1.6447,-1.7074,-1.7639,-1.8135,-1.9198,-2.0111,-2.0699,-2.125,-2.2006,-2.2972,-2.3036,-2.3535,-2.4523,-2.4333,-2.4532,-2.5084,-2.4885,-2.4531,-2.4017,-2.4017,-2.3703,-2.3065,-2.2286,-2.1945,-2.1854,-2.0967,-2.031,-1.9856,-1.982,-1.9495,-1.9011,-1.8999,-1.8987,-1.9025,-1.9119,-1.9172,-1.9113,-1.8693,-1.8928,-1.9235,-1.8719,-1.9308,-2.0158,-2.0385,-2.0837,-2.1384,-2.2076,-2.2243,-2.2406,-2.2957,-2.3509,-2.4104,-2.465,-2.5209,-2.5749,-2.6361,-2.7544,-2.8435,-2.8654,-2.9823,-3.0761,-3.0975,-3.198,-3.2698,-3.2725,-3.3718,-3.4397,-3.4397,-3.4397,-3.4646,-3.5247,-3.5473,-3.6204,-3.7603,-3.7903,-3.8435,-3.9224,-3.8695,-3.8383,-3.8383,-3.7202,-3.6605,-3.6592,-3.5995,-3.571,-3.571,-3.571,-3.571,-3.571,-3.571,-3.571,-3.571,-3.571,-3.571,-3.5628,-3.5019,-3.4475,-3.3892,-3.3268,-3.2671,-3.2182,0.0,0.0,0.0,0.0,0.0,0.0,0.0,0.0,0.0,0.0,0.0,0.0,0.0,0.0,0.0,0.0,-1.5938,-1.6721,-1.726,-1.8009,-1.8825,-1.9791,-2.0385,-2.1017,-2.1738,-2.2137,-2.2426,-2.2627,-2.2582,-2.2597,-2.2728,-2.264,-2.251,-2.2334,-2.2334,-2.2176,-2.1873,-2.1486,-2.1239,-2.1104,-2.037,-1.9949,-1.9772,-1.9396,-1.8927,-1.847,0.0,-1.8815,-1.9143,-1.917,-1.9249,-1.9317,-1.9186,-1.9325,-1.9602,-1.9893,-2.0243,-2.0632,-2.1062,-2.1562,-2.2026,-2.223,-2.2556,-2.2882,-2.3058,-2.359,-2.4155,-2.4675,-2.5234,-2.5808,-2.6523,-2.7405,-2.8241,-2.8805,-2.9697,-3.0587,-3.1406,-3.2215,-3.2842,-3.3247,-3.3953,-3.4397,-3.4397,-3.4397,-3.4789,-3.5757,-3.6237,-3.7014,-3.8229,-3.8697,-3.9013,-3.9292,-3.9102,-3.9007,-3.9007,-3.8206,-3.7609,-3.7216,-3.6198,-3.571,-3.571,-3.571,-3.571,-3.571,-3.571,-3.571,-3.571,-3.571,-3.571,-3.5696,-3.5506,-3.5019,-3.4475,-3.3865,-3.3268,-3.2748,0.0,0.0,0.0,0.0,0.0,0.0,0.0,0.0,0.0,0.0,0.0,0.0,0.0,0.0,0.0,0.0,0.0,-1.5768,-1.6537,-1.7093,-1.7824,-1.8746,-1.9373,-2.0002,-2.0706,-2.1089,-2.1392,-2.162,-2.162,-2.1564,-2.1493,-2.1493,-2.1493,-2.1493,-2.1437,-2.1381,-2.1269,-2.0822,-2.0486,-2.0167,-1.9486,-1.9095,-1.8891,-1.8554,-1.8217,0.0,-1.8066,-1.8371,-1.8739,-1.8973,-1.91,-1.924,-1.9477,-1.9617,-1.982,-2.0501,-2.083,-2.1106,-2.1631,-2.2184,-2.2581,-2.2581,-2.2844,-2.3108,-2.3108,-2.359,-2.4155,-2.4675,-2.5234,-2.5808,-2.651,-2.7334,-2.8107,-2.8766,-2.9564,-3.0427,-3.1367,-3.2202,-3.2829,-3.3221,-3.394,-3.4397,-3.4397,-3.4397,-3.4868,-3.6018,-3.6528,-3.732,-3.8535,-3.8935,-3.9203,-3.9305,-3.9305,-3.9305,-3.9305,-3.8708,-3.8016,-3.7189,-3.6185,-3.571,-3.571,-3.571,-3.571,-3.571,-3.571,-3.571,-3.571,-3.571,-3.571,-3.571,-3.571,-3.5317,-3.4748,-3.4355,-3.3756,-3.3006,0.0,0.0,0.0,0.0,0.0,0.0,0.0,0.0,0.0,0.0,0.0,0.0,0.0,0.0,0.0,0.0,0.0,0.0,-1.5838,-1.6466,-1.7055,-1.76,-1.8183,-1.8931,-1.9889,-1.9902,-2.0368,-2.1317,-2.1317,-2.1317,-2.1317,-2.1317,-2.1317,-2.1317,-2.1191,-2.112,-2.1042,-2.0223,-1.959,-1.9052,-1.8413,-1.7857,-1.7387,-1.7387,-1.7375,-1.7376,-1.7521,-1.7641,-1.7834,-1.8511,-1.8772,-1.8921,-1.9584,-1.9798,-1.9924,-2.0553,-2.1106,-2.1606,-2.2196,-2.2706,-2.3108,-2.3108,-2.3108,-2.3108,-2.3108,-2.359,-2.4142,-2.4637,-2.5222,-2.5762,-2.6348,-2.7214,-2.8033,-2.8597,-2.9453,-3.0257,-3.0869,-3.1927,-3.2659,-3.2685,-3.3679,-3.4371,-3.4397,-3.4397,-3.4868,-3.6018,-3.6341,-3.7131,-3.849,-3.8787,-3.9011,-3.9247,-3.9305,-3.9305,-3.9305,-3.8681,-3.7799,-3.6632,-3.6008,-3.571,-3.571,-3.571,-3.571,-3.571,-3.571,-3.571,-3.571,-3.571,-3.571,-3.571,-3.571,-3.5331,-3.4829,-3.4802,-3.4109,-3.3061,0.0,0.0,0.0,0.0,0.0,0.0,0.0,0.0,0.0,0.0,0.0,0.0,0.0,0.0,0.0,0.0,0.0,0.0,-1.4581,-1.5107,-1.5833,-1.6784,-1.6948,-1.7531,-1.8641,-1.8667,-1.8781,-1.9045,-1.9045,-1.9045,-1.9045,-1.8933,-1.8896,-1.8896,-1.8759,-1.8634,-1.8534,-1.8312,-1.8079,-1.7846,-1.7664,-1.7507,-1.7387,-1.7387,-1.7147,-1.6822,-1.7068,-1.6927,-1.6776,-1.7854,-1.8547,-1.9033,-1.961,-1.9798,-1.9999,-2.0991,-2.138,-2.1694,-2.2631,-2.2995,-2.3108,-2.3108,-2.3108,-2.3108,-2.3108,-2.359,-2.4042,-2.418,-2.4946,-2.5682,-2.6013,-2.671,-2.7443,-2.8147,-2.8976,-2.9693,-3.0231,-3.1301,-3.2215,-3.2646,-3.3352,-3.3953,-3.4358,-3.4397,-3.4868,-3.6018,-3.6341,-3.703,-3.8251,-3.8697,-3.8908,-3.9011,-3.9203,-3.9305,-3.9305,-3.8274,-3.7567,-3.7241,-3.6184,-3.571,-3.571,-3.571,-3.571,-3.571,-3.571,-3.571,-3.571,-3.571,-3.571,-3.571,-3.571,-3.5628,-3.5398,-3.4965,-3.4328,-3.3634,0.0,0.0,0.0,0.0,0.0,0.0,0.0,0.0,0.0,0.0,0.0,0.0,0.0,0.0,0.0,0.0,0.0,0.0,0.0,-1.4256,-1.4786,-1.5624,-1.5662,-1.6184,-1.7291,-1.7316,-1.7553,-1.8025,-1.8025,-1.8025,-1.8025,-1.7954,-1.7918,-1.7918,-1.7774,-1.7666,-1.7605,-1.7545,-1.7316,0.0,0.0,-1.6907,-1.6703,-1.6703,-1.6511,-1.6281,-1.6553,-1.6512,-1.6476,-1.7424,-1.8307,-1.9096,-1.9635,-1.9798,-2.0024,-2.1154,-2.1493,-2.1732,-2.2807,-2.3108,-2.3108,-2.3108,-2.3108,-2.3108,-2.3108,-2.3358,-2.369,-2.3954,-2.4481,-2.5003,-2.5353,-2.6024,-2.6752,-2.743,-2.8239,-2.9041,-2.9861,-3.082,-3.1771,-3.2594,-3.3221,-3.3809,-3.4345,-3.4397,-3.4776,-3.5678,-3.6109,-3.6885,-3.8147,-3.8472,-3.8652,-3.8742,-3.9011,-3.9203,-3.9305,-3.8082,-3.7485,-3.7472,-3.6307,-3.571,-3.571,-3.571,-3.571,-3.571,-3.571,-3.571,-3.571,-3.571,-3.571,-3.571,-3.571,-3.571,-3.5683,-3.5303,-3.4802,-3.4206,0.0,0.0,0.0,0.0,0.0,0.0,0.0,0.0,0.0,0.0,-0.9645,0.0,0.0,0.0,0.0,0.0,0.0,0.0,0.0,0.0,-1.3859,-1.4474,-1.4499,-1.4966,-1.5967,-1.5979,-1.6434,-1.738,-1.7454,-1.7491,-1.7491,-1.7541,-1.7565,-1.7565,-1.741,-1.7314,-1.7253,-1.7147,-1.6775,-1.6283,-1.6283,-1.6018,-1.5598,0.0,-1.5598,-1.5632,-1.5978,-1.6256,-1.6588,-1.7187,-1.8066,-1.8983,-1.9509,-1.9748,-2.0024,-2.1154,-2.1493,-2.1732,-2.2807,-2.3108,-2.3108,-2.3108,-2.3108,-2.3108,-2.3108,-2.3108,-2.3246,-2.3778,-2.3941,-2.4142,-2.4619,-2.531,-2.5998,-2.6583,-2.7404,-2.8359,-2.9497,-3.0355,-3.1249,-3.2398,-3.3104,-3.3692,-3.4241,-3.4358,-3.4646,-3.5247,-3.5796,-3.6668,-3.7996,-3.8115,-3.8304,-3.8602,-3.8742,-3.8966,-3.9216,-3.8038,-3.7443,-3.7429,-3.6252,-3.571,-3.571,-3.571,-3.571,-3.571,-3.571,-3.571,-3.571,-3.571,-3.571,-3.571,-3.571,-3.571,-3.571,-3.5669,-3.5263,-3.4668,0.0,0.0,0.0,0.0,0.0,0.0,0.0,0.0,0.0,0.0,-0.938,-0.943,0.0,0.0,0.0,0.0,0.0,0.0,0.0,0.0,0.0,-1.3896,-1.3933,-1.4228,-1.4868,-1.4893,-1.4979,-1.5163,-1.5598,-1.5807,-1.5819,-1.6162,-1.6313,-1.6313,-1.6168,-1.586,-1.5452,-1.5442,-1.5151,-1.4699,-1.4699,-1.4651,-1.4566,-1.4566,0.0,0.0,-1.5302,-1.5913,-1.6523,-1.7187,-1.7815,-1.8418,-1.897,-1.9434,-2.0024,-2.1154,-2.1493,-2.1732,-2.2807,-2.3108,-2.3108,-2.3108,-2.3108,-2.3108,-2.3108,-2.3108,-2.3133,-2.3233,-2.3665,-2.4029,-2.4117,-2.4741,-2.5414,-2.5986,-2.67,-2.7593,-2.8749,-2.9538,-3.0412,-3.1552,-3.2411,-3.3077,-3.3679,-3.4136,-3.4646,-3.5247,-3.5796,-3.641,-3.7161,-3.7859,-3.8304,-3.8602,-3.8634,-3.8679,-3.8737,-3.7735,-3.7243,-3.723,-3.6225,-3.571,-3.571,-3.571,-3.571,-3.571,-3.571,-3.571,-3.571,-3.571,-3.571,-3.571,-3.571,-3.571,-3.5669,-3.5521,-3.5063,-3.4431,0.0,0.0,0.0,0.0,0.0,0.0,0.0,-0.8897,-0.9097,-0.9135,-0.9135,-0.9191,-0.9328,-0.9607,-0.9899,0.0,0.0,0.0,0.0,0.0,0.0,-1.2784,-1.3076,-1.3478,-1.4014,-1.4026,-1.416,-1.444,0.0,-1.4837,-1.4829,-1.5032,-1.5132,-1.5099,-1.5049,-1.4874,-1.4634,-1.4634,-1.451,-1.4309,-1.4309,-1.4309,-1.4309,-1.4309,0.0,0.0,-1.5077,-1.5578,-1.6077,-1.6682,-1.729,-1.7928,-1.8744,-1.9359,-1.9962,-2.0842,-2.1295,-2.1669,-2.2456,-2.2882,-2.3108,-2.3108,-2.3108,-2.3108,-2.3108,-2.3108,-2.3108,-2.3108,-2.3333,-2.3521,-2.3521,-2.4066,-2.4697,-2.5252,-2.596,-2.6845,-2.7982,-2.8764,-2.9645,-3.0778,-3.181,-3.2653,-3.34,-3.3918,-3.4402,-3.4803,-3.5365,-3.607,-3.6959,-3.7638,-3.8148,-3.8395,-3.8408,-3.8453,-3.8602,-3.7517,-3.7002,-3.6989,-3.5881,-3.5399,-3.5399,-3.5399,-3.5399,-3.5399,-3.5399,-3.5399,-3.5399,-3.5399,-3.5399,-3.5399,-3.5399,-3.5399,-3.5399,-3.5277,-3.5062,-3.4701,0.0,0.0,0.0,0.0,0.0,0.0,0.0,-0.8563,-0.8919,-0.8969,-0.8983,-0.904,-0.9205,-0.9259,-0.9464,0.0,0.0,0.0,0.0,0.0,0.0,0.0,0.0,0.0,-1.307,0.0,0.0,-1.3881,-1.4021,0.0,0.0,0.0,0.0,0.0,-1.4309,-1.4248,-1.412,-1.412,-1.4048,0.0,0.0,-1.3951,-1.3951,0.0,0.0,0.0,0.0,-1.5159,-1.5637,-1.6081,-1.6745,-1.7561,-1.8405,-1.9083,-1.9773,-2.049,-2.0993,-2.1458,-2.1983,-2.2447,-2.2757,-2.2757,-2.2757,-2.2757,-2.2757,-2.2757,-2.2757,-2.2757,-2.2757,-2.2794,-2.2907,-2.3339,-2.3853,-2.4531,-2.5194,-2.6059,-2.7208,-2.8099,-2.9025,-3.0023,-3.1304,-3.2333,-3.2974,-3.3633,-3.4076,-3.423,-3.4862,-3.5752,-3.6946,-3.7573,-3.7979,-3.8122,-3.8135,-3.816,-3.8281,-3.7276,-3.6678,-3.6532,-3.5578,-3.5086,-3.5086,-3.5086,-3.5086,-3.5086,-3.5086,-3.5086,-3.5086,-3.5086,-3.5086,-3.5086,-3.5086,-3.5086,-3.5086,-3.5044,-3.5044,-3.4951,0.0,0.0,0.0,0.0,0.0,0.0,0.0,-0.8563,-0.8905,-0.8905,-0.8905,-0.8919,-0.8933,-0.9097,-0.9255,0.0,0.0,0.0,0.0,0.0,0.0,0.0,0.0,0.0,0.0,0.0,0.0,-1.2572,-1.3126,0.0,0.0,0.0,0.0,0.0,0.0,-1.4024,-1.3565,-1.3565,0.0,0.0,0.0,0.0,0.0,0.0,0.0,0.0,0.0,-1.4462,-1.543,-1.5624,-1.6454,-1.7423,-1.7524,-1.8254,-1.9284,-2.0377,-2.0729,-2.0893,-2.1446,-2.1606,-2.1644,-2.1644,-2.1644,-2.1644,-2.1644,-2.1644,-2.1644,-2.1644,-2.1644,-2.1794,-2.2297,-2.2435,-2.2824,-2.3904,-2.4531,-2.5317,-2.6445,-2.7645,-2.864,-2.925,-3.0943,-3.2138,-3.219,-3.3152,-3.3755,-3.3755,-3.4465,-3.5565,-3.6946,-3.7573,-3.79,-3.7946,-3.7946,-3.7684,-3.7135,-3.6713,-3.6264,-3.5693,-3.5309,-3.5086,-3.5086,-3.5086,-3.5086,-3.5086,-3.5086,-3.5086,-3.5086,-3.5086,-3.5086,-3.5086,-3.5086,-3.5086,-3.5086,-3.488,-3.4839,-3.4718,0.0,0.0,0.0,0.0,0.0,0.0,-0.745,-0.8163,-0.8684,-0.877,-0.8784,-0.8811,-0.8891,-0.8974,-0.9042,-0.9108,0.0,0.0,0.0,0.0,0.0,0.0,0.0,0.0,0.0,0.0,-1.2077,-1.2395,-1.265,0.0,0.0,0.0,0.0,0.0,0.0,-1.3068,-1.2902,-1.2902,0.0,0.0,0.0,0.0,0.0,0.0,0.0,0.0,0.0,0.0,-1.4426,-1.5123,-1.5785,-1.642,-1.7095,-1.7631,-1.8254,-1.9359,-2.015,-2.0742,-2.0968,-2.1257,-2.1493,-2.1493,-2.1493,-2.1493,-2.1493,-2.1493,-2.1493,-2.1493,-2.1493,-2.1656,-2.2209,-2.2309,-2.2686,-2.3816,-2.4456,-2.5084,-2.5837,-2.7251,-2.8294,-2.8509,-3.0111,-3.1394,-3.1873,-3.26,-3.3241,-3.3645,-3.435,-3.4963,-3.5546,-3.6382,-3.6828,-3.6828,-3.6828,-3.6711,-3.6462,-3.6,-3.565,-3.5414,-3.4895,-3.4701,-3.4701,-3.4701,-3.4701,-3.4701,-3.4701,-3.4701,-3.4701,-3.4701,-3.4701,-3.4701,-3.4701,-3.4701,-3.466,-3.4577,-3.4577,-3.4496,0.0,0.0,0.0,0.0,0.0,-0.6851,-0.7048,-0.7755,-0.8351,-0.8581,-0.8631,-0.8673,-0.8767,-0.8795,-0.8836,-0.8903,-0.8955,0.0,0.0,0.0,0.0,0.0,0.0,0.0,0.0,0.0,-1.1692,-1.2072,-1.2259,-1.2347,0.0,0.0,-1.2395,-1.2395,0.0,0.0,0.0,0.0,0.0,0.0,0.0,0.0,0.0,0.0,0.0,0.0,0.0,0.0,0.0,0.0,0.0,-1.5678,-1.6427,-1.6943,-1.7472,-1.8457,-1.9447,-2.0175,-2.0149,-2.0523,-2.0949,-2.0894,-2.0894,-2.0894,-2.0894,-2.0894,-2.0894,-2.0894,-2.0894,-2.1029,-2.1578,-2.1815,-2.2239,-2.323,-2.416,-2.4861,-2.5256,-2.6919,-2.8109,-2.8109,-2.9591,-3.0861,-3.1592,-3.2342,-3.298,-3.3573,-3.3981,-3.4254,-3.4341,-3.5003,-3.5539,-3.5934,-3.5978,-3.5944,-3.5774,-3.5439,-3.5208,-3.5025,-3.4607,-3.4397,-3.4397,-3.4397,-3.4397,-3.4397,-3.4397,-3.4397,-3.4397,-3.4397,-3.4397,-3.4397,-3.4314,-3.4314,-3.4314,-3.423,-3.4189,-3.4189,0.0,0.0,0.0,0.0,0.0,0.0,-0.6924,-0.7402,-0.7869,-0.8343,-0.846,-0.8499,-0.8499,-0.8558,-0.8631,-0.869,-0.8825,0.0,0.0,0.0,0.0,0.0,0.0,0.0,0.0,0.0,-1.1314,-1.1314,-1.1913,-1.221,-1.221,-1.2347,-1.2395,-1.2395,0.0,0.0,0.0,0.0,0.0,0.0,0.0,0.0,-1.2709,0.0,0.0,0.0,0.0,0.0,0.0,0.0,0.0,0.0,0.0,-1.6139,-1.7156,-1.797,-1.8581,-1.8983,-1.8871,-1.9219,-1.9577,-1.9459,-1.9406,-1.9406,-1.9406,-1.9406,-1.9406,-1.9406,-1.9406,-1.9578,-2.0118,-2.0659,-2.1199,-2.1834,-2.3443,-2.4606,-2.4618,-2.6624,-2.8109,-2.8109,-2.9591,-3.0821,-3.1336,-3.2445,-3.3197,-3.3398,-3.3398,-3.3484,-3.3683,-3.3725,-3.4251,-3.548,-3.5683,-3.5499,-3.4943,-3.5158,-3.4999,-3.441,-3.4397,-3.4397,-3.4397,-3.4397,-3.4397,-3.4397,-3.4397,-3.4397,-3.4397,-3.4397,-3.4397,-3.4397,-3.4202,-3.4118,-3.4076,-3.381,-3.3713,-3.3713,0.0,0.0,0.0,0.0,0.0,0.0,0.0,-0.7331,-0.7808,-0.8332,-0.8421,-0.8435,-0.8435,-0.8488,-0.853,-0.8558,-0.8687,0.0,0.0,0.0,0.0,0.0,0.0,0.0,0.0,-1.0034,-1.0567,-1.1302,-1.1497,-1.1768,-1.212,-1.2186,-1.2186,-1.2186,-1.2186,-1.2222,0.0,0.0,0.0,0.0,0.0,-1.1494,-1.1575,0.0,0.0,0.0,0.0,0.0,0.0,0.0,0.0,0.0,0.0,0.0,0.0,-1.6222,-1.7187,-1.8166,-1.8141,-1.8499,-1.8918,-1.8867,-1.9124,-1.9394,-1.9394,-1.9394,-1.9394,-1.9394,-1.9394,-1.9554,-2.0106,-2.0646,-2.1186,-2.181,-2.3306,-2.4398,-2.4398,-2.5975,-2.7285,-2.7656,-2.9605,-3.106,-3.1373,-3.2416,-3.3111,-3.3197,-3.3197,-3.324,-3.3283,-3.3283,-3.3606,-3.4251,-3.4337,-3.4247,-3.408,-3.4165,-3.4117,-3.3924,-3.3924,-3.3924,-3.3924,-3.3924,-3.3924,-3.3924,-3.3924,-3.3924,-3.3924,-3.3924,-3.3924,-3.3937,-3.3852,-3.381,-3.381,-3.3725,-3.3713,-3.3713,0.0,0.0,0.0,0.0,0.0,0.0,0.0,-0.7005,-0.748,-0.7995,-0.8234,-0.8365,-0.8365,-0.8432,-0.8474,-0.8499,-0.8572,0.0,0.0,0.0,0.0,0.0,0.0,0.0,-0.9399,-0.9562,-1.0079,-1.0916,-1.1143,-1.1514,-1.2034,-1.2077,-1.2095,-1.2095,-1.2095,-1.1998,0.0,0.0,0.0,0.0,-1.0865,-1.0924,-1.1006,0.0,0.0,0.0,0.0,0.0,0.0,0.0,0.0,0.0,0.0,0.0,0.0,0.0,-1.5949,-1.6837,-1.7298,-1.7812,-1.8203,-1.8154,-1.8556,-1.8958,-1.8958,-1.9117,-1.9263,-1.9263,-1.9263,-1.9361,-1.9702,-2.036,-2.0982,-2.1336,-2.2971,-2.4189,-2.4189,-2.5654,-2.6992,-2.7692,-2.968,-3.1055,-3.1165,-3.2162,-3.2822,-3.2822,-3.2822,-3.2865,-3.2939,-3.2939,-3.3099,-3.3484,-3.3556,-3.3598,-3.3598,-3.367,-3.3713,-3.3713,-3.3713,-3.3713,-3.3713,-3.3713,-3.3713,-3.3713,-3.3713,-3.3713,0.0,-3.3713,-3.3713,-3.367,-3.3641,-3.3598,-3.3598,-3.3513,-3.3471,-3.3471,0.0,0.0,0.0,0.0,0.0,0.0,0.0,-0.6466,-0.6922,-0.7431,-0.7935,-0.8248,-0.828,-0.8351,-0.8421,-0.8485,0.0,0.0,0.0,0.0,0.0,0.0,0.0,0.0,-0.8891,-0.9313,-0.9791,-1.0295,-1.0849,-1.1404,-1.1899,-1.2016,-1.2077,-1.2095,-1.2095,-1.1779,-1.1222,0.0,0.0,0.0,-1.0591,-1.0665,0.0,0.0,0.0,0.0,0.0,0.0,0.0,0.0,0.0,0.0,0.0,0.0,0.0,0.0,0.0,0.0,0.0,-1.7119,-1.7508,-1.7376,-1.7784,-1.8205,-1.8205,-1.8614,0.0,-1.8987,-1.8987,-1.8999,-1.9035,-1.9904,-2.0615,-2.0658,-2.2527,-2.398,-2.398,-2.5575,-2.7078,-2.8158,-2.9705,-3.0741,-3.0778,-3.1724,-3.2351,-3.24,-3.24,-3.2475,-3.268,-3.268,-3.281,-3.3038,-3.3227,-3.3356,-3.3398,-3.3556,-3.367,-3.367,-3.367,-3.367,-3.367,-3.367,-3.367,-3.367,-3.367,-3.367,-3.367,-3.367,-3.3641,-3.3586,-3.3428,-3.3356,-3.3313,-3.3111,-3.3038,-3.3038,0.0,0.0,0.0,0.0,0.0,0.0,0.0,0.0,0.0,0.0,-0.761,-0.7821,-0.8188,-0.8276,-0.8333,0.0,0.0,0.0,0.0,0.0,0.0,0.0,0.0,0.0,-0.8756,-0.8853,-0.9374,-1.0295,-1.0435,-1.0951,-1.1819,-1.1856,-1.1899,-1.1943,-1.1943,-1.1519,-1.0729,-1.0217,0.0,0.0,-0.9536,-0.9578,0.0,0.0,0.0,0.0,-1.099,-1.1491,0.0,0.0,0.0,0.0,0.0,0.0,0.0,0.0,-1.473,-1.5145,-1.5836,0.0,-1.6834,-1.6787,-1.7508,-1.8205,0.0,-1.8614,-1.8987,-1.8987,-1.8987,-1.9119,-1.9543,-2.0141,-2.0742,-2.1151,-2.2686,-2.386,-2.386,-2.5587,-2.7171,-2.7966,-2.9151,-3.0135,-3.0741,-3.1392,-3.1958,-3.2363,-3.24,-3.2431,-3.2475,-3.2475,-3.2519,-3.2562,-3.2605,-3.2822,-3.3154,-3.324,-3.324,-3.324,-3.324,-3.324,-3.324,-3.324,-3.324,-3.324,-3.324,-3.324,-3.324,-3.324,-3.3099,-3.2927,-3.2884,-3.2766,-3.2649,-3.2562,-3.2562,-3.2562,0.0,0.0,0.0,0.0,0.0,0.0,0.0,0.0,0.0,0.0,0.0,-0.7597,-0.7845,-0.8094,0.0,0.0,0.0,0.0,0.0,0.0,0.0,0.0,0.0,-0.8617,-0.8659,-0.8659,-0.916,-1.021,-1.0242,-1.0771,-1.1756,-1.1782,-1.1819,-1.1833,-1.1408,-1.0951,-1.0471,-0.9763,-0.9322,-0.9106,-0.9135,0.0,0.0,0.0,0.0,0.0,-1.0371,-1.0769,0.0,-1.1581,-1.1971,-1.2246,0.0,0.0,0.0,0.0,-1.4121,-1.4604,-1.5148,-1.5727,-1.6178,-1.6178,-1.692,-1.7645,-1.7645,-1.8253,-1.8827,-1.8827,-1.8827,-1.8967,-1.9491,-1.9999,-2.0534,-2.1087,-2.2492,-2.3811,-2.4608,-2.5985,-2.7128,-2.7799,-2.8802,-2.9743,-3.0426,-3.0961,-3.1497,-3.2033,-3.2069,-3.2125,-3.2213,-3.2213,-3.2257,-3.24,-3.24,-3.2519,-3.2779,-3.2779,-3.2779,-3.2779,-3.2779,-3.2779,-3.2779,-3.2779,-3.2779,-3.2779,-3.2779,-3.2779,-3.2779,-3.2779,-3.2692,-3.255,-3.255,-3.2519,-3.24,-3.24,-3.24,-3.24,0.0,0.0,0.0,0.0,0.0,0.0,0.0,0.0,0.0,0.0,0.0,0.0,0.0,0.0,0.0,0.0,0.0,0.0,0.0,0.0,0.0,0.0,-0.86,-0.86,-0.86,-0.86,-0.9098,-1.0102,-1.0156,-1.0698,-1.1664,-1.1738,-1.1719,-1.1637,-1.0766,-1.0348,-1.0224,-0.9426,-0.9079,-0.9079,-0.9079,0.0,0.0,0.0,0.0,0.0,0.0,0.0,0.0,-1.1088,-1.1472,-1.1684,-1.2136,0.0,0.0,0.0,0.0,0.0,-1.4552,-1.5146,-1.5649,-1.5671,-1.6327,-1.6995,-1.6995,-1.7819,-1.8587,-1.8587,-1.8657,-1.8842,-1.9331,-1.9848,-2.0429,-2.1016,-2.2356,-2.3907,-2.562,-2.6411,-2.7038,-2.766,-2.8511,-2.9342,-2.9942,-3.0397,-3.0925,-3.1536,-3.1617,-3.1717,-3.1893,-3.195,-3.2081,-3.23,-3.23,-3.23,-3.23,-3.2344,-3.24,-3.24,-3.24,-3.24,-3.24,-3.24,-3.24,-3.24,-3.24,-3.24,-3.24,-3.24,-3.24,-3.2356,-3.2356,-3.23,-3.23,-3.23,-3.23,-3.23,0.0,0.0,0.0,0.0,0.0,0.0,0.0,0.0,0.0,0.0,0.0,0.0,0.0,0.0,0.0,0.0,0.0,0.0,0.0,0.0,0.0,-0.8513,-0.8572,-0.86,-0.86,-0.86,-0.9098,-1.0102,-1.0108,-1.0595,-1.1522,-1.1541,-1.1359,-1.1025,-1.0531,-1.0087,-0.9683,-0.9153,-0.8971,-0.901,-0.901,0.0,0.0,0.0,0.0,0.0,0.0,0.0,0.0,-1.0253,-1.0904,-1.1613,-1.1695,0.0,0.0,0.0,0.0,0.0,-1.4552,-1.5015,-1.5402,-1.5491,-1.628,-1.6995,-1.6995,-1.7819,-1.8587,-1.8587,-1.8912,-1.9355,-1.9871,-2.0417,-2.1075,-2.2007,-2.3132,-2.4437,-2.6003,-2.6335,-2.6747,-2.7726,-2.8025,-2.8486,-2.943,-2.9596,-3.0044,-3.1036,-3.1273,-3.1395,-3.1395,-3.1617,-3.1761,-3.1805,-3.1805,-3.1805,-3.1805,-3.2213,-3.24,-3.24,-3.24,-3.24,-3.24,-3.24,-3.24,-3.24,-3.24,-3.24,-3.24,-3.24,-3.2257,-3.2081,-3.2081,-3.1937,-3.1805,-3.1805,-3.1805,-3.1749,0.0,0.0,0.0,0.0,0.0,0.0,0.0,0.0,0.0,0.0,0.0,0.0,0.0,0.0,0.0,0.0,0.0,0.0,0.0,0.0,-0.8428,-0.8499,-0.8541,-0.8558,-0.86,-0.86,-0.9098,-1.0102,-1.0102,-1.0578,-1.1504,-1.1504,-1.126,-1.0838,-1.0432,-0.9975,-0.9522,-0.9077,-0.8919,-0.8944,0.0,0.0,0.0,0.0,0.0,0.0,0.0,0.0,0.0,0.0,-1.0433,-1.1102,-1.1357,0.0,0.0,0.0,0.0,0.0,-1.4046,-1.4641,-1.5279,-1.5626,-1.6252,-1.6867,-1.7145,-1.7784,-1.8398,-1.8704,-1.892,-1.9338,-2.0127,-2.0714,-2.1449,-2.2738,-2.3467,-2.4365,-2.592,-2.6218,-2.6694,-2.7763,-2.7893,-2.8216,-2.8969,-2.9233,-2.9715,-3.0523,-3.0941,-3.1139,-3.1139,-3.1229,-3.1318,-3.1318,-3.1318,-3.1318,-3.1318,-3.1552,-3.1773,-3.2025,-3.2025,-3.2025,-3.2025,-3.1893,-3.1805,-3.1805,-3.1685,-3.1641,-3.1641,-3.1641,-3.1552,-3.1463,-3.1463,-3.1419,-3.1318,-3.1318,-3.1318,-3.1282,0.0,0.0,0.0,0.0,0.0,0.0,0.0,0.0,0.0,0.0,0.0,0.0,0.0,0.0,0.0,0.0,0.0,0.0,0.0,-0.829,-0.8347,-0.8457,-0.846,-0.8516,-0.8589,-0.86,-0.9098,-1.0102,-1.0102,-1.0578,-1.1504,-1.1504,-1.1177,-1.0622,-1.0305,-0.9841,-0.9278,-0.8962,-0.8836,-0.8853,0.0,0.0,0.0,0.0,0.0,0.0,0.0,0.0,0.0,0.0,0.0,0.0,0.0,0.0,0.0,-1.2049,-1.282,-1.3593,-1.3593,-1.4306,-1.5211,-1.5864,-1.6299,-1.6736,-1.7292,-1.7863,-1.8398,-1.8748,-1.9034,-1.9435,-2.0213,-2.102,-2.1971,-2.3201,-2.3721,-2.4429,-2.5727,-2.6182,-2.6679,-2.7614,-2.7731,-2.797,-2.8474,-2.8977,-2.948,-3.0007,-3.0578,-3.0927,-3.0927,-3.0984,-3.0984,-3.0984,-3.0984,-3.0925,-3.0784,-3.0784,-3.1066,-3.154,-3.154,-3.154,-3.154,-3.1306,-3.1229,-3.1229,-3.1062,-3.0984,-3.0984,-3.0984,-3.0984,-3.0984,-3.0984,-3.0902,-3.0817,-3.0655,-3.062,-3.0517,0.0,0.0,0.0,0.0,0.0,0.0,0.0,0.0,0.0,0.0,0.0,0.0,0.0,0.0,0.0,0.0,0.0,0.0,0.0,-0.8262,-0.8305,-0.8319,-0.8379,-0.8463,-0.8589,-0.86,-0.9098,-1.0102,-1.0102,-1.0578,-1.1504,-1.1504,-1.102,-1.0146,-1.0113,-0.9561,-0.8658,-0.8639,-0.8659,-0.8717,-0.8717,0.0,0.0,0.0,0.0,0.0,0.0,0.0,0.0,0.0,0.0,0.0,0.0,0.0,-1.1469,-1.1957,-1.282,-1.3593,-1.3593,-1.423,-1.5141,-1.6105,-1.6489,-1.6736,-1.7292,-1.8166,-1.8794,-1.8657,-1.9417,-2.014,-2.0208,-2.1508,-2.2765,-2.3316,-2.4212,-2.5015,-2.5624,-2.6157,-2.6691,-2.7203,-2.7272,-2.7467,-2.8015,-2.8456,-2.8962,-2.9502,-3.0209,-3.0623,-3.0623,-3.0871,-3.0984,-3.0984,-3.0984,-3.0782,-3.0275,-3.0264,-3.0523,-3.1074,-3.1074,-3.1074,-3.1074,-3.1017,-3.1029,-3.1029,-3.1029,-3.0984,-3.0984,-3.0984,-3.0984,-3.0984,-3.0984,-3.0711,-3.0205,-2.9679,-2.9398,-2.9238,0.0,0.0,0.0,0.0,0.0,0.0,0.0,0.0,0.0,0.0,0.0,0.0,0.0,0.0,0.0,0.0,0.0,0.0,0.0,-0.8063,-0.8248,-0.8305,-0.8322,-0.8379,-0.8477,-0.8477,-0.8814,-0.9471,-1.0057,-1.0691,-1.1317,-1.1317,-1.0802,-0.9912,-0.9961,-0.9431,-0.853,-0.8586,-0.8614,-0.8645,-0.8645,-0.8659,0.0,0.0,0.0,0.0,0.0,0.0,0.0,0.0,-0.9272,-0.9758,-1.0256,-1.0753,-1.1262,-1.1771,-1.263,-1.341,-1.341,-1.4112,-1.5059,-1.6025,-1.6297,-1.6562,-1.7402,-1.8114,-1.8651,-1.892,-1.955,-2.0284,-2.1227,-2.2139,-2.2929,-2.3426,-2.4081,-2.4691,-2.5249,-2.5746,-2.6244,-2.6753,-2.6809,-2.693,-2.7111,-2.7533,-2.7906,-2.8109,-2.8705,-2.9066,-2.9066,-2.9121,-2.9221,-2.9221,-2.9221,-2.9118,-2.8923,-2.8868,-2.9015,-2.9221,-2.9735,-2.9997,-2.9997,-2.9878,-2.9802,-2.9802,-2.9648,-2.9549,-2.9549,-2.9549,-2.9549,-2.9549,-2.9441,-2.9183,-2.8845,-2.8662,-2.8551,-2.843,0.0,0.0,0.0,0.0,0.0,0.0,0.0,0.0,0.0,0.0,0.0,0.0,0.0,0.0,0.0,0.0,0.0,0.0,-0.7473,-0.7928,-0.8215,-0.8262,-0.8262,-0.829,-0.8336,-0.8336,-0.8598,-0.9095,-1.0036,-1.0662,-1.0981,-1.0981,-1.0556,-0.9797,-0.9686,-0.9214,-0.8474,-0.8519,-0.8533,-0.8533,-0.8533,-0.8547,0.0,0.0,0.0,0.0,0.0,0.0,0.0,0.0,-0.9074,-0.9481,-1.0121,-1.0542,-1.0973,-1.161,-1.2505,-1.3298,-1.3298,-1.4116,-1.5166,-1.5945,-1.6217,-1.6558,-1.7557,-1.8231,-1.8769,-1.9242,-1.9836,-2.0684,-2.1999,-2.2559,-2.2997,-2.3514,-2.4153,-2.4691,-2.5038,-2.5643,-2.6181,-2.6558,-2.6603,-2.6603,-2.6603,-2.701,-2.7301,-2.7301,-2.7803,-2.8084,-2.8084,-2.8084,-2.8084,-2.8084,-2.8084,-2.8005,-2.7848,-2.7848,-2.777,-2.7613,-2.8241,-2.87,-2.897,-2.8864,-2.8778,-2.8778,-2.8594,-2.8496,-2.8496,-2.8496,-2.8496,-2.8485,-2.8164,-2.7978,-2.7837,-2.7669,-2.7613,-2.7568,0.0,0.0,0.0,0.0,0.0,0.0,0.0,0.0,0.0,0.0,0.0,0.0,0.0,0.0,0.0,0.0,0.0,0.0,-0.7462,-0.7928,-0.8201,-0.8201,-0.8201,-0.8201,-0.8201,-0.8201,-0.8492,-0.9095,-1.0025,-1.0482,-1.0492,-1.0492,-1.0237,-0.9776,-0.9308,-0.8844,-0.8396,-0.8396,-0.8396,-0.8396,-0.8396,-0.8435,-0.8499,0.0,0.0,0.0,0.0,0.0,0.0,0.0,-0.8784,-0.906,-1.0008,-1.0295,-1.0497,-1.1498,-1.2505,-1.3298,-1.3298,-1.4272,-1.5408,-1.5886,-1.6242,-1.6749,-1.7781,-1.8607,-1.9264,-1.9548,-2.04,-2.1406,-2.2415,-2.2722,-2.2997,-2.3526,-2.4433,-2.5083,-2.5083,-2.5974,-2.6592,-2.6592,-2.6592,-2.6592,-2.6592,-2.701,-2.7301,-2.7301,-2.7792,-2.8061,-2.8061,-2.8061,-2.8061,-2.8061,-2.8061,-2.7837,-2.7301,-2.7301,-2.7054,-2.6592,-2.6592,-2.7119,-2.8073,-2.8073,-2.8073,-2.8073,-2.8073,-2.8073,-2.8073,-2.8073,-2.8061,-2.8017,-2.7491,-2.7301,-2.7245,-2.6782,-2.6603,-2.6603,0.0,0.0,0.0,0.0,0.0,0.0,0.0,0.0,0.0,0.0,0.0,0.0,0.0,0.0,0.0,0.0,0.0,0.0,-0.7007,-0.7752,-0.8201,-0.8201,-0.8201,-0.8201,-0.8201,-0.8201,-0.8444,-0.8963,-0.9245,-0.9521,-0.9801,-0.9801,-0.9568,-0.9161,-0.9061,-0.8765,-0.8336,-0.8368,-0.8396,-0.8396,-0.8396,-0.841,-0.8435,0.0,0.0,0.0,0.0,0.0,0.0,0.0,0.0,0.0,-0.9848,-1.0156,-1.0355,-1.1311,-1.2278,-1.3026,-1.3026,-1.4069,-1.5274,-1.5731,-1.6175,-1.6863,-1.8185,-1.869,-1.9179,-2.0281,-2.1027,-2.1629,-2.2265,-2.2685,-2.3095,-2.3589,-2.4255,-2.4783,-2.5113,-2.5708,-2.6104,-2.6104,-2.6104,-2.6104,-2.6104,-2.6237,-2.6325,-2.6325,-2.6457,-2.6534,-2.6534,-2.6534,-2.6534,-2.6534,-2.6534,-2.6468,-2.6325,-2.6325,-2.6259,-2.6104,-2.6104,-2.6426,-2.704,-2.704,-2.704,-2.704,-2.704,-2.704,-2.704,-2.704,-2.6914,-2.6734,-2.659,-2.6451,-2.6303,-2.6159,-2.6021,-2.5895,0.0,0.0,0.0,0.0,0.0,0.0,0.0,0.0,0.0,0.0,-0.5473,-0.5502,0.0,0.0,0.0,0.0,0.0,0.0,0.0,-0.768,-0.8201,-0.8201,-0.8201,-0.8201,-0.8201,-0.8201,-0.8346,-0.8616,-0.8802,-0.9015,-0.9268,-0.9268,-0.9139,-0.8885,-0.8744,-0.8534,-0.8262,-0.8305,-0.8322,-0.8322,-0.8322,-0.8336,-0.8365,0.0,0.0,0.0,0.0,0.0,0.0,0.0,0.0,0.0,-0.9669,-0.9988,-1.0172,-1.1111,-1.2061,-1.2785,-1.2785,-1.3972,-1.5279,-1.557,-1.6132,-1.6942,-1.8213,-1.8859,-1.952,-2.069,-2.1177,-2.1552,-2.2211,-2.2557,-2.2864,-2.3129,-2.3755,-2.4335,-2.4605,-2.5222,-2.5633,-2.5633,-2.5633,-2.5633,-2.5633,-2.5633,-2.5633,-2.5633,-2.5633,-2.5633,-2.5633,-2.5633,-2.5633,-2.5633,-2.5633,-2.5633,-2.5633,-2.5633,-2.5633,-2.5633,-2.5633,-2.5759,-2.6052,-2.6135,-2.6188,-2.6188,-2.6093,-2.6052,-2.6052,-2.6052,-2.5968,-2.5801,-2.5801,-2.5717,-2.5633,-2.5633,-2.5549,-2.5422,0.0,0.0,0.0,0.0,0.0,0.0,0.0,0.0,0.0,0.0,-0.5502,-0.5502,0.0,0.0,0.0,0.0,0.0,0.0,0.0,-0.768,-0.8201,-0.8201,-0.8201,-0.8201,-0.8201,-0.8201,-0.8201,-0.8201,-0.8626,-0.8834,-0.8834,-0.8834,-0.8834,-0.8797,-0.8383,-0.8187,-0.8173,-0.8173,-0.8173,-0.8173,-0.8173,-0.8205,-0.8276,-0.8276,0.0,0.0,0.0,0.0,0.0,0.0,0.0,0.0,-0.9499,-0.9808,-0.9989,-1.0928,-1.1862,-1.2595,-1.2595,-1.3935,-1.5339,-1.5382,-1.618,-1.7158,-1.7968,-1.9051,-2.0048,-2.0828,-2.0995,-2.1271,-2.2232,-2.2402,-2.2413,-2.2466,-2.3232,-2.3798,-2.3881,-2.4647,-2.52,-2.52,-2.52,-2.52,-2.52,-2.52,-2.52,-2.52,-2.52,-2.52,-2.52,-2.52,-2.52,-2.52,-2.52,-2.52,-2.52,-2.52,-2.52,-2.52,-2.52,-2.52,-2.52,-2.5464,-2.5559,-2.5559,-2.5295,-2.52,-2.52,-2.52,-2.52,-2.52,-2.52,-2.52,-2.52,-2.52,-2.52,-2.5158,0.0,0.0,0.0,0.0,0.0,0.0,0.0,0.0,0.0,0.0,0.0,0.0,0.0,0.0,0.0,0.0,0.0,0.0,0.0,-0.768,-0.8201,-0.8201,-0.8201,-0.8201,-0.8201,-0.8201,-0.8201,-0.8201,-0.8305,-0.8357,-0.8357,-0.8357,-0.8328,-0.8265,-0.8162,-0.8058,-0.7956,-0.7956,-0.7956,-0.7956,-0.7956,-0.8033,-0.814,-0.814,-0.8183,0.0,0.0,0.0,0.0,0.0,0.0,0.0,-0.9499,-0.9808,-0.9989,-1.0928,-1.1862,-1.2595,-1.2595,-1.369,-1.4924,-1.5307,-1.6658,-1.7915,-1.7954,-1.8701,-1.9748,-2.0793,-2.0995,-2.1271,-2.2232,-2.2402,-2.253,-2.2902,-2.3445,-2.3945,-2.4296,-2.4838,-2.52,-2.52,-2.52,-2.52,-2.52,-2.52,-2.52,-2.52,-2.52,-2.52,-2.52,-2.52,-2.52,-2.52,-2.52,-2.52,-2.52,-2.52,-2.52,-2.52,-2.52,-2.52,-2.52,-2.5242,-2.5295,-2.5285,-2.5242,-2.52,-2.52,-2.52,-2.52,-2.52,-2.52,-2.52,-2.52,-2.52,-2.5115,-2.4946,0.0,0.0,0.0,0.0,0.0,0.0,0.0,0.0,0.0,0.0,0.0,0.0,0.0,0.0,0.0,0.0,0.0,0.0,0.0,0.0,-0.8201,-0.8201,-0.8201,-0.8201,-0.8201,-0.8169,-0.8154,-0.8154,-0.8091,-0.8091,-0.8154,-0.8076,-0.8033,-0.8004,-0.8004,-0.7966,-0.7898,-0.7898,-0.7898,-0.7898,-0.7898,-0.7951,-0.8004,-0.8004,-0.8019,-0.8062,-0.8062,0.0,0.0,0.0,0.0,0.0,0.0,0.0,-0.9848,-1.078,-1.1722,-1.2457,-1.2457,-1.3466,-1.4685,-1.5363,-1.6759,-1.7925,-1.7843,-1.8519,-1.9502,-2.0502,-2.0726,-2.1009,-2.1933,-2.2101,-2.2185,-2.2426,-2.2867,-2.3328,-2.382,-2.4293,-2.4672,-2.484,-2.4871,-2.4871,-2.4871,-2.4871,-2.4871,-2.4871,-2.4871,-2.4871,-2.4871,-2.4871,-2.4871,-2.4871,-2.4786,-2.47,-2.47,-2.4605,-2.4519,-2.4519,-2.4519,-2.4519,-2.4562,-2.4903,-2.4988,-2.4871,-2.4871,-2.4828,-2.47,-2.47,-2.4658,-2.4519,-2.4519,-2.4519,-2.4519,-2.4519,-2.4476,-2.4348,0.0,0.0,0.0,0.0,0.0,0.0,0.0,0.0,0.0,0.0,0.0,0.0,0.0,0.0,0.0,0.0,0.0,0.0,0.0,0.0,0.0,-0.8201,-0.8201,-0.8197,-0.8183,-0.8125,-0.8093,-0.8068,-0.7937,-0.7947,-0.8039,-0.7937,-0.7898,-0.7884,-0.7884,-0.7884,-0.7869,-0.7869,-0.7869,-0.7869,-0.7869,-0.7869,-0.7884,-0.7884,-0.7898,-0.7898,-0.7898,-0.7898,-0.7922,-0.812,0.0,0.0,0.0,0.0,-0.9736,-1.0596,-1.1459,-1.214,-1.2212,-1.3274,-1.4527,-1.5326,-1.6514,-1.7544,-1.7595,-1.8265,-1.9142,-2.0015,-2.0298,-2.071,-2.1631,-2.1807,-2.1807,-2.1807,-2.2152,-2.2596,-2.2978,-2.3381,-2.3835,-2.4246,-2.4298,-2.4286,-2.4358,-2.4368,-2.4368,-2.4368,-2.4368,-2.4368,-2.4368,-2.4368,-2.4368,-2.4368,-2.4196,-2.411,-2.411,-2.3927,-2.3797,-2.3797,-2.3797,-2.3797,-2.3841,-2.4433,-2.4572,-2.4368,-2.4368,-2.4282,-2.411,-2.411,-2.398,-2.3797,-2.3797,-2.3797,-2.3797,-2.3797,-2.3797,-2.3797,0.0,0.0,0.0,0.0,0.0,0.0,0.0,0.0,0.0,0.0,-0.6624,0.0,0.0,0.0,0.0,0.0,0.0,0.0,-0.7493,0.0,0.0,-0.8201,-0.8201,-0.8169,-0.8121,-0.8107,-0.8043,-0.7927,-0.785,-0.7831,-0.7846,-0.7884,-0.7869,-0.7807,-0.7807,-0.7788,-0.7725,-0.7725,-0.7725,-0.7725,-0.7725,-0.7759,-0.7807,-0.7807,-0.784,-0.7898,-0.7898,-0.7898,-0.7973,-0.8395,-0.8526,0.0,0.0,0.0,-0.9965,-1.0469,-1.1024,-1.151,-1.1864,-1.3229,-1.4601,-1.4722,-1.5766,-1.683,-1.7203,-1.7668,-1.8306,-1.9192,-1.9915,-2.071,-2.1631,-2.1807,-2.1807,-2.1807,-2.2045,-2.2246,-2.2307,-2.2595,-2.2918,-2.3321,-2.3362,-2.3513,-2.3844,-2.3884,-2.3884,-2.3884,-2.3884,-2.3884,-2.3884,-2.3884,-2.3884,-2.3884,-2.3884,-2.3841,-2.3841,-2.3841,-2.3797,-2.3797,-2.3797,-2.3797,-2.3797,-2.3884,-2.3927,-2.3884,-2.3884,-2.3884,-2.3841,-2.3841,-2.3841,-2.3797,-2.3797,-2.3797,-2.3797,-2.3797,-2.3797,-2.3797,0.0,0.0,0.0,0.0,0.0,0.0,0.0,0.0,0.0,0.0,0.0,-0.6798,0.0,0.0,0.0,-0.7173,-0.738,-0.7607,-0.7866,-0.8087,-0.8201,-0.8201,-0.8169,-0.8125,-0.8107,-0.7996,-0.7904,-0.785,-0.7773,-0.7754,-0.7754,-0.7773,-0.7773,-0.7754,-0.7754,-0.7876,-0.8096,-0.8096,-0.8223,-0.8422,-0.8422,-0.8437,-0.8469,-0.8469,-0.8491,-0.8523,-0.8523,-0.8523,-0.8553,-0.8805,-0.8881,-0.8991,-0.9672,0.0,0.0,0.0,-1.0934,-1.1449,-1.2103,-1.3232,-1.427,-1.4522,-1.5426,-1.6316,-1.6769,-1.7404,-1.8079,-1.8734,-1.9322,-2.0017,-2.0934,-2.1301,-2.1464,-2.1464,-2.156,-2.1744,-2.1997,-2.213,-2.2382,-2.2826,-2.2876,-2.2947,-2.3096,-2.3116,-2.3217,-2.3458,-2.3478,-2.3536,-2.3787,-2.3797,-2.3797,-2.3797,-2.3667,-2.3624,-2.3624,-2.3493,-2.3363,-2.3232,-2.3232,-2.3144,-2.3013,-2.3013,-2.3309,-2.3797,-2.3797,-2.3754,-2.3624,-2.3624,-2.3537,-2.3406,-2.3276,-2.3232,-2.3232,-2.3057,-2.3013,-2.3013,0.0,0.0,0.0,0.0,0.0,0.0,0.0,0.0,0.0,0.0,0.0,0.0,0.0,0.0,0.0,0.0,-0.768,-0.7825,-0.818,-0.8201,-0.8197,-0.8173,-0.8125,-0.8078,-0.8025,-0.7875,-0.7802,-0.7773,-0.7725,-0.7695,-0.7695,-0.7695,-0.7695,-0.7681,-0.7695,-0.7939,-0.8347,-0.8347,-0.8574,-0.8919,-0.8919,-0.8919,-0.8919,-0.8919,-0.8919,-0.8919,-0.8919,-0.8936,-0.8972,-0.9138,-0.9202,-0.9316,-0.983,-0.9988,0.0,0.0,0.0,-1.1516,-1.2178,-1.3066,-1.3926,-1.4366,-1.5057,-1.5767,-1.6327,-1.6989,-1.7588,-1.8191,-1.8628,-1.9143,-1.9922,-2.0634,-2.1044,-2.1044,-2.1096,-2.1248,-2.1579,-2.159,-2.175,-2.22,-2.225,-2.23,-2.241,-2.242,-2.256,-2.2838,-2.2816,-2.2904,-2.3179,-2.3156,-2.3156,-2.3156,-2.2985,-2.2908,-2.2908,-2.2726,-2.2553,-2.239,-2.239,-2.2293,-2.2119,-2.2189,-2.263,-2.3292,-2.34,-2.3363,-2.3232,-2.3232,-2.3101,-2.2916,-2.275,-2.2706,-2.2662,-2.2485,-2.2397,-2.2397,0.0,0.0,0.0,0.0,0.0,0.0,0.0,0.0,0.0,0.0,0.0,0.0,-0.8139,-0.8139,-0.8139,-0.817,-0.817,-0.818,-0.8201,-0.8201,-0.8169,-0.8107,-0.8107,0.0,-0.7831,-0.7802,-0.7773,-0.771,-0.7695,-0.7695,-0.7695,-0.7695,-0.7656,-0.7603,-0.7681,-0.7893,-0.8211,-0.8211,-0.841,-0.8705,-0.8705,-0.8705,-0.8705,-0.8705,-0.8705,-0.8705,-0.8705,-0.8757,-0.8873,-0.9329,-0.9518,-0.9659,-1.0126,-1.0283,-1.0273,0.0,0.0,0.0,-1.1648,-1.2577,-1.3629,-1.4023,-1.4482,-1.5096,-1.5929,-1.6154,-1.6429,-1.7301,-1.7787,-1.8184,-1.8623,-1.978,-2.0639,-2.0639,-2.0791,-2.0916,-2.0936,-2.081,-2.0811,-2.1211,-2.1269,-2.1435,-2.1887,-2.1926,-2.1936,-2.1955,-2.1719,-2.1585,-2.1604,-2.1447,-2.1332,-2.1332,-2.1332,-2.1332,-2.1332,-2.129,-2.129,-2.129,-2.129,-2.129,-2.1267,-2.1674,-2.1864,-2.1926,-2.2315,-2.2485,-2.2441,-2.2441,-2.2441,-2.2441,-2.2441,-2.2441,-2.2441,-2.2397,-2.2397,-2.2397,0.0,0.0,0.0,0.0,0.0,0.0,0.0,0.0,0.0,0.0,0.0,0.0,0.0,-0.8201,-0.8201,-0.8201,-0.8201,-0.8201,-0.8201,-0.8154,-0.8125,-0.8107,-0.7971,-0.7875,-0.7792,-0.7759,-0.7725,-0.7695,-0.7695,-0.7695,-0.7695,-0.7656,-0.7757,-0.7981,-0.8011,-0.8211,-0.8546,-0.8797,-0.9156,-0.9535,-0.9535,-0.9535,-0.9535,-0.9535,-0.9535,-0.9535,-0.9535,-0.9554,-0.9592,-0.9763,-0.983,-0.9897,-1.005,-1.0117,-1.0117,-1.0117,-1.0682,-1.1334,-1.1334,-1.2071,-1.2943,-1.3365,-1.3777,-1.4246,-1.4869,-1.5416,-1.5886,-1.6194,-1.6785,-1.7322,-1.7465,-1.8769,-1.9752,-1.9752,-1.9732,-1.9788,-2.0013,-1.9899,-1.9898,-2.0319,-2.0377,-2.0434,-2.0587,-2.0596,-2.0751,-2.1029,-2.0998,-2.1021,-2.1288,-2.1265,-2.1182,-2.1182,-2.1182,-2.1182,-2.1182,-2.1182,-2.114,-2.1024,-2.1024,-2.0941,-2.0731,-2.0762,-2.0931,-2.1179,-2.1151,-2.1625,-2.2397,-2.2397,-2.2397,-2.2397,-2.2264,-2.223,-2.2185,-2.1874,-2.175,-2.1741,0.0,0.0,0.0,0.0,0.0,0.0,0.0,0.0,0.0,-0.8201,0.0,0.0,0.0,0.0,-0.8201,-0.8201,-0.8201,-0.8201,-0.8201,-0.814,-0.8082,-0.8029,-0.7889,-0.7788,-0.7773,-0.7725,-0.7695,-0.7695,-0.7695,-0.7695,-0.7656,-0.7618,-0.7789,-0.814,-0.8273,-0.8524,-0.8895,-0.9141,-0.9507,-0.9891,-0.9891,-0.9891,-0.992,-1.0061,-1.0088,-1.0127,-1.0248,-1.0315,-1.0317,-1.0175,-1.0168,-1.019,-1.0047,-1.0,-1.0,-1.0,-1.0579,-1.1202,-1.1202,-1.185,-1.2599,-1.3007,-1.3294,-1.3672,-1.426,-1.481,-1.5284,-1.5529,-1.6062,-1.6508,-1.6641,-1.7672,-1.8563,-1.8843,-1.8899,-1.898,-1.9258,-1.9183,-1.9222,-1.9487,-1.9609,-1.9704,-1.9704,-1.9817,-2.0016,-2.0339,-2.0278,-2.036,-2.0633,-2.0602,-2.051,-2.0479,-2.0479,-2.0438,-2.0365,-2.0365,-2.0282,-2.0168,-2.0168,-2.0085,-1.992,-1.9889,-2.0054,-2.0314,-2.0462,-2.1048,-2.1935,-2.1935,-2.1935,-2.1945,-2.1767,-2.1731,-2.1687,-2.1383,-2.1293,-2.1248,0.0,0.0,0.0,0.0,0.0,0.0,0.0,0.0,-0.8243,-0.8243,0.0,0.0,0.0,0.0,0.0,-0.8243,-0.8243,-0.8228,-0.8228,-0.8156,-0.8049,-0.7918,-0.7846,-0.7773,-0.7695,-0.7695,-0.7695,-0.7695,-0.7695,-0.7656,-0.7603,-0.7598,-0.7763,-0.8031,-0.8442,-0.8835,-0.9208,-0.9208,-0.9402,-0.9703,-0.9712,-0.9721,-0.9758,-1.0153,-1.033,-1.0364,-1.0763,-1.0932,-1.0953,-1.0556,-1.0501,-1.0539,-1.0141,-1.0038,-1.0038,-1.0038,-1.0586,-1.1221,0.0,0.0,0.0,-1.2963,-1.3077,-1.3304,-1.4165,-1.4374,-1.462,-1.5387,-1.5567,-1.5699,-1.6097,-1.6542,-1.7101,-1.7896,-1.8379,-1.8654,-1.8663,-1.8673,-1.8673,-1.8682,-1.9023,-1.9279,-1.9279,-1.9599,-1.9825,-1.9825,-1.9648,-1.9548,-1.9548,-1.9381,-1.9183,-1.9002,-1.9002,-1.8891,-1.87,-1.87,-1.87,-1.87,-1.87,-1.87,-1.8709,-1.9082,-1.93,-1.9312,-2.0118,-2.0625,-2.0979,-2.0988,-2.0997,-2.0997,-2.0997,-2.0997,-2.0997,-2.0988,-2.0997,-2.0997,0.0,0.0,0.0,0.0,0.0,-0.8709,-0.8709,-0.8947,-0.9138,0.0,0.0,0.0,-0.9138,-0.9138,-0.9138,-0.9138,-0.9138,-0.9122,-0.9068,-0.8689,-0.842,-0.8328,-0.794,-0.7725,-0.7695,-0.7695,-0.7695,-0.7695,-0.7656,-0.7618,-0.7603,-0.7808,-0.8088,-0.8451,-0.8809,-0.9189,-0.9557,-0.9557,-0.9621,-0.973,-1.0015,-1.0125,-1.0171,-1.0588,-1.0745,-1.0754,-1.0864,-1.0901,-1.0914,-1.0794,-1.0779,-1.0804,-1.0693,-1.0656,-1.0656,-1.0656,-1.1014,0.0,-1.1422,0.0,0.0,0.0,0.0,0.0,-1.3115,-1.3626,-1.4099,-1.4312,-1.483,-1.5284,-1.5396,-1.5652,-1.5969,-1.618,-1.7011,-1.772,-1.7993,-1.7923,-1.7952,-1.823,-1.8369,-1.8359,-1.8237,-1.8338,-1.8326,-1.823,-1.8416,-1.8521,-1.8521,-1.873,-1.8851,-1.8772,-1.8772,-1.8772,-1.87,-1.87,-1.87,-1.87,-1.87,-1.87,-1.87,-1.8677,-1.8789,-1.9029,-1.9071,-1.9402,-1.9898,-2.0703,-2.0997,-2.0997,-2.0997,-2.0997,-2.0997,-2.0826,-2.0781,-2.0736,0.0,0.0,0.0,-0.8741,-0.8973,-0.916,-0.916,-0.9344,-0.9493,0.0,0.0,0.0,-0.9493,-0.9493,-0.9493,-0.9493,-0.9469,-0.9436,-0.9413,-0.9023,-0.8792,-0.8753,-0.842,-0.8246,-0.8246,-0.8071,-0.7958,-0.7903,-0.7873,-0.7827,-0.7776,-0.8107,-0.8453,-0.8818,-0.9023,-0.9327,-0.9712,-0.9877,-0.9951,-0.9969,-1.0199,-1.0413,-1.0576,-1.0989,-1.1145,-1.1164,-1.1329,-1.1393,-1.1366,-1.12,-1.1048,-1.0901,-1.0901,-1.0901,-1.0901,-1.0901,-1.1182,0.0,0.0,0.0,-1.2026,-1.2026,0.0,0.0,-1.248,-1.2887,-1.3267,-1.3458,-1.3965,-1.4399,-1.4399,-1.4799,-1.5115,-1.5115,-1.5809,-1.6443,-1.6691,-1.676,-1.6872,-1.7116,-1.7442,-1.7605,-1.7485,-1.761,-1.768,-1.7614,-1.7781,-1.7967,-1.808,-1.831,-1.8483,-1.8563,-1.8571,-1.8531,-1.8411,-1.8322,-1.8282,-1.8282,-1.821,-1.817,-1.817,-1.804,-1.8079,-1.83,-1.8329,-1.8515,-1.8901,-1.9776,-2.0273,-2.0419,-2.0419,-2.0419,-2.0374,-2.0292,-2.0255,-2.0209,0.0,0.0,-0.9509,-0.9509,-0.9534,-0.9582,-0.9582,-0.9664,-0.9736,0.0,-0.9777,-0.9808,-0.9808,-0.9808,-0.9808,-0.9791,-0.9732,-0.967,-0.9602,-0.9377,-0.9214,-0.9165,-0.9057,-0.9004,-0.9004,-0.8633,-0.838,-0.8271,-0.8252,-0.8181,-0.8078,-0.8479,-0.8809,-0.9106,-0.9152,-0.9391,-0.9795,-1.0123,-1.0325,-1.0407,-1.0407,-1.0618,-1.0976,-1.1374,-1.153,-1.1575,-1.1923,-1.2051,-1.1996,-1.1649,-1.1283,-1.0994,-1.0994,-1.0994,-1.0994,-1.0994,-1.1237,0.0,0.0,0.0,0.0,-1.1877,-1.1803,0.0,-1.2156,-1.228,-1.2405,-1.277,-1.3107,-1.3336,-1.3336,-1.3912,-1.4382,-1.4382,-1.4661,-1.4953,-1.5163,-1.5515,-1.5728,-1.5728,-1.635,-1.6777,-1.6768,-1.7141,-1.7344,-1.7344,-1.7395,-1.7561,-1.7884,-1.7902,-1.8009,-1.8244,-1.8212,-1.8158,-1.7959,-1.774,-1.7659,-1.7659,-1.7514,-1.7392,-1.7392,-1.7392,-1.7392,-1.7416,-1.7796,-1.7954,-1.802,-1.8627,-1.9138,-1.953,-1.9571,-1.9587,-1.9587,-1.9587,-1.9587,-1.9587,0.0,-0.9645,-0.962,-0.9509,-0.9819,-1.0066,-1.0066,-1.0694,-1.1197,-1.1197,-1.1519,-1.1747,-1.1747,-1.1747,-1.1706,-1.1603,-1.1583,-1.1348,-1.0805,-1.0388,-0.9956,-0.9521,-0.918,-0.9004,-0.9004,-0.8815,-0.8709,-0.8682,-0.8564,-0.8513,-0.8488,-0.8837,-0.9032,-0.9106,-0.9446,-0.9804,-1.018,-1.0149,-1.0514,-1.1112,-1.1112,-1.1088,-1.1101,-1.1518,-1.1661,-1.167,-1.1751,-1.1778,-1.1769,-1.1688,-1.1608,-1.1545,-1.1545,-1.1545,-1.1545,-1.1545,-1.1599,-1.1661,-1.1661,-1.169,-1.1753,-1.1753,-1.1728,0.0,-1.1801,-1.2076,-1.2334,-1.2405,-1.2725,-1.301,-1.301,-1.2986,-1.2998,-1.2998,-1.2983,-1.347,-1.498,-1.5284,-1.5328,-1.5328,-1.547,-1.5493,-1.5318,-1.5676,-1.5843,-1.5687,-1.6131,-1.6487,-1.6636,-1.6652,-1.6829,-1.7175,-1.7192,-1.7294,-1.7505,-1.7473,-1.7473,-1.7473,-1.7432,-1.7392,-1.7392,-1.7392,-1.7392,-1.74,-1.7474,-1.7581,-1.7709,-1.8097,-1.8627,-1.9166,-1.9472,-1.9587,-1.9587,-1.9587,-1.9587,-1.9587,-1.0159,-1.0239,-1.0362,-1.0516,-1.0743,-1.0981,-1.1209,-1.1654,-1.1954,-1.1954,-1.2162,-1.2307,-1.2307,-1.2233,-1.2169,-1.2104,-1.1975,-1.1765,-1.1408,-1.1139,-1.0882,-1.0605,-1.0186,-0.9942,-0.9904,-0.9396,-0.9104,-0.8988,-0.8936,-0.8882,-0.8846,-0.9226,-0.9409,-0.9419,-0.9813,-1.0066,-1.0213,-1.0547,-1.0862,-1.111,-1.1173,-1.1265,-1.143,-1.182,-1.1945,-1.1971,-1.2183,-1.2254,-1.2219,-1.2032,-1.1945,-1.1909,-1.174,-1.1703,-1.1703,-1.1703,-1.1703,-1.1703,-1.1703,-1.1644,-1.1603,-1.1603,-1.1553,0.0,0.0,-1.1651,-1.1799,-1.1799,-1.2052,-1.2259,-1.2259,-1.2269,-1.2306,-1.2306,-1.225,-1.2521,-1.3485,-1.3986,-1.4337,-1.4519,-1.4644,-1.4658,-1.456,-1.473,-1.4892,-1.4942,-1.5242,-1.5577,-1.6034,-1.6059,-1.6224,-1.6588,-1.6597,-1.6779,-1.7159,-1.7007,-1.7049,-1.7261,-1.7017,-1.6894,-1.6894,-1.6779,-1.6746,-1.6746,-1.6746,-1.68,-1.6857,-1.7211,-1.7644,-1.8133,-1.8774,-1.8982,-1.8835,-1.8835,-1.8835,-1.8835,-1.0797,-1.1,-1.1312,-1.1664,-1.1726,-1.1871,-1.2245,-1.238,-1.2473,-1.2659,-1.2753,-1.2815,-1.2793,-1.2693,-1.2593,-1.2536,-1.2343,-1.2115,-1.1935,-1.1883,-1.1783,-1.1606,-1.1199,-1.0961,-1.0908,-1.0098,-0.9583,-0.9441,-0.9347,-0.9263,-0.9225,-0.9546,-0.9749,-0.9831,-1.0132,-1.0288,-1.0371,-1.0974,-1.119,-1.1113,-1.1211,-1.1444,-1.1753,-1.2123,-1.2237,-1.2281,-1.2615,-1.2721,-1.2677,-1.2342,-1.2237,-1.2175,-1.1832,-1.1708,-1.17,-1.1645,-1.1628,-1.1628,-1.1628,-1.1553,-1.1452,-1.1427,-1.1352,-1.1242,0.0,0.0,0.0,-1.1226,-1.1335,-1.1475,-1.1475,-1.1629,-1.1801,-1.1801,-1.1801,-1.1817,-1.1864,-1.248,-1.3057,-1.3479,-1.3663,-1.3816,-1.3882,-1.4015,-1.4222,-1.4518,-1.4551,-1.4831,-1.5445,-1.5442,-1.5593,-1.6019,-1.5989,-1.6168,-1.6544,-1.638,-1.6477,-1.679,-1.6494,-1.636,-1.636,-1.6162,-1.6087,-1.6087,-1.6087,-1.6087,-1.6118,-1.6461,-1.6782,-1.7089,-1.7994,-1.8226,-1.8087,-1.8087,-1.8087,-1.8087,-1.1818,-1.2004,-1.2225,-1.2214,-1.2224,-1.2245,-1.2297,-1.2596,-1.3121,-1.3962,-1.4428,-1.4661,-1.4522,-1.4496,-1.4368,-1.4082,-1.403,-1.3663,-1.2831,-1.2758,-1.2406,-1.1636,-1.1446,-1.1349,-1.1327,-1.0658,-1.0279,-1.0259,-0.9855,-0.9629,-0.9629,-0.9684,-0.9886,-1.0226,-1.0167,-1.052,-1.1142,-1.1019,-1.1312,-1.187,-1.1765,-1.1738,-1.1842,-1.2247,-1.2384,-1.2384,-1.2436,-1.2444,-1.2436,-1.2393,-1.2384,-1.2315,-1.1919,-1.1781,-1.1739,-1.1421,-1.1352,-1.1352,-1.1352,-1.1318,-1.1293,-1.1175,-1.1124,-1.1099,-1.0972,0.0,-1.0947,-1.0947,0.0,-1.098,-1.098,0.0,0.0,-1.102,-1.102,-1.1136,-1.1432,-1.1448,-1.1628,-1.2149,-1.2232,-1.2381,-1.2654,-1.3296,-1.3761,-1.3965,-1.399,-1.4093,-1.4282,-1.4115,-1.4351,-1.5056,-1.4884,-1.4972,-1.5281,-1.5589,-1.5719,-1.5757,-1.6024,-1.6128,-1.6128,-1.6128,-1.6087,-1.6087,-1.6087,-1.6087,-1.6118,-1.6461,-1.666,-1.6809,-1.7446,-1.7873,-1.8087,-1.8087,-1.8087,-1.8087,-1.2393,-1.2331,-1.2402,-1.2596,-1.2865,-1.3134,-1.3427,-1.3838,-1.4273,-1.4656,-1.4821,-1.4856,-1.4803,-1.4619,-1.446,-1.4301,-1.4221,-1.4011,-1.3633,-1.3613,-1.3396,-1.2943,-1.2421,-1.2077,-1.1936,-1.115,-1.0727,-1.0696,-1.0487,-1.0413,-1.0413,-1.0413,-1.0453,-1.0531,-1.0732,-1.0892,-1.1089,-1.1415,-1.1679,-1.1911,-1.2321,-1.25,-1.2518,-1.2672,-1.286,-1.304,-1.304,-1.304,-1.3006,-1.28,-1.276,-1.2691,-1.2278,-1.2158,-1.2062,-1.1608,-1.1471,-1.1403,-1.1133,-1.1074,-1.1049,-1.0998,-1.0972,-1.0972,-1.0922,-1.0896,-1.0896,-1.0896,0.0,0.0,0.0,0.0,0.0,0.0,-1.0598,-1.0595,-1.0747,-1.0606,-1.0865,-1.1767,-1.1776,-1.172,-1.1788,-1.22,-1.2545,-1.2838,-1.305,-1.3251,-1.3494,-1.3635,-1.3847,-1.4132,-1.4252,-1.4468,-1.4812,-1.4958,-1.5233,-1.5583,-1.56,-1.5725,-1.5865,-1.5756,-1.5631,-1.5506,-1.5506,-1.5416,-1.5298,-1.5429,-1.5741,-1.6123,-1.6387,-1.6978,-1.7613,-1.7481,-1.7441,-1.7441,-1.3401,-1.3064,-1.295,-1.3225,-1.3659,-1.4107,-1.4449,-1.4997,-1.537,-1.5316,-1.5441,-1.5522,-1.5401,-1.5189,-1.5022,-1.4966,-1.4882,-1.4767,-1.4668,-1.4523,-1.4352,-1.4099,-1.3372,-1.2862,-1.2644,-1.177,-1.1274,-1.1242,-1.1012,-1.0901,-1.0901,-1.0857,-1.0853,-1.0858,-1.1095,-1.1202,-1.1235,-1.174,-1.2014,-1.2173,-1.2757,-1.3069,-1.3155,-1.3155,-1.328,-1.3511,-1.3511,-1.3511,-1.3468,-1.3211,-1.3105,-1.3007,-1.2615,-1.2467,-1.2335,-1.1835,-1.1681,-1.1597,-1.1144,-1.1045,-1.0995,-1.087,-1.0845,-1.0845,-1.0794,-1.0794,-1.0769,-1.0744,-1.0667,0.0,0.0,0.0,-1.0336,-1.0267,0.0,-1.0068,-0.9975,-0.9851,-1.0131,-1.1184,-1.1296,-1.1213,-1.1129,-1.1326,-1.1613,-1.1928,-1.218,-1.2509,-1.2953,-1.3138,-1.3324,-1.3507,-1.3699,-1.3943,-1.4201,-1.4298,-1.4598,-1.512,-1.505,-1.5175,-1.5401,-1.5291,-1.5124,-1.4999,-1.4999,-1.4873,-1.4692,-1.4692,-1.5056,-1.559,-1.5674,-1.6213,-1.6976,-1.6936,-1.6885,-1.6878,-1.5148,-1.4628,-1.4242,-1.4262,-1.4645,-1.4956,-1.4976,-1.5753,-1.6293,-1.6102,-1.6838,-1.7296,-1.6954,-1.6923,-1.6829,-1.665,-1.6619,-1.6434,-1.6065,-1.5605,-1.5128,-1.4608,-1.4,-1.361,-1.3476,-1.2529,-1.2064,-1.2064,-1.1288,-1.0901,-1.0901,-1.0767,-1.0917,-1.1282,-1.103,-1.1296,-1.1965,-1.1859,-1.2242,-1.2975,-1.3,-1.3185,-1.3485,-1.3485,-1.3502,-1.3511,-1.3511,-1.3511,-1.3511,-1.3494,-1.339,-1.3218,-1.2831,-1.2597,-1.2414,-1.1995,-1.1896,-1.1814,-1.1479,-1.1372,-1.1264,-1.0808,-1.0701,-1.0667,-1.0547,-1.0522,-1.047,-1.0342,-1.0316,-1.0239,-1.0051,-1.0025,-0.9918,0.0,-0.9619,0.0,0.0,-0.9128,-0.9357,-0.9979,-1.039,-1.0636,-1.0609,-1.0915,-1.1261,-1.1606,-1.1636,-1.1913,-1.2578,-1.243,-1.2632,-1.3274,-1.3121,-1.3106,-1.3243,-1.3559,-1.3753,-1.3877,-1.4179,-1.4481,-1.4734,-1.4734,-1.4734,-1.4692,-1.4692,-1.4692,-1.4692,-1.4692,-1.488,-1.5245,-1.5553,-1.5906,-1.6274,-1.6523,-1.6636,-1.6636,-1.5102,-1.5148,-1.5121,-1.4821,-1.5152,-1.5659,-1.6231,-1.6782,-1.7113,-1.7042,-1.7102,-1.7128,-1.7002,-1.6886,-1.676,-1.6707,-1.6697,-1.6638,-1.6514,-1.6234,-1.5925,-1.5659,-1.4836,-1.4305,-1.416,-1.3332,-1.2883,-1.2883,-1.2349,-1.2049,-1.195,-1.1637,-1.1471,-1.1442,-1.1581,-1.1714,-1.1902,-1.2381,-1.274,-1.3026,-1.3237,-1.3399,-1.3511,-1.3511,-1.3511,-1.3511,-1.3511,-1.3428,-1.3385,-1.3385,-1.3263,-1.3094,-1.2932,-1.286,-1.2726,-1.2314,-1.2171,-1.2069,-1.1583,-1.1459,-1.1378,-1.0979,-1.082,-1.0704,-1.0423,-1.0265,-1.0154,-1.0102,-1.011,-1.0076,-0.9999,-0.9999,-0.9918,0.0,-0.9538,-0.9351,0.0,-0.8888,-0.8876,-0.8987,-0.9485,-0.9872,-1.0038,-1.03,-1.0476,-1.0587,-1.0887,-1.1165,-1.1385,-1.1642,-1.1976,-1.2432,-1.2585,-1.2771,-1.301,-1.3116,-1.329,-1.3523,-1.3824,-1.4139,-1.444,-1.4601,-1.465,-1.4482,-1.4482,-1.4447,-1.4292,-1.4292,-1.4377,-1.4586,-1.4881,-1.5078,-1.5279,-1.6054,-1.6359,-1.6312,-1.5718,-1.5942,-1.6022,-1.5566,-1.6001,-1.6612,-1.7172,-1.7657,-1.7951,-1.7855,-1.7911,-1.7912,-1.7836,-1.7703,-1.7603,-1.7603,-1.7603,-1.7603,-1.7513,-1.7104,-1.6768,-1.6571,-1.5654,-1.5006,-1.4726,-1.4066,-1.3653,-1.3506,-1.3121,-1.283,-1.2662,-1.2357,-1.2112,-1.1887,-1.206,-1.2169,-1.225,-1.2774,-1.3078,-1.3202,-1.3571,-1.3716,-1.3733,-1.3808,-1.3667,-1.3428,-1.3428,-1.3316,-1.318,-1.318,-1.308,-1.2928,-1.2928,-1.2897,-1.2787,-1.25,-1.2397,-1.2287,-1.1802,-1.1649,-1.1513,-1.119,-1.0899,-1.0643,-1.0419,-1.0194,-0.9973,-0.9947,-0.9929,-0.9921,-0.9862,-0.9862,-0.9757,0.0,0.0,-0.891,0.0,-0.8288,-0.8242,-0.8273,-0.8763,-0.919,-0.9413,-0.9565,-0.9722,-0.9953,-1.0236,-1.0506,-1.0726,-1.103,-1.1381,-1.1801,-1.215,-1.2424,-1.2659,-1.2734,-1.2942,-1.3172,-1.3443,-1.3706,-1.3967,-1.4227,-1.423,-1.4062,-1.4062,-1.3984,-1.387,-1.387,-1.389,-1.3963,-1.4301,-1.4469,-1.4628,-1.5503,-1.5798,-1.5743,-1.6995,-1.7058,-1.6955,-1.661,-1.7202,-1.774,-1.7729,-1.8352,-1.8758,-1.8576,-1.9153,-1.9489,-1.9323,-1.9287,-1.9287,-1.9287,-1.9287,-1.9214,-1.9004,-1.8235,-1.7592,-1.7229,-1.6397,-1.5688,-1.5166,-1.4772,-1.4368,-1.3966,-1.3552,-1.325,-1.3022,-1.2867,-1.2721,-1.2583,-1.2489,-1.2657,-1.3009,-1.3026,-1.3211,-1.3571,-1.3973,-1.4127,-1.413,-1.4334,-1.3934,-1.3322,-1.3305,-1.3205,-1.3014,-1.2997,-1.2897,-1.2805,-1.2805,-1.2713,-1.259,-1.259,-1.259,-1.2519,-1.2109,-1.1925,-1.1729,-1.1409,-1.0936,-1.0553,-1.053,-1.0238,-0.997,-0.9848,-0.9807,-0.974,-0.9614,-0.9588,-0.9493,0.0,0.0,-0.8216,-0.7497,-0.7398,-0.7525,-0.7828,-0.8201,-0.8545,-0.8778,-0.8806,-0.9034,-0.9637,-0.9666,-0.9939,-1.0541,-1.056,-1.0846,-1.146,-1.1781,-1.2019,-1.2155,-1.2412,-1.2631,-1.2764,-1.3014,-1.3193,-1.3259,-1.3558,-1.3568,-1.3398,-1.3398,-1.3398,-1.3398,-1.3398,-1.3392,-1.3449,-1.3945,-1.4173,-1.4262,-1.4873,-1.5083,-1.5083,-1.7533,-1.7812,-1.8112,-1.8372,-1.8288,-1.8298,-1.8486,-1.886,-1.9163,-1.9292,-1.9351,-1.937,-1.9323,-1.9287,-1.9287,-1.9287,-1.9287,-1.9214,-1.9004,-1.8638,-1.8192,-1.7651,-1.7001,-1.6447,-1.6019,-1.5597,-1.5194,-1.479,-1.4307,-1.3798,-1.3276,-1.2852,-1.2583,-1.2462,-1.2726,-1.2914,-1.3026,-1.3262,-1.3596,-1.3982,-1.4375,-1.4465,-1.4334,-1.4362,-1.4114,-1.3672,-1.3569,-1.3383,-1.3193,-1.2925,-1.2775,-1.2652,-1.2652,-1.2629,-1.259,-1.259,-1.259,-1.2544,-1.2288,-1.2203,-1.2057,-1.1567,-1.1268,-1.1024,-1.0776,-1.0379,-1.0061,-1.0034,-0.9816,-0.9621,-0.9465,-0.9458,-0.9306,-0.8898,-0.8348,-0.7833,-0.7447,-0.7398,-0.7384,-0.7383,-0.748,-0.7871,-0.8711,-0.8806,-0.8943,-0.9302,-0.9411,-0.9652,-1.0058,-1.0173,-1.0512,-1.1107,-1.1276,-1.1466,-1.1757,-1.1866,-1.1968,-1.2008,-1.2525,-1.2769,-1.2813,-1.3259,-1.3434,-1.3398,-1.3398,-1.3398,-1.3398,-1.3398,-1.3307,-1.3217,-1.3561,-1.3808,-1.4078,-1.4807,-1.5083,-1.5083,-1.7978,-1.8537,-1.9127,-1.9479,-1.9312,-1.9195,-1.9359,-1.9505,-1.968,-1.9855,-2.0025,-2.0137,-2.0137,-2.0303,-2.043,-2.043,-2.0343,-2.0101,-1.9726,-1.9307,-1.8835,-1.8212,-1.7687,-1.713,-1.6587,-1.634,-1.5904,-1.5242,-1.4921,-1.4452,-1.3802,-1.3473,-1.3194,-1.2894,-1.3108,-1.3305,-1.3494,-1.3862,-1.4153,-1.4384,-1.4662,-1.4706,0.0,-1.462,-1.4465,-1.4237,-1.3915,-1.3566,-1.3188,-1.2987,-1.278,-1.259,-1.259,-1.259,-1.259,-1.2498,-1.2467,-1.2436,-1.2243,-1.2151,-1.2012,-1.1722,-1.1413,-1.1175,-1.0982,-1.0607,-1.0272,-1.0051,-0.9877,-0.9657,-0.9363,-0.9309,-0.9158,-0.873,-0.8366,-0.7992,-0.7499,-0.7444,-0.7353,-0.7103,-0.7062,-0.7332,-0.7987,-0.8259,-0.8488,-0.8699,-0.8918,-0.9218,-0.9588,-0.9679,-0.9973,-1.0555,-1.0873,-1.1095,-1.1291,-1.1546,-1.1706,-1.1713,-1.2291,-1.2531,-1.2424,-1.3019,-1.3179,-1.3094,-1.3094,-1.3094,-1.3094,-1.3009,-1.2881,-1.2832,-1.3083,-1.335,-1.3655,-1.4214,-1.4454,-1.4556,-1.8578,-1.9326,-1.9951,-2.0155,-2.0215,-2.023,-2.0291,-2.0299,-2.0276,-2.0335,-2.0899,-2.1278,-2.1278,-2.166,-2.1885,-2.1843,-2.1627,-2.1256,-2.068,-2.0024,-1.9416,-1.8806,-1.8374,-1.7844,-1.7082,-1.7009,-1.6513,-1.5569,-1.5483,-1.5088,-1.4391,-1.436,-1.4115,-1.3665,-1.3665,-1.3853,-1.4196,-1.459,-1.4752,-1.4753,-1.4892,-1.4966,-1.4897,-1.4885,-1.4872,-1.4788,-1.4326,-1.3767,-1.3211,-1.3124,-1.2917,-1.2654,-1.2606,-1.259,-1.2529,-1.2336,-1.2274,-1.2243,-1.2089,-1.1934,-1.1802,-1.1771,-1.147,-1.1173,-1.1173,-1.0887,-1.0515,-1.0099,-0.9943,-0.9752,-0.9297,-0.9187,-0.9009,-0.8637,-0.8564,-0.8292,-0.7625,-0.7473,-0.7308,-0.6956,-0.6898,0.0,-0.7074,-0.7546,-0.7922,-0.8073,-0.8384,-0.8754,-0.9112,-0.9176,-0.9443,-0.9945,-1.0503,-1.0814,-1.0845,-1.1323,-1.1594,-1.1639,-1.2182,-1.2295,-1.2138,-1.2683,-1.2808,-1.2619,-1.2619,-1.2619,-1.2577,-1.2406,-1.2369,-1.2379,-1.2675,-1.2957,-1.3186,-1.3431,-1.3642,-1.3786,-2.0013,-2.0193,-2.038,-2.0624,-2.0872,-2.1056,-2.1222,-2.0956,-2.079,-2.1006,-2.1455,-2.1777,-2.1777,-2.1836,-2.1802,-2.1585,-2.1543,-2.1297,-2.0787,-2.0354,-1.9833,-1.9219,-1.8815,-1.8356,-1.7889,-1.7568,-1.705,-1.6405,-1.5945,-1.5422,-1.4774,-1.467,-1.4579,-1.4478,-1.4478,-1.4521,-1.4607,-1.4966,-1.5019,-1.49,-1.5253,-1.5192,-1.4882,-1.4911,-1.4792,-1.4633,-1.4534,-1.4248,-1.3846,-1.3282,-1.3052,-1.2949,-1.2686,-1.2498,-1.2336,-1.2305,-1.2212,-1.2089,-1.1895,-1.1833,-1.1771,-1.1654,-1.1578,-1.1503,-1.1503,-1.1125,-1.073,-1.0643,-1.0172,-0.9659,-0.9412,-0.9099,-0.8763,-0.8467,-0.8307,-0.8075,-0.7717,-0.7377,-0.7148,-0.7081,-0.687,-0.6838,-0.7074,-0.7376,-0.7704,-0.7986,-0.8268,-0.8562,-0.8867,-0.9068,-0.9383,-0.9741,-1.012,-1.0414,-1.0638,-1.0813,-1.101,-1.1229,-1.1366,-1.1557,-1.1692,-1.1875,-1.2006,-1.2123,-1.2123,-1.2123,-1.2123,-1.208,-1.208,-1.2132,-1.2631,-1.2808,-1.2905,-1.332,-1.3394,-1.3249,-2.1041,-2.1034,-2.1101,-2.1602,-2.1709,-2.173,-2.1696,-2.1694,-2.1654,-2.1572,-2.1943,-2.2207,-2.2207,-2.2275,-2.2326,-2.2197,-2.194,-2.1622,-2.1174,-2.0852,-2.0347,-1.965,-1.9448,-1.9054,-1.8402,-1.8125,-1.7569,-1.6768,-1.6378,-1.5817,-1.5041,-1.4983,-1.4863,-1.4692,-1.4881,-1.4958,-1.4983,-1.5248,-1.5297,-1.521,-1.5182,-1.5078,-1.49,-1.4792,-1.4677,-1.4605,-1.4605,-1.4494,-1.424,-1.3584,-1.3235,-1.3028,-1.2578,-1.2367,-1.2274,-1.2081,-1.1996,-1.1903,-1.1747,-1.1716,-1.1685,-1.1622,-1.1529,-1.1428,-1.1428,-1.1188,-1.0885,-1.0625,-1.03,-0.9915,-0.9403,-0.9152,-0.8904,-0.856,-0.8423,-0.8241,-0.7857,-0.7637,-0.7426,-0.7217,-0.7086,-0.7061,-0.7139,-0.7393,-0.7635,-0.7822,-0.8111,-0.8361,-0.8524,-0.879,-0.9068,-0.9377,-0.976,-1.0033,-1.0292,-1.0379,-1.0566,-1.0775,-1.0979,-1.1196,-1.145,-1.1623,-1.1798,-1.2,-1.2,-1.2,-1.2,-1.1871,-1.1742,-1.17,-1.2226,-1.246,-1.2476,-1.2969,-1.3055,-1.3001,-2.1876,-2.1865,-2.1944,-2.2361,-2.2357,-2.2261,-2.2063,-2.2451,-2.2598,-2.209,-2.2383,-2.2604,-2.2561,-2.2689,-2.2759,-2.2671,-2.2318,-2.1957,-2.1578,-2.125,-2.0833,-2.0168,-1.9976,-1.9591,-1.8903,-1.8583,-1.7957,-1.7093,-1.6839,-1.6266,-1.542,-1.542,-1.5266,-1.4932,-1.5215,-1.5343,-1.5326,-1.5449,-1.547,-1.539,-1.5043,-1.4864,-1.4828,-1.4641,-1.4605,-1.4605,-1.4605,-1.4605,-1.451,-1.391,-1.3473,-1.3083,-1.2555,-1.2305,-1.2143,-1.1864,-1.1771,-1.174,-1.1622,-1.1591,-1.1591,-1.156,-1.1435,-1.1303,-1.1272,-1.1153,-1.0927,-1.0567,-1.0404,-1.0109,-0.9376,-0.9202,-0.9048,-0.8704,-0.8559,-0.8397,-0.8018,-0.7885,-0.7722,-0.7413,-0.7315,-0.7255,-0.723,-0.7424,-0.7568,-0.7654,-0.7939,-0.8145,-0.8251,-0.8485,-0.8741,-0.8997,-0.9403,-0.9729,-0.9945,-1.0099,-1.0273,-1.0519,-1.0748,-1.0965,-1.1209,-1.1458,-1.1666,-1.1871,-1.1871,-1.1871,-1.1828,-1.1699,-1.1483,-1.131,-1.182,-1.2002,-1.1969,-1.2438,-1.2613,-1.2662,-2.2736,-2.2676,-2.2585,-2.2267,-2.2522,-2.2695,-2.2451,-2.3144,-2.3379,-2.2559,-2.2779,-2.2945,-2.279,-2.2775,-2.2627,-2.2185,-2.215,-2.1989,-2.1686,-2.1319,-2.1071,-2.0998,-2.031,-1.9766,-1.9512,-1.8786,-1.8187,-1.773,-1.7325,-1.6822,-1.6189,-1.6189,-1.6036,-1.5703,-1.5737,-1.5745,-1.571,-1.5559,-1.539,-1.5204,-1.5007,-1.4792,-1.4641,-1.4605,-1.4605,-1.4605,-1.4605,-1.4605,-1.455,-1.4188,-1.3745,-1.3314,-1.2889,-1.2334,-1.1833,-1.1809,-1.1709,-1.1622,-1.1591,-1.1591,-1.156,-1.1373,-1.1303,-1.1279,-1.1153,-1.0965,-1.0832,-1.0766,-1.0424,-0.999,-0.9467,-0.9171,-0.8961,-0.8805,-0.8486,-0.8209,-0.8184,-0.7856,-0.7614,-0.759,-0.7346,-0.7224,-0.7283,-0.7304,-0.739,-0.7522,-0.7658,-0.7841,-0.8117,-0.8265,-0.8424,-0.864,-0.9163,-0.9553,-0.9817,-1.0022,-1.0231,-1.0519,-1.0594,-1.0728,-1.0921,-1.104,-1.1159,-1.1348,-1.1348,-1.1348,-1.1348,-1.1354,-1.1224,-1.1098,-1.1549,-1.1584,-1.1405,-1.191,-1.2078,-1.2078,-2.3196,-2.2998,-2.2908,-2.3275,-2.3373,-2.3448,-2.3613,-2.3945,-2.3997,-2.3467,-2.3528,-2.3625,-2.3534,-2.3281,-2.3016,-2.2842,-2.2463,-2.218,-2.2089,-2.1659,-2.1374,-2.1117,-2.0805,-2.0395,-1.9958,-1.9286,-1.8692,-1.8175,-1.7627,-1.7123,-1.665,-1.665,-1.661,-1.6465,-1.6225,-1.6058,-1.595,-1.5526,-1.5213,-1.4999,-1.4784,-1.4677,-1.4605,-1.4605,-1.4605,-1.4605,-1.4605,-1.4605,-1.4581,-1.434,-1.3904,-1.3328,-1.2839,-1.2269,-1.1771,-1.1716,-1.1654,-1.1591,-1.1591,-1.1498,-1.1404,-1.1334,-1.1146,-1.0996,-1.0933,-1.0807,-1.0681,-1.0681,-1.043,-1.0109,-0.976,-0.9528,-0.9275,-0.8981,-0.8639,-0.841,-0.8273,-0.7988,-0.776,-0.7675,-0.756,-0.7485,-0.7434,-0.7419,-0.7433,-0.7482,-0.7547,-0.7705,-0.797,-0.8172,-0.84,-0.8609,-0.9,-0.9349,-0.9607,-0.9746,-0.9911,-1.0148,-1.033,-1.0531,-1.0724,-1.0916,-1.1032,-1.1094,-1.0997,-1.0949,-1.0949,-1.0949,-1.0911,-1.0865,-1.1272,-1.14,-1.1359,-1.1814,-1.198,-1.198,-2.3968,-2.3684,-2.3569,-2.4082,-2.4065,-2.4072,-2.4375,-2.4438,-2.4433,-2.4236,-2.4145,-2.4041,-2.384,-2.3514,-2.3289,-2.3195,-2.2731,-2.241,-2.2291,-2.2016,-2.1678,-2.131,-2.1085,-2.0773,-2.0296,-1.9682,-1.9076,-1.8438,-1.8049,-1.7552,-1.7081,-1.697,-1.688,-1.6872,-1.6553,-1.6323,-1.6211,-1.5678,-1.5287,-1.5053,-1.4872,-1.47,-1.4605,-1.4605,-1.4605,-1.4605,-1.4605,-1.4569,-1.4533,-1.4425,-1.3944,-1.3273,-1.2828,-1.2285,-1.1803,-1.1652,-1.1591,-1.1591,-1.1591,-1.1466,-1.1303,-1.124,-1.1028,-1.0776,-1.0744,-1.0688,-1.0593,-1.053,-1.0403,-1.0211,-0.9923,-0.9691,-0.9442,-0.9093,-0.8804,-0.8545,-0.8275,-0.808,-0.7877,-0.7655,-0.7643,-0.7595,-0.7467,-0.744,-0.7447,-0.746,-0.7466,-0.7599,-0.7898,-0.8157,-0.8351,-0.8566,-0.8942,-0.9211,-0.9392,-0.9596,-0.9723,-0.9809,-1.0128,-1.0322,-1.0446,-1.0742,-1.0926,-1.0916,-1.0776,-1.0684,-1.0684,-1.0684,-1.0681,-1.069,-1.1066,-1.1164,-1.1221,-1.1598,-1.178,-1.178,-2.5204,-2.4965,-2.469,-2.445,-2.4414,-2.4414,-2.4414,-2.457,-2.4708,-2.4708,-2.4569,-2.4212,-2.342,-2.3289,-2.3195,-2.2913,-2.2904,-2.2721,-2.2355,-2.2318,-2.2099,-2.1705,-2.1118,-2.0692,-2.0482,-1.9825,-1.9219,-1.8621,-1.8579,-1.8194,-1.7488,-1.709,-1.688,-1.688,-1.6674,-1.6598,-1.6552,-1.6171,-1.5816,-1.5491,-1.5285,-1.4959,-1.4605,-1.4605,-1.4605,-1.4605,-1.4605,-1.4497,-1.4389,-1.4389,-1.3915,-1.3229,-1.2901,-1.2432,-1.1937,-1.1687,-1.1591,-1.1591,-1.1591,-1.1466,-1.1279,-1.1153,-1.0965,-1.0776,-1.0618,-1.0593,-1.053,-1.0339,-1.0301,-1.0212,-0.9862,-0.9594,-0.934,-0.9126,-0.8872,-0.8556,-0.8164,-0.81,-0.7945,-0.7549,-0.7494,-0.744,-0.7311,-0.7317,-0.7335,-0.7401,-0.7389,-0.7576,-0.7975,-0.8133,-0.8284,-0.8506,-0.8958,-0.92,-0.9206,-0.9674,-0.9803,-0.9625,-1.0089,-1.0192,-1.0009,-1.0481,-1.0684,-1.0684,-1.0684,-1.0684,-1.0684,-1.0684,-1.0646,-1.0596,-1.081,-1.0889,-1.0915,-1.1123,-1.1194,-1.1194,-2.4985,-2.47,-2.4604,-2.4851,-2.4863,-2.4961,-2.5216,-2.5199,-2.5034,-2.484,-2.4651,-2.4337,-2.395,-2.3922,-2.3864,-2.3776,-2.3471,-2.3251,-2.3114,-2.2584,-2.2181,-2.1926,-2.1455,-2.1016,-2.065,-2.014,-1.9713,-1.9332,-1.8845,-1.8331,-1.7852,-1.7701,-1.7641,-1.7632,-1.7181,-1.6946,-1.6774,-1.6217,-1.5847,-1.5605,-1.5314,-1.5118,-1.4982,-1.47,-1.4605,-1.4605,-1.4497,-1.4425,-1.4361,-1.408,-1.3831,-1.3545,-1.3105,-1.2662,-1.2273,-1.1945,-1.1882,-1.1806,-1.1486,-1.1279,-1.1171,-1.1182,-1.1043,-1.092,-1.0888,-1.0637,-1.0364,-1.0308,-1.0117,-0.9926,-0.9836,-0.9635,-0.9447,-0.9384,-0.9063,-0.88,-0.8663,-0.8381,-0.8097,-0.7862,-0.7851,-0.7799,-0.7661,-0.7632,-0.7636,-0.7682,-0.7838,-0.7987,-0.8118,-0.8169,-0.8365,-0.8771,-0.8912,-0.9074,-0.9279,-0.9436,-0.9473,-0.9402,-0.9856,-1.0228,-1.0486,-1.0446,-1.0424,-1.0424,-1.0299,-1.0212,-1.0212,-1.0212,-1.0299,-1.0426,-1.0632,-1.0796,-1.092,-1.1123,-1.1194,-1.1194,-2.5334,-2.5053,-2.5,-2.5273,-2.5322,-2.5362,-2.5548,-2.5333,-2.503,-2.4784,-2.4538,-2.4341,-2.4202,-2.4202,-2.4202,-2.4202,-2.3923,-2.3712,-2.3508,-2.2928,-2.2416,-2.2033,-2.1561,-2.1129,-2.0699,-2.0383,-2.0014,-1.97,-1.8965,-1.8468,-1.8196,-1.8059,-1.7951,-1.7861,-1.7481,-1.7173,-1.6949,-1.6451,-1.6117,-1.5856,-1.565,-1.5411,-1.5165,-1.4927,-1.4688,-1.4497,-1.4425,-1.4289,-1.4145,-1.3863,-1.3761,-1.3644,-1.3293,-1.3053,-1.2797,-1.2317,-1.212,-1.201,-1.1711,-1.1467,-1.1353,-1.1368,-1.1289,-1.1122,-1.1055,-1.0817,-1.0529,-1.0296,-1.0115,-0.989,-0.9727,-0.958,-0.9484,-0.9446,-0.9208,-0.8972,-0.8755,-0.8459,-0.8173,-0.7949,-0.7914,-0.7884,-0.7801,-0.7801,-0.7809,-0.7834,-0.8003,-0.8095,-0.8122,-0.8185,-0.8361,-0.8654,-0.8781,-0.8939,-0.9171,-0.9248,-0.9246,-0.918,-0.9577,-0.9966,-1.0429,-1.025,-1.0207,-1.0164,-1.0038,-0.9994,-0.9994,-0.9994,-1.0165,-1.0445,-1.0569,-1.0754,-1.1023,-1.1146,-1.1194,-1.1194,-2.61,-2.5868,-2.5693,-2.5693,-2.5684,-2.5586,-2.5333,-2.5088,-2.4784,-2.4529,-2.4341,-2.4202,-2.4202,-2.4202,-2.4202,-2.4152,-2.4152,-2.3987,-2.3563,-2.3217,-2.2778,-2.204,-2.1496,-2.1064,-2.0698,-2.0436,-2.0112,-1.97,-1.9016,-1.8656,-1.8622,-1.8205,-1.7904,-1.7733,-1.7481,-1.727,-1.7098,-1.6812,-1.6507,-1.6238,-1.6214,-1.5825,-1.5253,-1.5205,-1.4864,-1.4428,-1.4369,-1.4109,-1.3797,-1.3797,-1.3645,-1.3492,-1.3492,-1.3492,-1.3331,-1.2704,-1.2378,-1.2235,-1.2187,-1.1935,-1.1703,-1.1696,-1.1559,-1.1388,-1.1181,-1.1093,-1.0906,-1.0348,-1.0232,-1.0085,-0.9621,-0.9514,-0.947,-0.9312,-0.9274,-0.9064,-0.8496,-0.8406,-0.8256,-0.7906,-0.7849,-0.7849,-0.7849,-0.7849,-0.785,-0.7908,-0.7928,-0.7933,-0.7997,-0.8132,-0.824,-0.8312,-0.8568,-0.8786,-0.8998,-0.9178,-0.919,-0.9033,-0.9237,-0.9559,-0.9994,-0.9994,-0.9994,-0.9994,-0.9994,-0.9994,-0.9994,-1.0013,-1.0255,-1.0575,-1.0589,-1.0844,-1.1145,-1.1145,-1.1145,-1.1145,-2.582,-2.5732,-2.5693,-2.5693,-2.5538,-2.5382,-2.5294,-2.4883,-2.4578,-2.4538,-2.4341,-2.4202,-2.4202,-2.4202,-2.4102,-2.3895,-2.3895,-2.3859,-2.3768,-2.3126,-2.2633,-2.2311,-2.159,-2.1102,-2.0885,-2.0492,-2.0112,-1.97,-1.952,-1.9324,-1.9067,-1.8481,-1.8178,-1.8129,-1.7466,-1.7139,-1.7098,-1.6812,-1.6642,-1.6547,-1.6317,-1.6111,-1.5904,-1.5221,-1.4903,-1.4719,-1.4135,-1.3863,-1.3797,-1.3608,-1.3535,-1.3492,-1.3492,-1.3382,-1.3194,-1.2755,-1.2606,-1.2486,-1.197,-1.1771,-1.1724,-1.1815,-1.1834,-1.1728,-1.1516,-1.1207,-1.0861,-1.0557,-1.0374,-1.0192,-0.9859,-0.9718,-0.9586,-0.9341,-0.9087,-0.8877,-0.8724,-0.8559,-0.8441,-0.835,-0.8344,-0.8344,-0.8344,-0.8207,-0.8095,-0.8121,-0.803,-0.797,-0.799,-0.8033,-0.82,-0.8608,-0.8647,-0.8793,-0.8977,-0.8912,-0.898,-0.9226,-0.9445,-0.9705,-0.9994,-0.9994,-0.9994,-0.9994,-0.9994,-0.9994,-1.0009,-1.0175,-1.0257,-1.0311,-1.0472,-1.0544,-1.0605,-1.0605,-1.0605,-1.0605,-2.6318,-2.6269,-2.6269,-2.6119,-2.601,-2.581,-2.5569,-2.5267,-2.4991,-2.4655,-2.4537,-2.4413,-2.422,-2.4102,-2.3954,-2.3795,-2.3805,-2.3755,-2.3655,-2.3152,-2.2711,-2.2397,-2.1843,-2.1367,-2.0929,-2.0668,-2.0377,-1.9992,-1.9688,-1.9448,-1.9288,-1.8649,-1.8212,-1.7962,-1.7514,-1.717,-1.6894,-1.6771,-1.6689,-1.6673,-1.6483,-1.6269,-1.6,-1.5388,-1.4902,-1.4538,-1.3983,-1.3754,-1.3645,-1.3535,-1.3492,-1.3492,-1.3492,-1.3346,-1.3164,-1.2877,-1.272,-1.257,-1.2197,-1.2043,-1.1977,-1.206,-1.1992,-1.1883,-1.1702,-1.1369,-1.1045,-1.0709,-1.0578,-1.0394,-1.013,-0.9951,-0.9727,-0.9392,-0.9122,-0.8859,-0.869,-0.8582,-0.8517,-0.8517,-0.8414,-0.8376,-0.8376,-0.8308,-0.82,-0.8129,-0.8129,-0.8108,-0.8043,-0.8144,-0.829,-0.8555,-0.8558,-0.8649,-0.8861,-0.8841,-0.9011,-0.9286,-0.9498,-0.9752,-0.9994,-0.9994,-0.9994,-0.9994,-0.9864,-0.982,-0.9839,-0.992,-0.9985,-1.0036,-1.0247,-1.0343,-1.0413,-1.0413,-1.0413,-1.0413,-2.7012,-2.6961,-2.6858,-2.6644,-2.6541,-2.6346,-2.59,-2.5796,-2.552,-2.4964,-2.4821,-2.4647,-2.428,-2.399,-2.3755,-2.3705,-2.3696,-2.3596,-2.3347,-2.3097,-2.2807,-2.2435,-2.2178,-2.167,-2.0977,-2.0848,-2.0626,-2.0246,-1.9743,-1.9457,-1.9413,-1.8764,-1.8185,-1.7673,-1.7582,-1.7231,-1.6689,-1.6689,-1.6689,-1.6689,-1.6648,-1.6393,-1.5942,-1.5521,-1.495,-1.4321,-1.3948,-1.3689,-1.3492,-1.3492,-1.3492,-1.3492,-1.3455,-1.3309,-1.3119,-1.29,-1.2709,-1.2562,-1.2562,-1.2415,-1.2298,-1.2261,-1.212,-1.1929,-1.1706,-1.1521,-1.1273,-1.0864,-1.0743,-1.0665,-1.0365,-1.0143,-0.9887,-0.9491,-0.9243,-0.9008,-0.8646,-0.8619,-0.8586,-0.8553,-0.8412,-0.8308,-0.8275,-0.8294,-0.824,-0.8059,-0.8195,-0.8245,-0.8163,-0.8302,-0.8415,-0.8448,-0.8448,-0.8543,-0.8751,-0.8963,-0.9131,-0.9333,-0.955,-0.9786,-0.9994,-0.9951,-0.9951,-0.9907,-0.9646,-0.9563,-0.9538,-0.9548,-0.9646,-0.9762,-0.9992,-1.0175,-1.0265,-1.0265,-1.0265,-1.0265,-2.7012,-2.6807,-2.6644,-2.6593,-2.6243,-2.5891,-2.5787,-2.5631,-2.5405,-2.5341,-2.4986,-2.4706,-2.438,-2.4012,-2.3596,-2.3147,-2.3097,-2.3097,-2.3046,-2.2795,-2.2619,-2.2558,-2.2208,-2.179,-2.1336,-2.0703,-2.0261,-1.9973,-1.9869,-1.9761,-1.9534,-1.8946,-1.8446,-1.8089,-1.7576,-1.7114,-1.6689,-1.6689,-1.6689,-1.6689,-1.6517,-1.6404,-1.6244,-1.5581,-1.5089,-1.4642,-1.4132,-1.377,-1.3492,-1.3492,-1.3492,-1.3455,-1.3309,-1.3119,-1.29,-1.2709,-1.2489,-1.2342,-1.2342,-1.2335,-1.2261,-1.2077,-1.2003,-1.1892,-1.1521,-1.1409,-1.1323,-1.11,-1.1051,-1.0899,-1.0461,-1.027,-1.0016,-0.9555,-0.9331,-0.9171,-0.9104,-0.9098,-0.9029,-0.8861,-0.8821,-0.8717,-0.8543,-0.8409,-0.8288,-0.8253,-0.8171,-0.8196,-0.8344,-0.8387,-0.8481,-0.8647,-0.8656,-0.876,-0.8934,-0.9136,-0.9343,-0.9559,-0.9804,-0.9966,-0.9994,-0.9777,-0.9646,-0.9646,-0.9432,-0.9345,-0.9376,-0.9644,-0.9621,-0.9499,-0.989,-0.9899,-0.9727,-0.9727,-0.9727,-0.9727,-2.7486,-2.7381,-2.7213,-2.6844,-2.6589,-2.6386,-2.6236,-2.6139,-2.594,-2.5773,-2.5379,-2.5002,-2.4464,-2.3934,-2.3485,-2.3014,-2.2846,-2.2795,-2.2795,-2.2644,-2.2594,-2.2594,-2.2431,-2.1972,-2.1239,-2.0492,-1.9973,-1.9762,-1.9608,-1.9471,-1.9387,-1.8943,-1.8587,-1.8234,-1.7786,-1.735,-1.7016,-1.6776,-1.6648,-1.6525,-1.6435,-1.627,-1.5985,-1.5496,-1.5014,-1.4569,-1.4137,-1.377,-1.3499,-1.3382,-1.3346,-1.3309,-1.3083,-1.29,-1.2709,-1.2636,-1.2452,-1.2305,-1.2305,-1.2231,-1.2114,-1.2003,-1.1855,-1.1632,-1.1446,-1.1335,-1.1223,-1.1111,-1.0999,-1.0889,-1.066,-1.0384,-1.009,-0.9777,-0.9554,-0.9362,-0.9222,-0.9206,-0.9136,-0.8925,-0.8825,-0.8689,-0.8478,-0.8372,-0.8368,-0.8368,-0.839,-0.8458,-0.8557,-0.8566,-0.8604,-0.8699,-0.8817,-0.8921,-0.8985,-0.9296,-0.9503,-0.9606,-0.9856,-0.9907,-0.9777,-0.9646,-0.9559,-0.9432,-0.917,-0.9143,-0.9255,-0.9351,-0.943,-0.9449,-0.9669,-0.9727,-0.9579,-0.9579,-0.9579,-0.9579,-2.796,-2.7799,-2.753,-2.7098,-2.6935,-2.6836,-2.6646,-2.6591,-2.6472,-2.6088,-2.5702,-2.5226,-2.4421,-2.384,-2.3322,-2.2931,-2.2695,-2.2594,-2.2594,-2.2594,-2.2594,-2.2594,-2.2466,-2.1958,-2.1111,-2.0352,-1.9791,-1.9487,-1.9288,-1.9188,-1.9096,-1.892,-1.8637,-1.8279,-1.793,-1.7588,-1.7162,-1.6798,-1.6525,-1.6319,-1.627,-1.6023,-1.567,-1.5424,-1.5013,-1.4538,-1.4216,-1.3887,-1.3521,-1.3294,-1.3156,-1.3083,-1.29,-1.2709,-1.2599,-1.2526,-1.2378,-1.2224,-1.2224,-1.2114,-1.1966,-1.1892,-1.1632,-1.1409,-1.1335,-1.1223,-1.1074,-1.1037,-1.0925,-1.0775,-1.0663,-1.0406,-1.0119,-0.9943,-0.9768,-0.9593,-0.94,-0.9332,-0.923,-0.9021,-0.8847,-0.8667,-0.8416,-0.8451,-0.8472,-0.8472,-0.8614,-0.8703,-0.8703,-0.8703,-0.8722,-0.8774,-0.8935,-0.9032,-0.9126,-0.9446,-0.9625,-0.9677,-0.9832,-0.982,-0.9602,-0.9471,-0.9345,-0.9174,-0.8955,-0.8924,-0.9104,-0.9112,-0.9198,-0.942,-0.9555,-0.9579,-0.9579,-0.9579,-0.9579,-0.9579,-2.7906,-2.7476,-2.7043,-2.6989,-2.6791,-2.6636,-2.6591,-2.6591,-2.6464,-2.6145,-2.5766,-2.5165,-2.4202,-2.3739,-2.3271,-2.2679,-2.2594,-2.2594,-2.2594,-2.2594,-2.2594,-2.2594,-2.2019,-2.1507,-2.1103,-2.0406,-1.98,-1.9234,-1.9188,-1.905,-1.8827,-1.8827,-1.8637,-1.8279,-1.793,-1.7494,-1.6892,-1.6583,-1.6319,-1.6087,-1.5865,-1.5733,-1.5692,-1.5477,-1.5189,-1.4827,-1.4545,-1.4139,-1.3631,-1.33,-1.3083,-1.29,-1.2673,-1.2599,-1.2562,-1.2378,-1.2187,-1.2003,-1.2003,-1.2003,-1.1892,-1.1558,-1.1409,-1.1335,-1.1149,-1.1111,-1.1037,-1.085,-1.0812,-1.07,-1.0331,-1.0218,-1.0137,-0.9933,-0.9895,-0.989,-0.9868,-0.968,-0.9497,-0.9309,-0.9087,-0.8898,-0.8699,-0.867,-0.868,-0.868,-0.8694,-0.8703,-0.8703,-0.8703,-0.8793,-0.8957,-0.8976,-0.9169,-0.9555,-0.9587,-0.9738,-0.9971,-0.9724,-0.9602,-0.9602,-0.917,-0.8955,-0.8911,-0.8696,-0.8706,-0.8836,-0.9023,-0.9198,-0.942,-0.9555,-0.9579,-0.9579,-0.9579,-0.9579,-0.9579,-2.7422,-2.7152,-2.6935,-2.6791,-2.6691,-2.6591,-2.6591,-2.6418,-2.6236,-2.6127,-2.5664,-2.4993,-2.421,-2.38,-2.3367,-2.2654,-2.2594,-2.2594,-2.2594,-2.2392,-2.2283,-2.2283,-2.1695,-2.1138,-2.062,-2.0107,-1.9552,-1.8958,-1.8958,-1.892,-1.8781,-1.8781,-1.871,-1.8605,-1.7908,-1.7498,-1.7247,-1.6518,-1.6079,-1.5824,-1.5733,-1.5616,-1.5506,-1.5423,-1.5185,-1.4885,-1.4641,-1.4187,-1.3658,-1.3222,-1.2898,-1.2673,-1.2489,-1.2415,-1.2378,-1.215,-1.2077,-1.1966,-1.1706,-1.1632,-1.1595,-1.1446,-1.1298,-1.1186,-1.1111,-1.1111,-1.1037,-1.085,-1.07,-1.0513,-1.0255,-1.0105,-0.9992,-0.9922,-0.9884,-0.9841,-0.9733,-0.9657,-0.9473,-0.9137,-0.9061,-0.8903,-0.8703,-0.8703,-0.8703,-0.8703,-0.8826,-0.8902,-0.8902,-0.902,-0.9145,-0.9362,-0.9366,-0.9446,-0.9602,-0.9771,-0.9832,-0.9733,-0.9646,-0.9428,-0.9174,-0.8999,-0.8823,-0.8704,-0.8722,-0.8824,-0.9007,-0.9181,-0.936,-0.9531,-0.96,-0.9579,-0.9579,-0.9579,-0.9579,-0.9579,-2.7098,-2.6935,-2.6845,-2.6646,-2.6591,-2.6582,-2.6473,-2.6245,-2.6017,-2.5844,-2.545,-2.4878,-2.406,-2.3824,-2.3418,-2.2663,-2.2594,-2.2544,-2.2443,-2.208,-2.1878,-2.1971,-2.1502,-2.0957,-2.0289,-1.9934,-1.943,-1.8781,-1.8781,-1.8781,-1.8781,-1.8743,-1.8697,-1.8665,-1.7786,-1.735,-1.7224,-1.6327,-1.5831,-1.5616,-1.5616,-1.5499,-1.5389,-1.534,-1.516,-1.4916,-1.4605,-1.4212,-1.3712,-1.3299,-1.2951,-1.2631,-1.2513,-1.2341,-1.2187,-1.204,-1.1892,-1.1744,-1.1484,-1.1335,-1.1298,-1.1298,-1.1186,-1.1111,-1.1111,-1.1037,-1.0962,-1.0738,-1.055,-1.0331,-1.0143,-0.9992,-0.9884,-0.9884,-0.9884,-0.9846,-0.962,-0.9549,-0.9397,-0.9022,-0.9005,-0.8928,-0.8803,-0.8859,-0.8897,-0.8897,-0.9034,-0.9079,-0.9079,-0.9272,-0.9451,-0.9597,-0.9667,-0.9743,-0.9743,-0.9923,-0.9864,-0.9602,-0.9515,-0.9301,-0.8911,-0.8823,-0.874,-0.862,-0.8747,-0.8926,-0.9112,-0.9331,-0.9462,-0.9579,-0.9579,-0.9579,-0.9579,-0.9579,-0.9579,-0.9579,-2.6989,-2.6791,-2.6591,-2.6591,-2.6591,-2.6473,-2.6127,-2.6127,-2.5898,-2.5284,-2.5221,-2.4824,-2.3795,-2.3718,-2.3418,-2.2663,-2.2594,-2.2443,-2.2123,-2.1623,-2.142,-2.1674,-2.142,-2.0994,-2.0297,-2.0014,-1.9519,-1.8781,-1.8781,-1.8781,-1.8781,-1.8566,-1.8481,-1.845,-1.7518,-1.6991,-1.6741,-1.6025,-1.5582,-1.5389,-1.5389,-1.5389,-1.5389,-1.5173,-1.509,-1.5047,-1.4479,-1.4164,-1.3946,-1.3605,-1.3187,-1.279,-1.279,-1.2432,-1.2009,-1.2009,-1.1713,-1.1416,-1.1416,-1.1267,-1.1117,-1.1111,-1.1111,-1.1111,-1.1111,-1.0925,-1.0738,-1.0556,-1.0331,-1.0148,-0.9927,-0.9889,-0.9889,-0.9889,-0.9889,-0.9852,-0.9625,-0.944,-0.9218,-0.9027,-0.9019,-0.8985,-0.8985,-0.9164,-0.9282,-0.9282,-0.9286,-0.9286,-0.9286,-0.9489,-0.9606,-0.9606,-0.9842,-0.9994,-0.9994,-0.9994,-0.9864,-0.9602,-0.9388,-0.9174,-0.8911,-0.8696,-0.8612,-0.862,-0.8747,-0.8926,-0.9112,-0.9335,-0.9466,-0.9579,-0.9579,-0.9579,-0.9579,-0.9579,-0.9579,-0.9579,-2.6736,-2.6636,-2.6591,-2.6591,-2.6418,-2.6236,-2.6127,-2.5734,-2.5395,-2.5221,-2.5017,-2.4622,-2.3804,-2.3682,-2.3383,-2.2663,-2.2392,-2.203,-2.1573,-2.1377,-2.1275,-2.1121,-2.083,-2.0436,-2.003,-1.9686,-1.9296,-1.8781,-1.8651,-1.8566,-1.8566,-1.8326,-1.8234,-1.821,-1.7493,-1.7041,-1.6764,-1.6115,-1.5678,-1.5389,-1.5389,-1.5305,-1.5173,-1.5131,-1.4999,-1.4768,-1.4462,-1.4214,-1.394,-1.3655,-1.3353,-1.3073,-1.2916,-1.2772,-1.2583,-1.2232,-1.207,-1.1914,-1.1796,-1.1718,-1.1588,-1.1208,-1.1111,-1.1074,-1.0925,-1.085,-1.0758,-1.0605,-1.0528,-1.0462,-1.039,-1.0383,-1.0383,-1.0383,-1.0264,-1.011,-0.9911,-0.9672,-0.9432,-0.9223,-0.9195,-0.9192,-0.9192,-0.9249,-0.9282,-0.9282,-0.9423,-0.9611,-0.98,-0.9866,-0.9861,-0.9861,-0.9961,-0.9994,-0.9994,-0.9994,-0.9781,-0.9388,-0.9345,-0.9087,-0.8696,-0.8612,-0.8633,-0.8755,-0.8934,-0.9116,-0.9339,-0.947,-0.9579,-0.9579,-0.9579,-0.9579,-0.9579,-0.9579,-0.9579,-0.9579,-2.6646,-2.6591,-2.6537,-2.6418,-2.6245,-2.6017,-2.5789,-2.545,-2.5174,-2.5072,-2.4923,-2.453,-2.3804,-2.3691,-2.3339,-2.2502,-2.203,-2.1623,-2.1326,-2.1224,-2.107,-2.0925,-2.0448,-2.0132,-1.9917,-1.959,-1.9146,-1.8697,-1.8574,-1.8435,-1.8334,-1.8048,-1.7947,-1.7939,-1.7324,-1.6907,-1.6624,-1.6096,-1.5638,-1.5257,-1.5257,-1.5131,-1.4915,-1.4873,-1.4741,-1.4566,-1.4363,-1.417,-1.4014,-1.3856,-1.3546,-1.32,-1.2968,-1.277,-1.2571,-1.2286,-1.212,-1.204,-1.192,-1.188,-1.1802,-1.1516,-1.1354,-1.1278,-1.1124,-1.097,-1.0822,-1.0751,-1.0666,-1.059,-1.0611,-1.0597,-1.0557,-1.0476,-1.0395,-1.0192,-0.9872,-0.9709,-0.9541,-0.9322,-0.9357,-0.9409,-0.9409,-0.9526,-0.9573,-0.9573,-0.9696,-0.9823,-0.9985,-0.9994,-0.9994,-0.9994,-0.9994,-0.9994,-0.9994,-0.9907,-0.9646,-0.9305,-0.9174,-0.8959,-0.8612,-0.8637,-0.8723,-0.8836,-0.9088,-0.9306,-0.9416,-0.9551,-0.9579,-0.9579,-0.9579,-0.9579,-0.9579,-0.9579,-0.9579,-0.9579,-2.6591,-2.6591,-2.6473,-2.6127,-2.6072,-2.5844,-2.5276,-2.5174,-2.5072,-2.4821,-2.4795,-2.4487,-2.3804,-2.3657,-2.3192,-2.219,-2.1623,-2.1275,-2.1275,-2.1019,-2.0909,-2.0877,-2.0226,-1.9852,-1.982,-1.9495,-1.9028,-1.8481,-1.8435,-1.8288,-1.804,-1.7815,-1.7675,-1.766,-1.7171,-1.6718,-1.6396,-1.6046,-1.5597,-1.5125,-1.5097,-1.4915,-1.465,-1.4482,-1.4398,-1.4356,-1.4166,-1.4088,-1.4088,-1.4088,-1.3741,-1.3266,-1.3006,-1.2601,-1.2274,-1.2234,-1.2113,-1.1952,-1.1952,-1.1952,-1.1952,-1.1952,-1.1791,-1.1618,-1.1571,-1.1238,-1.0921,-1.0902,-1.0746,-1.063,-1.0656,-1.0656,-1.0621,-1.0417,-1.0336,-1.0172,-0.9722,-0.964,-0.9553,-0.9379,-0.9512,-0.963,-0.963,-0.9842,-0.9994,-0.9994,-0.9994,-0.9994,-0.9994,-0.9994,-0.9994,-0.9994,-0.9994,-1.0004,-1.0023,-0.9717,-0.9494,-0.9305,-0.906,-0.8805,-0.8641,-0.8767,-0.8852,-0.8885,-0.9261,-0.9412,-0.9441,-0.9559,-0.9579,-0.9579,-0.9579,-0.9579,-0.9579,-0.9579,-0.9579,-0.9579,-2.6591,-2.6409,-2.619,-2.6127,-2.5725,-2.5331,-2.5221,-2.5017,-2.4868,-2.4821,-2.4556,-2.4187,-2.3742,-2.3216,-2.2687,-2.2165,-2.1623,-2.1224,-2.1019,-2.0917,-2.0798,-2.0519,-1.9901,-1.945,-1.9176,-1.8848,-1.8551,-1.8187,-1.8001,-1.7815,-1.7768,-1.7527,-1.738,-1.7372,-1.726,-1.6963,-1.6469,-1.6107,-1.5654,-1.5169,-1.4881,-1.465,-1.4482,-1.4433,-1.4279,-1.4166,-1.413,-1.4088,-1.4088,-1.387,-1.3613,-1.3338,-1.3107,-1.3004,-1.2878,-1.2662,-1.2578,-1.2536,-1.2536,-1.2536,-1.2494,-1.2325,-1.2078,-1.1817,-1.1456,-1.1117,-1.0924,-1.0952,-1.0949,-1.0966,-1.1118,-1.1155,-1.107,-1.0857,-1.0723,-1.0499,-1.02,-1.0028,-0.9904,-0.9857,-0.99,-0.9928,-0.9928,-0.9971,-0.9994,-0.9994,-0.9994,-0.9994,-0.9994,-0.9994,-0.9994,-0.9994,-0.9994,-1.0075,-1.0246,-0.9759,-0.9455,-0.9305,-0.9189,-0.8988,-0.8771,-0.8954,-0.9112,-0.929,-0.9367,-0.9437,-0.9571,-0.9612,-0.9579,-0.9579,-0.9579,-0.9579,-0.9579,-0.9579,-0.9579,-0.9648,-2.6409,-2.6236,-2.6017,-2.5734,-2.5395,-2.5174,-2.5017,-2.4868,-2.4821,-2.4821,-2.4424,-2.4039,-2.3566,-2.3035,-2.2448,-2.1758,-2.1326,-2.107,-2.0925,-2.0925,-2.0715,-2.0216,-1.9763,-1.9217,-1.863,-1.8309,-1.8055,-1.7908,-1.7768,-1.7628,-1.7527,-1.738,-1.7279,-1.7279,-1.72,-1.6886,-1.6493,-1.6185,-1.5667,-1.503,-1.4871,-1.4584,-1.4243,-1.4243,-1.4208,-1.4088,-1.3955,-1.387,-1.3737,-1.361,-1.3434,-1.3222,-1.3137,-1.3009,-1.2875,-1.2747,-1.2705,-1.2705,-1.2705,-1.2619,-1.2534,-1.2448,-1.2118,-1.1804,-1.1539,-1.1269,-1.1093,-1.1133,-1.116,-1.1198,-1.1284,-1.1305,-1.1219,-1.0916,-1.0776,-1.0554,-1.0207,-1.0081,-0.9994,-0.9994,-0.9994,-0.9994,-0.9994,-0.9994,-0.9994,-0.9994,-0.9994,-1.0042,-1.0146,-1.0151,-1.0194,-1.0289,-1.0293,-1.0346,-1.046,-0.9917,-0.959,-0.9534,-0.9271,-0.9092,-0.8958,-0.9137,-0.9318,-0.9408,-0.9445,-0.9539,-0.9579,-0.9579,-0.9579,-0.9579,-0.9579,-0.9579,-0.9579,-0.9579,-0.9681,-0.9786,-2.6127,-2.6017,-2.5789,-2.5276,-2.5174,-2.5072,-2.4812,-2.4821,-2.4821,-2.4821,-2.4364,-2.3855,-2.3328,-2.281,-2.2115,-2.1299,-2.1027,-2.0925,-2.0925,-2.0873,-2.0538,-1.993,-1.9535,-1.8944,-1.8118,-1.7802,-1.7628,-1.7628,-1.7628,-1.7527,-1.7279,-1.7286,-1.7239,-1.7239,-1.7019,-1.6736,-1.6441,-1.6148,-1.5659,-1.4984,-1.4936,-1.4602,-1.4162,-1.4162,-1.4128,-1.3997,-1.3779,-1.3568,-1.3355,-1.3355,-1.3222,-1.3009,-1.3009,-1.2881,-1.2705,-1.2705,-1.2705,-1.2705,-1.2662,-1.2534,-1.2363,-1.2277,-1.1995,-1.1699,-1.1656,-1.144,-1.1305,-1.1305,-1.1305,-1.1305,-1.1305,-1.1267,-1.1132,-1.0771,-1.0641,-1.0467,-1.0081,-0.9994,-0.9994,-0.9994,-0.9994,-1.0009,-1.0047,-1.0051,-1.0066,-1.0099,-1.0104,-1.018,-1.036,-1.0369,-1.0445,-1.057,-1.0621,-1.0635,-1.0627,-1.0119,-0.9852,-0.9887,-0.9421,-0.9173,-0.9145,-0.9371,-0.9449,-0.9457,-0.9563,-0.9579,-0.9579,-0.9579,-0.9579,-0.9579,-0.9579,-0.9579,-0.9583,-0.9661,-0.9803,-1.0022,-2.6127,-2.5679,-2.5284,-2.5221,-2.5017,-2.4812,-2.4821,-2.4821,-2.4821,-2.4821,-2.3971,-2.3406,-2.3302,-2.2212,-2.1331,-2.0976,-2.0925,-2.0925,-2.0925,-2.0668,-2.0276,-1.9579,-1.9052,-1.8499,-1.7796,-1.7503,-1.7333,-1.7333,-1.7333,-1.7333,-1.7279,-1.7113,-1.7019,-1.7026,-1.6777,-1.652,-1.6236,-1.5929,-1.5633,-1.5303,-1.5093,-1.4774,-1.4462,-1.4462,-1.4173,-1.3737,-1.3695,-1.3483,-1.3143,-1.3143,-1.2966,-1.2747,-1.2747,-1.2747,-1.2705,-1.2705,-1.2705,-1.2662,-1.2491,-1.2406,-1.2277,-1.1909,-1.1742,-1.1656,-1.1397,-1.1348,-1.1305,-1.1305,-1.1305,-1.1305,-1.1305,-1.1181,-1.0959,-1.0733,-1.0511,-1.025,-1.0038,-0.9994,-0.9994,-0.9994,-0.9994,-1.007,-1.0255,-1.0274,-1.0346,-1.0521,-1.0535,-1.0545,-1.0578,-1.0578,-1.0592,-1.0621,-1.0621,-1.0664,-1.0853,-1.033,-1.0171,-1.0334,-0.98,-0.9474,-0.9375,-0.9506,-0.9592,-0.9592,-0.9567,-0.9579,-0.9579,-0.9579,-0.9579,-0.9579,-0.9579,-0.9579,-0.9644,-0.9795,-1.0067,-1.0314,-2.567,-2.5395,-2.5174,-2.5026,-2.4868,-2.4821,-2.4821,-2.4821,-2.4765,-2.4599,-2.382,-2.3188,-2.2815,-2.1755,-2.1027,-2.0917,-2.0925,-2.0822,-2.0668,-2.0573,-2.0058,-1.9109,-1.8833,-1.8331,-1.7495,-1.738,-1.7279,-1.7279,-1.7279,-1.7239,-1.7106,-1.7019,-1.6932,-1.6784,-1.6501,-1.6312,-1.617,-1.5886,-1.5638,-1.5384,-1.5257,-1.4978,-1.4542,-1.4542,-1.4226,-1.3731,-1.3449,-1.3137,-1.2881,-1.2881,-1.279,-1.2705,-1.2705,-1.2705,-1.2662,-1.2577,-1.2534,-1.2491,-1.2246,-1.2075,-1.1952,-1.1742,-1.157,-1.144,-1.1348,-1.1305,-1.1305,-1.1305,-1.1305,-1.1305,-1.1305,-1.1138,-1.0916,-1.0733,-1.0467,-1.025,-1.0038,-1.0099,-1.0217,-1.0331,-1.0346,-1.0384,-1.0478,-1.0488,-1.048,-1.0611,-1.0621,-1.0673,-1.0745,-1.0754,-1.0806,-1.0915,-1.092,-1.0967,-1.1061,-1.0528,-1.0329,-1.0413,-0.9875,-0.9587,-0.951,-0.9592,-0.9579,-0.9579,-0.9579,-0.9579,-0.9579,-0.9579,-0.9579,-0.9579,-0.9579,-0.9685,-0.9791,-0.9973,-1.0209,-1.0395]},{"header":{"parameterUnit":"m.s-1","parameterCategory":1,"la1":30.6,"la2":28.766,"lo1":-90.7593,"lo2":-88.6598,"dy":0.0162,"dx":0.0183,"nx":116,"ny":114,"refTime":"2023-09-29T18:00:00:Z","depth":0,"parameterNumber":3,"parameterNumberName":"V-component_of_WINDS"},"data":[0.0,0.0,0.0,0.0,0.0,0.0,0.0,0.0,0.0,0.0,0.0,0.0,0.0,0.0,0.0,0.0,0.0,0.0,0.0,0.0,0.0,0.0,0.0,0.0,0.0,0.0,0.0,0.0,0.0,0.0,0.0,0.0,0.0,0.0,0.0,0.0,0.0,0.0,0.0,0.0,0.0,0.0,0.0,0.0,0.0,0.0,0.0,0.0,0.0,0.0,0.0,0.0,0.0,0.0,0.0,0.0,0.0,0.0,0.0,0.0,0.0,0.0,0.0,0.0,0.0,0.0,0.0,0.0,0.0,0.0,0.0,0.0,0.0,0.0,0.0,0.0,0.0,0.0,0.0,0.0,0.0,0.0,0.0,0.0,0.0,0.0,0.0,0.0,0.0,0.0,0.0,0.0,0.0,0.0,0.0,0.0,0.0,0.0,0.0,0.0,0.0,0.0,0.0,0.0,0.0,0.0,0.0,0.0,0.0,0.0,0.0,0.0,0.0,0.0,0.0,0.0,0.0,0.0,0.0,0.0,0.0,0.0,0.0,0.0,0.0,0.0,0.0,0.0,0.0,0.0,0.0,0.0,0.0,0.0,0.0,0.0,0.0,0.0,0.0,0.0,0.0,0.0,0.0,0.0,0.0,0.0,0.0,0.0,0.0,0.0,0.0,0.0,0.0,0.0,0.0,0.0,0.0,0.0,0.0,0.0,0.0,0.0,0.0,0.0,0.0,0.0,0.0,0.0,0.0,0.0,0.0,0.0,0.0,0.0,0.0,0.0,0.0,0.0,0.0,0.0,0.0,0.0,0.0,0.0,0.0,0.0,0.0,0.0,0.0,0.0,0.0,0.0,0.0,0.0,0.0,0.0,0.0,0.0,0.0,0.0,0.0,0.0,0.0,0.0,0.0,0.0,0.0,0.0,0.0,0.0,0.0,0.0,0.0,0.0,0.0,0.0,0.0,0.0,0.0,0.0,0.0,0.0,0.0,0.0,0.0,0.0,0.0,0.0,0.0,0.0,0.0,0.0,0.0,0.0,0.0,0.0,0.0,0.0,0.0,0.0,0.0,0.0,0.0,0.0,0.0,0.0,0.0,0.0,0.0,0.0,0.0,0.0,0.0,0.0,0.0,0.0,0.0,0.0,0.0,0.0,0.0,0.0,0.0,0.0,0.0,0.0,0.0,0.0,0.0,0.0,0.0,0.0,0.0,0.0,0.0,0.0,0.0,0.0,0.0,0.0,0.0,0.0,0.0,0.0,0.0,0.0,0.0,0.0,0.0,0.0,0.0,0.0,0.0,0.0,0.0,0.0,0.0,0.0,0.0,0.0,0.0,0.0,0.0,0.0,0.0,0.0,0.0,0.0,0.0,0.0,0.0,0.0,0.0,0.0,0.0,0.0,0.0,0.0,0.0,0.0,0.0,0.0,0.0,0.0,0.0,0.0,0.0,0.0,0.0,0.0,0.0,0.0,0.0,0.0,0.0,0.0,0.0,0.0,0.0,0.0,0.0,0.0,0.0,0.0,0.0,0.0,0.0,0.0,0.0,0.0,0.0,0.0,0.0,0.0,0.0,0.0,0.0,0.0,0.0,0.0,0.0,0.0,0.0,0.0,0.0,0.0,0.0,0.0,0.0,0.0,0.0,0.0,0.0,0.0,0.0,0.0,0.0,0.0,0.0,0.0,0.0,0.0,0.0,0.0,0.0,0.0,0.0,0.0,0.0,0.0,0.0,0.0,0.0,0.0,0.0,0.0,0.0,0.0,0.0,0.0,0.0,0.0,0.0,0.0,0.0,0.0,0.0,0.0,0.0,0.0,0.0,0.0,0.0,0.0,0.0,0.0,0.0,0.0,0.0,0.0,0.0,0.0,0.0,0.0,0.0,0.0,0.0,0.0,0.0,0.0,0.0,0.0,0.0,0.0,0.0,0.0,0.0,0.0,0.0,0.0,0.0,0.0,0.0,0.0,0.0,0.0,0.0,0.0,0.0,0.0,0.0,0.0,0.0,0.0,0.0,0.0,0.0,0.0,0.0,0.0,0.0,0.0,0.0,0.0,0.0,0.0,0.0,0.0,0.0,0.0,0.0,0.0,0.0,0.0,0.0,0.0,0.0,0.0,0.0,0.0,0.0,0.0,0.0,0.0,0.0,0.0,0.0,0.0,0.0,0.0,0.0,0.0,0.0,0.0,0.0,0.0,0.0,0.0,0.0,0.0,0.0,0.0,0.0,0.0,0.0,0.0,0.0,0.0,0.0,0.0,0.0,0.0,0.0,0.0,0.0,0.0,0.0,0.0,0.0,0.0,0.0,0.0,0.0,0.0,0.0,0.0,0.0,0.0,0.0,0.0,0.0,0.0,0.0,0.0,0.0,0.0,0.0,0.0,0.0,0.0,0.0,0.0,0.0,0.0,0.0,0.0,0.0,0.0,0.0,0.0,0.0,0.0,0.0,0.0,0.0,0.0,0.0,0.0,0.0,0.0,0.0,0.0,0.0,0.0,0.0,0.0,0.0,0.0,0.0,0.0,0.0,0.0,0.0,0.0,0.0,0.0,0.0,0.0,0.0,0.0,0.0,0.0,0.0,0.0,0.0,0.0,0.0,0.0,0.0,0.0,0.0,0.0,0.0,0.0,0.0,0.0,0.0,0.0,0.0,0.0,0.0,0.0,0.0,0.0,0.0,0.0,0.0,0.0,0.0,0.0,0.0,0.0,0.0,0.0,0.0,0.0,0.0,0.0,0.0,0.0,0.0,0.0,0.0,0.0,0.0,0.0,0.0,0.0,0.0,0.0,0.0,0.0,0.0,0.0,0.0,0.0,0.0,0.0,0.0,0.0,0.0,0.0,0.0,0.0,0.0,0.0,0.0,0.0,0.0,0.0,0.0,0.0,0.0,0.0,0.0,0.0,0.0,0.0,0.0,0.0,0.0,0.0,0.0,0.0,0.0,0.0,0.0,0.0,0.0,0.0,0.0,0.0,0.0,0.0,0.0,0.0,0.0,0.0,0.0,0.0,0.0,0.0,0.0,0.0,0.0,0.0,0.0,0.0,0.0,0.0,0.0,0.0,0.0,0.0,0.0,0.0,0.0,0.0,0.0,0.0,0.0,0.0,0.0,0.0,0.0,0.0,0.0,0.0,0.0,0.0,0.0,0.0,0.0,0.0,0.0,0.0,0.0,0.0,0.0,0.0,0.0,0.0,0.0,0.0,0.0,0.0,0.0,0.0,0.0,0.0,0.0,0.0,0.0,0.0,0.0,0.0,0.0,0.0,0.0,0.0,0.0,0.0,0.0,0.0,0.0,0.0,0.0,0.0,0.0,0.0,0.0,0.0,0.0,0.0,0.0,0.0,0.0,0.0,0.0,0.0,0.0,0.0,0.0,0.0,0.0,0.0,0.0,0.0,0.0,0.0,0.0,0.0,0.0,0.0,0.0,0.0,0.0,0.0,0.0,0.0,0.0,0.0,0.0,0.0,0.0,0.0,0.0,0.0,0.0,0.0,0.0,0.0,0.0,0.0,0.0,0.0,0.0,0.0,0.0,0.0,0.0,0.0,0.0,0.0,0.0,0.0,0.0,0.0,0.0,0.0,0.0,0.0,0.0,0.0,0.0,0.0,0.0,0.0,0.0,0.0,0.0,0.0,0.0,0.0,0.0,0.0,0.0,0.0,0.0,0.0,0.0,0.0,0.0,0.0,0.0,0.0,0.0,0.0,0.0,0.0,0.0,0.0,0.0,0.0,0.0,0.0,0.0,0.0,0.0,0.0,0.0,0.0,0.0,0.0,0.0,0.0,0.0,0.0,0.0,0.0,0.0,0.0,0.0,0.0,0.0,0.0,0.0,0.0,0.0,0.0,0.0,0.0,0.0,0.0,0.0,0.0,0.0,0.0,0.0,0.0,0.0,0.0,0.0,0.0,0.0,0.0,0.0,0.0,0.0,0.0,0.0,0.0,0.0,0.0,0.0,0.0,0.0,0.0,0.0,0.0,0.0,0.0,0.0,0.0,0.0,0.0,0.0,0.0,0.0,0.0,0.0,0.0,0.0,0.0,0.0,0.0,0.0,0.0,0.0,0.0,0.0,0.0,0.0,0.0,0.0,0.0,0.0,0.0,0.0,0.0,0.0,0.0,0.0,0.0,0.0,0.0,0.0,0.0,0.0,0.0,0.0,0.0,0.0,0.0,0.0,0.0,0.0,0.0,0.0,0.0,0.0,0.0,0.0,0.0,0.0,0.0,0.0,0.0,0.0,0.0,0.0,0.0,0.0,0.0,0.0,0.0,0.0,0.0,0.0,0.0,0.0,0.0,0.0,0.0,0.0,0.0,0.0,0.0,0.0,0.0,0.0,0.0,0.0,0.0,0.0,0.0,0.0,0.0,0.0,0.0,0.0,0.0,0.0,0.0,0.0,0.0,0.0,0.0,0.0,0.0,0.0,0.0,0.0,0.0,0.0,0.0,0.0,0.0,0.0,0.0,0.0,0.0,0.0,0.0,0.0,0.0,0.0,0.0,0.0,0.0,0.0,0.0,0.0,0.0,0.0,0.0,0.0,0.0,0.0,0.0,0.0,0.0,0.0,0.0,0.0,0.0,0.0,0.0,0.0,0.0,0.0,0.0,0.0,0.0,0.0,0.0,0.0,0.0,0.0,0.0,0.0,0.0,0.0,0.0,0.0,0.0,0.0,0.0,0.0,0.0,0.0,0.0,0.0,0.0,0.0,0.0,0.0,0.0,0.0,0.0,0.0,0.0,0.0,0.0,0.0,0.0,0.0,0.0,0.0,0.0,0.0,0.0,0.0,0.0,0.0,0.0,0.0,0.0,0.0,0.0,0.0,0.0,0.0,0.0,0.0,0.0,0.0,0.0,0.0,0.0,0.0,0.0,0.0,0.0,0.0,0.0,0.0,0.0,0.0,0.0,0.0,0.0,0.0,0.0,0.0,0.0,0.0,0.0,0.0,0.0,0.0,0.0,0.0,0.0,0.0,0.0,0.0,0.0,0.0,0.0,0.0,0.0,0.0,0.0,0.0,0.0,0.0,0.0,0.0,0.0,0.0,0.0,0.0,0.0,0.0,0.0,0.0,0.0,0.0,0.0,0.0,0.0,0.0,0.0,0.0,0.0,0.0,0.0,0.0,0.0,0.0,0.0,0.0,0.0,0.0,0.0,0.0,0.0,0.0,0.0,0.0,0.0,0.0,0.0,0.0,0.0,0.0,0.0,0.0,0.0,0.0,0.0,0.0,0.0,0.0,0.0,0.0,0.0,0.0,0.0,0.0,0.0,0.0,0.0,0.0,0.0,0.0,0.0,0.0,0.0,0.0,0.0,0.0,0.0,0.0,0.0,0.0,0.0,0.0,0.0,0.0,0.0,0.0,0.0,0.0,0.0,0.0,0.0,0.0,0.0,0.0,0.0,0.0,0.0,0.0,0.0,0.0,0.0,0.0,0.0,0.0,0.0,0.0,0.0,0.0,0.0,0.0,0.0,0.0,0.0,0.0,0.0,0.0,0.0,0.0,0.0,0.0,0.0,0.0,0.0,0.0,0.0,0.0,0.0,0.0,0.0,0.0,0.0,0.0,0.0,0.0,0.0,0.0,0.0,0.0,0.0,0.0,0.0,0.0,0.0,0.0,0.0,0.0,0.0,0.0,0.0,0.0,0.0,0.0,0.0,0.0,0.0,0.0,0.0,0.0,0.0,0.0,0.0,0.0,0.0,0.0,0.0,0.0,0.0,0.0,0.0,0.0,0.0,0.0,0.0,0.0,0.0,0.0,0.0,0.0,0.0,0.0,0.0,0.0,0.0,0.0,0.0,0.0,0.0,0.0,0.0,0.0,0.0,0.0,0.0,0.0,0.0,0.0,0.0,0.0,0.0,0.0,0.0,0.0,0.0,0.0,0.0,0.0,0.0,0.0,0.0,0.0,0.0,0.0,0.0,0.0,0.0,0.0,0.0,0.0,0.0,0.0,0.0,0.0,0.0,0.0,0.0,0.0,0.0,0.0,0.0,0.0,0.0,0.0,0.0,0.0,0.0,0.0,0.0,0.0,0.0,0.0,0.0,0.0,0.0,0.0,0.0,0.0,0.0,0.0,0.0,0.0,0.0,0.0,0.0,2.0982,1.9992,0.0,0.0,0.0,0.0,0.0,0.0,0.0,0.0,0.0,0.0,0.0,0.0,0.0,0.0,0.0,0.0,0.0,0.0,0.0,0.0,0.0,0.0,0.0,0.0,0.0,0.0,0.0,0.0,0.0,0.0,0.0,0.0,0.0,0.0,0.0,0.0,0.0,1.3759,1.4109,1.472,1.553,1.496,1.4233,1.3403,0.0,0.0,0.0,0.0,0.0,0.0,0.0,0.0,0.0,0.0,0.0,0.0,0.0,0.0,0.0,0.0,0.0,0.0,0.0,0.0,0.0,0.0,0.0,0.0,0.0,0.0,0.0,0.0,0.0,0.0,0.0,0.0,0.0,0.0,0.0,0.0,0.0,0.0,0.0,0.0,0.0,0.0,0.0,0.0,0.0,0.0,0.0,0.0,0.0,0.0,0.0,0.0,0.0,0.0,0.0,0.0,0.0,0.0,0.0,0.0,0.0,0.0,0.0,0.0,0.0,0.0,0.0,0.0,0.0,0.0,2.2726,2.1826,0.0,0.0,0.0,0.0,0.0,0.0,0.0,0.0,0.0,0.0,0.0,0.0,0.0,0.0,0.0,0.0,0.0,0.0,0.0,0.0,0.0,0.0,0.0,1.1917,1.2308,1.2308,1.2466,1.2621,1.2692,0.0,0.0,0.0,0.0,0.0,1.3779,1.4032,1.4228,1.435,1.495,1.5915,1.7212,1.6736,1.6043,1.5133,1.4817,0.0,0.0,0.0,0.0,0.0,0.0,0.0,0.0,0.0,0.0,0.0,0.0,0.0,0.0,0.0,0.0,0.0,0.0,0.0,0.0,0.0,0.0,0.0,0.0,0.0,0.0,0.0,0.0,0.0,0.0,0.0,0.0,0.0,0.0,0.0,0.0,0.0,0.0,0.0,0.0,0.0,0.0,0.0,0.0,0.0,0.0,0.0,0.0,0.0,0.0,0.0,0.0,0.0,0.0,0.0,0.0,0.0,0.0,0.0,0.0,0.0,0.0,0.0,2.5763,2.5763,2.5763,2.5825,2.594,2.5977,2.4563,2.3842,2.3626,2.3032,0.0,0.0,0.0,0.0,0.0,0.0,0.0,0.0,0.0,0.0,0.0,0.0,0.0,0.0,0.0,0.0,0.0,0.0,0.0,1.1384,1.1838,1.2141,1.2308,1.2308,1.2423,1.2579,1.2692,0.0,0.0,0.0,0.0,0.0,1.5723,1.6432,1.6853,1.6997,1.725,1.7496,1.7725,1.7806,1.7792,1.7637,1.6066,1.5367,1.5341,0.0,0.0,0.0,0.0,0.0,0.0,0.0,0.0,0.0,0.0,0.0,0.0,0.0,0.0,0.0,0.0,0.0,0.0,0.0,0.0,0.0,0.0,0.0,0.0,0.0,0.0,0.0,0.0,0.0,0.0,0.0,0.0,0.0,0.0,0.0,0.0,0.0,0.0,0.0,0.0,0.0,2.0998,2.0892,0.0,0.0,0.0,0.0,0.0,0.0,0.0,0.0,0.0,0.0,0.0,0.0,0.0,2.6714,2.6809,2.6809,2.6809,2.6809,2.6809,2.6809,2.6809,2.6931,2.7019,2.7096,2.6965,0.0,2.4779,2.4747,0.0,0.0,0.0,0.0,0.0,0.0,0.0,0.0,0.0,0.0,0.0,0.0,0.0,0.0,0.0,0.0,0.0,0.0,0.0,0.0,0.0,1.2977,1.3416,1.384,1.3965,1.4231,1.4747,1.4777,0.0,0.0,0.0,1.6206,1.6546,1.6966,1.7631,1.8561,1.9072,1.957,2.0041,2.0233,2.034,2.0349,1.929,1.8219,1.7206,1.6565,0.0,0.0,0.0,0.0,0.0,0.0,0.0,0.0,0.0,0.0,0.0,0.0,0.0,0.0,0.0,0.0,0.0,0.0,0.0,0.0,0.0,0.0,0.0,0.0,0.0,0.0,0.0,0.0,0.0,0.0,0.0,0.0,0.0,0.0,0.0,0.0,0.0,0.0,0.0,2.1327,2.245,2.2713,2.3281,2.389,0.0,0.0,0.0,0.0,0.0,0.0,0.0,0.0,0.0,2.8366,2.8326,2.8466,2.8862,2.8973,2.9037,2.9021,2.9084,2.9147,2.9147,2.9195,2.9289,2.9374,2.9437,2.8857,2.7805,2.6932,2.6155,2.5538,0.0,0.0,0.0,0.0,2.4142,2.3822,0.0,0.0,0.0,0.0,0.0,0.0,0.0,0.0,0.0,0.0,0.0,0.0,1.3206,1.3831,1.4476,1.5044,1.531,1.5704,1.6348,1.6393,1.6496,1.6691,1.7089,1.732,1.738,1.7899,1.8735,1.9904,2.0478,2.1123,2.1783,2.1881,2.1998,2.2064,2.1725,2.064,1.903,1.8385,1.775,1.7167,0.0,0.0,0.0,0.0,0.0,0.0,0.0,0.0,0.0,0.0,0.0,0.0,0.0,0.0,0.0,0.0,0.0,0.0,0.0,0.0,0.0,0.0,0.0,0.0,0.0,0.0,0.0,0.0,0.0,0.0,0.0,0.0,0.0,0.0,0.0,0.0,0.0,2.2787,2.3729,2.4342,2.4516,2.5053,0.0,0.0,0.0,0.0,0.0,0.0,2.8255,2.8182,2.8611,2.9587,2.9531,2.9786,3.0455,3.0602,3.0762,3.092,3.1041,3.1067,3.1093,3.0949,3.0933,3.1021,3.0885,3.0601,3.0122,2.8838,2.7805,2.7046,2.7207,2.6847,2.6205,2.5832,2.5726,2.5697,0.0,0.0,0.0,0.0,0.0,0.0,0.0,0.0,0.0,0.0,0.0,1.314,1.3769,1.4451,1.4927,1.5085,1.5698,1.615,1.6375,1.6393,1.6496,1.6691,1.7913,1.865,1.8698,2.0199,2.1085,2.13,2.1401,2.153,2.1714,2.1783,2.1881,2.2013,2.2049,2.1418,2.0268,1.9717,1.9138,1.855,1.794,0.0,0.0,0.0,0.0,0.0,0.0,0.0,0.0,0.0,0.0,0.0,0.0,0.0,0.0,0.0,0.0,0.0,0.0,0.0,0.0,0.0,0.0,0.0,0.0,0.0,0.0,0.0,0.0,0.0,0.0,0.0,0.0,0.0,0.0,0.0,0.0,0.0,0.0,2.5451,2.6137,0.0,0.0,0.0,0.0,2.8895,2.886,2.9113,2.9837,2.9883,2.9913,2.9974,2.9974,3.0251,3.0846,3.0888,3.1195,3.1819,3.1819,3.1847,3.1832,3.1317,3.1109,3.1063,3.0565,3.0444,3.0545,3.0129,2.9177,2.7946,2.8134,2.7812,2.7251,2.7489,2.7571,2.7571,0.0,0.0,0.0,0.0,0.0,0.0,0.0,0.0,1.2088,1.2583,1.3224,1.3884,1.4593,1.4885,1.5385,1.6239,1.6547,1.6946,1.752,1.7926,1.8232,1.8442,1.9317,1.9856,2.0012,2.1513,2.2367,2.2497,2.3437,2.3948,2.4097,2.4274,2.44,2.4465,2.4646,2.4009,2.272,2.1783,2.0825,1.9893,1.9689,1.8992,0.0,0.0,0.0,0.0,0.0,0.0,0.0,0.0,0.0,0.0,0.0,0.0,0.0,0.0,0.0,0.0,0.0,0.0,0.0,0.0,0.0,0.0,0.0,0.0,0.0,0.0,0.0,0.0,0.0,0.0,0.0,0.0,0.0,0.0,0.0,0.0,0.0,2.7226,2.7581,0.0,2.9011,2.9083,2.9383,3.0202,3.0194,3.0667,3.1804,3.1792,3.1932,3.2355,3.2298,3.236,3.257,3.2643,3.2823,3.3079,3.3153,3.3182,3.3167,3.2983,3.2891,3.2875,3.2705,3.2656,3.2697,3.2594,3.1464,2.9828,2.9981,2.988,2.9651,2.9354,2.9241,2.9114,0.0,0.0,0.0,0.0,0.0,0.0,0.0,1.188,1.2478,1.2991,1.3794,1.45,1.5044,1.5438,1.6032,1.6919,1.7366,1.786,1.8458,1.9073,1.9488,1.9733,2.0641,2.1287,2.1641,2.2898,2.3609,2.3748,2.4723,2.5278,2.5396,2.5638,2.577,2.5816,2.6032,2.5642,2.4747,2.4045,2.2766,2.12,2.1269,2.0538,1.9404,0.0,0.0,0.0,0.0,0.0,0.0,0.0,0.0,0.0,0.0,0.0,0.0,0.0,0.0,0.0,0.0,0.0,0.0,0.0,0.0,0.0,0.0,0.0,0.0,0.0,0.0,0.0,0.0,0.0,0.0,0.0,0.0,0.0,0.0,2.6629,2.7612,2.874,2.8868,2.9327,3.0443,3.0579,3.0888,3.1635,3.1667,3.2029,3.2886,3.2856,3.299,3.3455,3.3362,3.345,3.3673,3.3752,3.3887,3.4111,3.4175,3.4237,3.4237,3.4043,3.3938,3.3923,3.3697,3.3607,3.3668,3.3728,3.298,3.1736,3.1486,3.1083,3.0658,3.0317,3.0154,3.0029,0.0,0.0,0.0,0.0,0.0,0.0,1.1335,1.1922,1.2536,1.3151,1.4216,1.4967,1.5111,1.612,1.6877,1.7027,1.8119,1.8891,1.91,1.968,2.0176,2.0463,2.1865,2.2907,2.3512,2.4384,2.4902,2.5053,2.5222,2.5357,2.553,2.5663,2.5781,2.5913,2.6046,2.6153,2.6268,2.6381,2.492,2.253,2.2689,2.1916,2.0676,0.0,0.0,0.0,0.0,0.0,0.0,0.0,0.0,0.0,0.0,0.0,0.0,0.0,0.0,0.0,0.0,0.0,0.0,0.0,0.0,0.0,0.0,0.0,0.0,0.0,0.0,0.0,0.0,0.0,0.0,0.0,0.0,0.0,2.8301,2.8281,2.8707,2.9917,3.0069,3.0504,3.1635,3.1742,3.2167,3.3164,3.3237,3.3204,3.3092,3.3122,3.3136,3.3136,3.3136,3.3431,3.4083,3.4097,3.4375,3.496,3.496,3.496,3.4931,3.4345,3.4083,3.4024,3.3372,3.314,3.3252,3.3452,3.3606,3.3592,3.2572,3.136,3.0243,3.0343,3.035,3.0319,0.0,0.0,0.0,0.0,0.0,0.0,1.1978,1.2315,1.28,1.3794,1.4624,1.5306,1.5766,1.6501,1.7144,1.7597,1.8433,1.8996,1.91,2.0168,2.1253,2.2311,2.2937,2.3564,2.4222,2.5073,2.5789,2.6308,2.6875,2.7486,2.8089,2.8221,2.8368,2.855,2.8182,2.7824,2.7476,2.7131,2.6335,2.5228,2.4348,2.3261,2.2075,0.0,0.0,0.0,0.0,0.0,0.0,0.0,0.0,0.0,0.0,0.0,0.0,0.0,0.0,0.0,0.0,0.0,0.0,0.0,0.0,0.0,0.0,0.0,0.0,0.0,0.0,0.0,0.0,0.0,0.0,0.0,2.7655,2.8088,2.8088,2.889,2.9921,3.1102,3.1225,3.1638,3.2676,3.278,3.3061,3.3733,3.4189,3.4628,3.5082,3.5505,3.577,3.577,3.577,3.5844,3.6021,3.6036,3.6109,3.6286,3.6286,3.6286,3.6286,3.6109,3.577,3.5362,3.5185,3.4865,3.4422,3.4487,3.4285,3.3877,3.3547,3.3179,3.2815,3.2416,3.1652,3.0815,0.0,0.0,0.0,0.0,0.0,0.0,1.2319,1.2509,1.2957,1.4089,1.5016,1.5711,1.6059,1.6889,1.7567,1.7908,1.8851,1.9452,1.9558,2.1044,2.2282,2.3069,2.3865,2.4469,2.4855,2.6012,2.6794,2.7186,2.7931,2.8607,2.9098,2.925,2.9401,2.9592,2.9335,2.8923,2.8399,2.8152,2.7578,2.6757,2.6,2.4797,2.3385,2.2736,2.2099,2.1415,2.0491,1.9878,1.9404,1.8484,0.0,0.0,0.0,0.0,0.0,0.0,0.0,0.0,0.0,0.0,0.0,0.0,0.0,0.0,0.0,0.0,0.0,0.0,0.0,0.0,0.0,0.0,0.0,0.0,2.8894,2.9543,2.9463,3.0181,3.1119,3.2197,3.2332,3.2751,3.3826,3.3928,3.4248,3.5026,3.5404,3.5751,3.6049,3.6415,3.6585,3.6585,3.6585,3.6585,3.6585,3.6585,3.6585,3.6585,3.6585,3.6585,3.6585,3.6585,3.6415,3.6064,3.6064,3.5697,3.5097,3.5165,3.485,3.425,0.0,0.0,0.0,0.0,3.2496,3.1852,0.0,0.0,0.0,0.0,0.0,0.0,1.2334,1.258,1.3003,1.4088,1.5267,1.6055,1.6123,1.7197,1.794,1.8008,1.9238,2.0154,2.041,2.2095,2.315,2.3234,2.4628,2.544,2.5538,2.6953,2.7739,2.7811,2.8604,2.9107,2.9333,2.9444,2.9625,2.9831,2.9865,2.9607,2.9087,2.9149,2.8511,2.748,2.7426,2.6277,2.4544,2.3931,2.33,2.2552,2.1266,2.0785,2.0518,1.9311,0.0,0.0,0.0,0.0,0.0,0.0,0.0,0.0,0.0,0.0,0.0,0.0,0.0,0.0,0.0,0.0,0.0,0.0,0.0,0.0,0.0,0.0,0.0,0.0,3.0129,3.1685,3.1705,3.1852,3.2317,3.3224,3.337,3.3809,3.4887,3.5045,3.5492,3.6476,3.6652,3.661,3.6417,3.6489,0.0,0.0,0.0,3.6497,3.6497,3.6447,3.6447,3.6447,3.6447,3.6447,3.6447,3.6447,3.6418,3.6345,3.6381,3.6019,3.5473,3.5618,3.5322,3.4742,3.428,3.3682,3.3107,3.3107,3.3063,3.3004,0.0,0.0,0.0,0.0,0.0,0.0,1.1851,1.2375,1.2926,1.3638,1.4776,1.574,1.6284,1.7005,1.7625,1.8108,1.9377,2.0634,2.174,2.262,2.3385,2.4031,2.4921,2.5678,2.627,2.7223,2.7956,2.8507,2.9159,2.9886,3.0704,3.0733,3.0907,3.1107,3.0582,3.0093,2.961,2.9208,2.8661,2.8005,2.7564,2.6555,2.5242,2.458,2.3942,2.3285,2.2508,2.1869,2.1278,2.0452,1.9796,1.9249,1.8717,1.8546,0.0,0.0,0.0,0.0,0.0,0.0,0.0,0.0,0.0,0.0,0.0,0.0,0.0,0.0,0.0,0.0,0.0,0.0,0.0,2.9889,3.0921,3.1869,3.2734,3.3359,3.3791,3.3981,3.4357,3.4828,3.5409,3.5946,3.6301,3.6357,3.6845,3.715,3.7114,3.7578,3.7839,3.7839,3.7667,3.7607,3.7607,3.7442,3.7329,3.7329,3.7329,0.0,3.7329,3.7329,3.7094,3.6607,3.6806,3.6468,3.5899,3.6077,3.5819,3.5228,3.4875,3.436,3.3817,3.3817,3.3446,3.3004,0.0,0.0,0.0,0.0,0.0,0.0,1.1775,1.2359,1.2955,1.3531,1.4646,1.5655,1.6324,1.6969,1.7588,1.8198,1.9496,2.0848,2.2123,2.3128,2.3879,2.428,2.5354,2.6115,2.651,2.7612,2.8361,2.8709,2.9697,3.0514,3.1117,3.1161,3.1292,3.1496,3.1137,3.0548,2.9795,2.958,2.8992,2.818,2.7979,2.7311,2.6346,2.5311,2.4714,2.4307,2.3359,2.2788,2.2338,2.1381,2.0822,2.0434,1.9731,1.9497,1.9419,0.0,0.0,0.0,0.0,0.0,0.0,0.0,0.0,0.0,0.0,0.0,0.0,0.0,0.0,2.7282,2.8233,0.0,2.9582,3.0906,3.1795,3.266,3.3565,3.4398,3.4905,3.4905,3.51,3.5551,3.637,3.6764,3.7048,3.723,3.7564,3.7752,3.7752,3.793,3.8066,3.8066,3.7853,3.7739,3.7739,3.7663,3.7625,3.7625,3.7625,3.7625,3.7625,3.7625,3.7453,3.7153,3.7266,3.6946,3.6329,3.6086,3.5654,3.5099,3.4906,3.4588,3.42,3.42,3.3995,3.3685,0.0,0.0,0.0,0.0,0.0,0.0,1.1735,1.2297,1.2886,1.3412,1.4434,1.5419,1.6184,1.6866,1.7604,1.8489,1.9691,2.0893,2.2001,2.3376,2.4216,2.4369,2.5644,2.6395,2.6537,2.7842,2.8565,2.8709,2.9988,3.0793,3.1117,3.1234,3.1305,3.1316,3.1316,3.0668,2.9576,2.9732,2.9164,2.8186,2.8323,2.7996,2.7257,2.601,2.5419,2.5149,2.3999,2.3478,2.3235,2.226,2.1843,2.161,2.0879,2.0738,2.0724,2.004,2.032,0.0,0.0,0.0,0.0,0.0,0.0,0.0,0.0,2.4582,2.5148,2.6812,2.7608,2.8228,2.8985,2.9991,3.0898,3.1512,3.263,3.3563,3.4034,3.4953,3.5614,3.5746,3.5842,3.6304,3.7201,3.7418,3.768,3.8159,3.8202,3.8223,3.8301,3.8178,3.8136,3.8227,3.7906,3.7719,3.7719,3.7567,3.7457,3.7457,3.7457,3.7457,3.7457,3.7457,3.7457,3.7495,3.7495,3.7301,3.681,3.6159,3.5603,3.5118,3.4889,3.4686,3.4452,3.437,3.4312,3.4312,0.0,0.0,0.0,0.0,0.0,0.0,0.0,0.0,1.2465,1.2995,1.3699,1.4572,1.566,1.6379,1.75,1.9298,2.009,2.0812,2.1617,2.2874,2.3917,2.4628,2.5319,2.6044,2.6765,2.7449,2.8115,2.8709,2.9564,3.0397,3.1117,3.1234,3.1052,3.0612,3.0612,2.9909,2.8738,2.8999,2.8688,2.8029,2.8314,2.7996,2.7319,2.6549,2.5872,2.5189,2.4456,2.383,2.3291,2.3172,2.2709,2.2093,2.1414,2.1615,2.1969,2.1309,2.1568,2.2077,2.2,2.2002,2.2317,2.3508,2.38,2.4149,0.0,2.6259,2.6873,2.7569,2.8238,2.9015,3.0113,3.0911,3.1542,3.2035,3.3238,3.4019,3.3771,3.4819,3.5755,3.6162,3.6758,3.7143,3.7288,3.7781,3.813,3.8202,3.8202,3.8373,3.8731,3.8721,3.8892,3.9296,3.8541,3.8125,3.8125,3.7416,3.707,3.707,3.707,3.707,3.707,3.707,3.707,3.707,3.7264,3.739,3.7468,3.6839,3.6539,3.6368,3.5218,3.4782,3.4689,3.4166,3.3965,3.3965,0.0,0.0,0.0,0.0,0.0,0.0,0.0,0.0,1.2416,1.3031,1.3671,1.4524,1.5728,1.6795,1.7859,1.9029,1.9689,2.0492,2.1533,2.2552,2.3396,2.4101,2.5131,2.5872,2.6224,2.7173,2.7881,2.8238,2.9034,2.9644,3.0051,3.022,3.0182,2.9968,2.9968,2.946,2.8633,2.8878,2.8627,2.7999,2.7861,2.7642,2.7272,2.618,2.5558,2.5204,2.4548,2.4133,0.0,2.3425,2.3102,2.2748,2.2089,2.2017,2.2129,2.1838,2.1938,2.2205,2.2603,2.294,2.3431,2.4346,2.4871,2.5394,2.6263,2.6687,2.7137,2.8066,2.8801,2.951,3.0342,3.1289,3.2095,3.2673,3.3406,3.4115,3.4731,3.5487,3.6212,3.6809,3.7447,3.7825,3.7825,3.8057,3.8362,3.8754,3.8639,3.8799,3.9369,3.9175,3.9105,3.9309,3.8851,3.8629,3.8629,3.7875,3.7512,3.7512,3.7161,3.6978,3.6978,3.6978,3.6978,3.6978,3.7109,3.7187,3.7236,3.6981,3.667,3.6288,3.5764,3.5091,3.442,3.4055,3.3896,3.3896,0.0,0.0,0.0,0.0,0.0,0.0,0.0,0.0,0.0,0.0,1.3497,1.4427,1.5841,1.6813,1.7698,1.8517,1.9146,1.9981,2.1105,2.2061,2.2841,2.3447,2.4626,2.5454,2.5854,2.6759,2.7467,2.7964,2.8596,2.9045,2.9305,2.9525,2.9517,2.931,2.931,2.8936,2.8334,2.8409,2.8171,2.7686,2.7302,2.6995,2.6718,2.5681,2.5189,2.4958,2.4466,2.4302,2.422,2.3728,2.3554,2.3431,2.2735,2.255,2.2578,2.2396,2.2569,2.292,2.3364,2.3979,2.4638,2.5274,2.5818,2.6316,2.6892,2.7169,2.7585,2.8663,2.9385,3.0028,3.0672,3.1722,3.2613,3.3056,3.3618,3.4303,3.5156,3.5848,3.6489,3.6983,3.7723,3.8202,3.8202,3.8202,3.8478,3.9146,3.8967,3.9143,3.9912,3.9646,3.9486,3.9615,3.9295,3.9169,3.9169,3.8313,3.7906,3.7892,3.7274,3.6978,3.6978,3.6978,3.6978,3.6978,3.6978,3.6978,3.6978,3.6978,3.6764,3.6342,3.6174,3.5433,3.4436,3.4087,3.3866,3.3709,0.0,0.0,0.0,0.0,0.0,0.0,0.0,0.0,0.0,0.0,0.0,1.3998,1.58,1.6043,1.6592,1.791,1.8633,1.9334,2.0097,2.1322,2.2287,2.2888,2.3601,2.4602,2.5965,2.6038,2.6718,2.8086,2.8302,2.8723,2.9305,2.9525,2.9235,2.8622,2.8622,2.8248,2.761,2.7216,2.704,2.6988,2.6596,2.5995,2.5358,2.5312,2.4896,2.4333,2.4317,2.4302,2.4297,2.4198,2.4156,2.4028,2.3239,2.3426,2.3806,2.3168,2.3897,2.4893,2.4784,2.5221,2.5883,2.6426,2.6566,2.6761,2.742,2.8079,2.8727,2.9442,3.0043,3.0687,3.1346,3.2392,3.3146,3.3035,3.3932,3.4616,3.4477,3.5517,3.6315,3.6344,3.7447,3.8202,3.8202,3.8202,3.8478,3.9146,3.8967,3.9251,4.0324,4.0204,4.0237,4.0617,4.0069,3.9746,3.9746,3.8524,3.7906,3.7892,3.7274,3.6978,3.6978,3.6978,3.6978,3.6978,3.6978,3.6978,3.6978,3.6978,3.6978,3.6894,3.6342,3.57,3.5096,3.445,3.3831,3.3326,0.0,0.0,0.0,0.0,0.0,0.0,0.0,0.0,0.0,0.0,0.0,0.0,0.0,0.0,0.0,0.0,1.7975,1.8899,1.9595,2.0445,2.1419,2.2468,2.3142,2.3913,2.4787,2.5242,2.5742,2.6317,2.6382,2.6574,2.6847,2.6921,2.6826,2.6617,2.6617,2.6546,2.6417,2.6356,2.6405,2.6413,2.5898,2.5533,2.525,2.4825,2.4225,2.364,0.0,2.3866,2.4229,2.4208,2.4145,2.4015,2.3745,2.3758,2.3885,2.4025,2.4394,2.4807,2.5212,2.5811,2.6366,2.6551,2.6941,2.733,2.754,2.8113,2.8786,2.9472,3.0073,3.0688,3.1261,3.1946,3.2488,3.2773,3.3419,3.4195,3.4956,3.5778,3.6475,3.6925,3.7709,3.8202,3.8202,3.8202,3.8638,3.9712,3.9459,3.9779,4.0996,4.0689,4.0576,4.0688,4.0491,4.0393,4.0393,3.9564,3.8945,3.8538,3.7484,3.6978,3.6978,3.6978,3.6978,3.6978,3.6978,3.6978,3.6978,3.6978,3.6978,3.6964,3.6768,3.6342,3.57,3.5068,3.445,3.3838,0.0,0.0,0.0,0.0,0.0,0.0,0.0,0.0,0.0,0.0,0.0,0.0,0.0,0.0,0.0,0.0,0.0,1.8099,1.8982,1.9664,2.0504,2.1565,2.2237,2.301,2.3925,2.4368,2.4881,2.5482,2.5482,2.5529,2.5615,2.5615,2.5615,2.5615,2.5661,2.5708,2.5801,2.5713,2.5582,2.5411,2.4829,2.4441,2.4179,2.3748,2.3317,0.0,2.2865,2.3096,2.3453,2.364,2.3639,2.3601,2.3785,2.3797,2.3831,2.4433,2.4769,2.5098,2.5779,2.6437,2.6971,2.6971,2.7285,2.76,2.76,2.8113,2.8786,2.9472,3.0073,3.0688,3.1246,3.1723,3.2191,3.2729,3.3197,3.3867,3.4913,3.5764,3.646,3.6896,3.7694,3.8202,3.8202,3.8202,3.8725,4.0002,3.9776,4.0108,4.1324,4.1029,4.0773,4.0702,4.0702,4.0702,4.0702,4.0083,3.9367,3.851,3.747,3.6978,3.6978,3.6978,3.6978,3.6978,3.6978,3.6978,3.6978,3.6978,3.6978,3.6978,3.6978,3.6652,3.6061,3.5653,3.4955,3.4104,0.0,0.0,0.0,0.0,0.0,0.0,0.0,0.0,0.0,0.0,0.0,0.0,0.0,0.0,0.0,0.0,0.0,0.0,1.8219,1.8941,1.9619,2.0336,2.0917,2.1922,2.339,2.3405,2.406,2.5405,2.5405,2.5405,2.5405,2.5405,2.5405,2.5405,2.5536,2.562,2.5583,2.5141,2.4573,2.3952,2.3462,2.2855,2.2305,2.2305,2.2289,2.224,2.2175,2.203,2.1974,2.2556,2.2772,2.2902,2.3443,2.3595,2.3744,2.444,2.5098,2.5749,2.6452,2.7121,2.76,2.76,2.76,2.76,2.76,2.8113,2.8771,2.9427,3.0058,3.0702,3.1331,3.1723,3.2177,3.2825,3.3217,3.3678,3.4283,3.5459,3.6272,3.6301,3.7404,3.8173,3.8202,3.8202,3.8725,4.0002,3.9921,4.0256,4.1366,4.1142,4.093,4.073,4.0702,4.0702,4.0702,4.0055,3.9142,3.7934,3.7288,3.6978,3.6978,3.6978,3.6978,3.6978,3.6978,3.6978,3.6978,3.6978,3.6978,3.6978,3.6978,3.6666,3.6145,3.6117,3.5321,3.4161,0.0,0.0,0.0,0.0,0.0,0.0,0.0,0.0,0.0,0.0,0.0,0.0,0.0,0.0,0.0,0.0,0.0,0.0,1.711,1.7766,1.8661,1.9826,2.002,2.0755,2.2118,2.2148,2.2332,2.2697,2.2697,2.2697,2.2697,2.2765,2.277,2.277,2.2909,2.3011,2.3041,2.2919,2.283,2.274,2.2609,2.2459,2.2305,2.2305,2.1997,2.1532,2.1362,2.095,2.067,2.1706,2.235,2.2834,2.3422,2.3595,2.3834,2.5016,2.548,2.5854,2.7031,2.7465,2.76,2.76,2.76,2.76,2.76,2.8113,2.8652,2.8816,2.9729,3.0539,3.0592,3.0998,3.15,3.2025,3.2465,3.2977,3.3649,3.484,3.5778,3.6257,3.7041,3.7709,3.8159,3.8202,3.8725,4.0002,3.9921,4.0323,4.1561,4.1226,4.1001,4.093,4.0773,4.0702,4.0702,3.9634,3.8986,3.8649,3.7552,3.6978,3.6978,3.6978,3.6978,3.6978,3.6978,3.6978,3.6978,3.6978,3.6978,3.6978,3.6978,3.6894,3.6736,3.6286,3.5625,3.4829,0.0,0.0,0.0,0.0,0.0,0.0,0.0,0.0,0.0,0.0,0.0,0.0,0.0,0.0,0.0,0.0,0.0,0.0,0.0,1.7179,1.7857,1.8912,1.8957,1.9589,2.093,2.096,2.1246,2.1818,2.1818,2.1818,2.1818,2.1877,2.1881,2.1881,2.1998,2.206,2.2083,2.2156,2.2063,0.0,0.0,2.1689,2.1427,2.1427,2.118,2.0839,2.0624,2.0255,2.0032,2.0997,2.1914,2.2808,2.34,2.3595,2.3864,2.5211,2.5615,2.5899,2.724,2.76,2.76,2.76,2.76,2.76,2.76,2.7899,2.8233,2.8547,2.9175,2.9732,2.9948,3.0403,3.091,3.1485,3.1918,3.2538,3.3456,3.438,3.5285,3.6199,3.6896,3.7549,3.8144,3.8202,3.8623,3.9625,3.9841,4.0429,4.163,4.1437,4.1269,4.1184,4.093,4.0773,4.0702,3.9521,3.8902,3.8888,3.7597,3.6978,3.6978,3.6978,3.6978,3.6978,3.6978,3.6978,3.6978,3.6978,3.6978,3.6978,3.6978,3.6978,3.695,3.6638,3.6117,3.5498,0.0,0.0,0.0,0.0,0.0,0.0,0.0,0.0,0.0,0.0,1.2044,0.0,0.0,0.0,0.0,0.0,0.0,0.0,0.0,0.0,1.7076,1.7834,1.7865,1.8441,1.9717,1.9732,2.0294,2.1463,2.1554,2.1599,2.1599,2.1709,2.174,2.174,2.1839,2.1816,2.1739,2.1848,2.1519,2.0888,2.0888,2.0549,2.001,0.0,2.001,2.0008,1.9908,1.9808,1.9813,2.0483,2.153,2.2673,2.3302,2.3535,2.3864,2.5211,2.5615,2.5899,2.724,2.76,2.76,2.76,2.76,2.76,2.76,2.76,2.7764,2.8338,2.8532,2.8771,2.934,2.9831,3.0373,3.1056,3.1456,3.2125,3.3413,3.401,3.4782,3.606,3.6765,3.7418,3.8028,3.8159,3.8478,3.9146,3.9755,4.0546,4.1556,4.1686,4.1619,4.1396,4.1184,4.0972,4.0787,3.9562,3.8943,3.8929,3.7622,3.6978,3.6978,3.6978,3.6978,3.6978,3.6978,3.6978,3.6978,3.6978,3.6978,3.6978,3.6978,3.6978,3.6978,3.7017,3.6676,3.6057,0.0,0.0,0.0,0.0,0.0,0.0,0.0,0.0,0.0,0.0,1.2251,1.2262,0.0,0.0,0.0,0.0,0.0,0.0,0.0,0.0,0.0,1.7121,1.7167,1.7531,1.832,1.835,1.8456,1.8684,1.9262,1.952,1.9535,2.0137,2.0416,2.0416,2.0555,2.03,1.9777,1.9809,1.9392,1.8729,1.8729,1.8668,1.856,1.856,0.0,0.0,1.9023,1.9433,1.9867,2.0483,2.1231,2.1999,2.2658,2.3212,2.3864,2.5211,2.5615,2.5899,2.724,2.76,2.76,2.76,2.76,2.76,2.76,2.76,2.763,2.775,2.8203,2.8637,2.8742,2.9161,2.969,3.0358,3.0851,3.1602,3.2926,3.3533,3.4299,3.5585,3.6154,3.6736,3.7404,3.7912,3.8478,3.9146,3.9755,4.0437,4.1181,4.1497,4.1619,4.1396,4.1339,4.1297,4.1269,3.9852,3.9161,3.9147,3.7676,3.6978,3.6978,3.6978,3.6978,3.6978,3.6978,3.6978,3.6978,3.6978,3.6978,3.6978,3.6978,3.6978,3.7017,3.7187,3.6868,3.6283,0.0,0.0,0.0,0.0,0.0,0.0,0.0,1.2246,1.2463,1.2459,1.2459,1.2393,1.2266,1.252,1.2813,0.0,0.0,0.0,0.0,0.0,0.0,1.6036,1.6402,1.6906,1.7578,1.7593,1.7761,1.8113,0.0,1.857,1.8601,1.894,1.9109,1.911,1.9175,1.9038,1.8731,1.8731,1.853,1.8191,1.8191,1.8191,1.8191,1.8191,0.0,0.0,1.8828,1.9152,1.9374,2.0014,2.0651,2.1365,2.2388,2.3122,2.3789,2.4784,2.5322,2.5824,2.6821,2.733,2.76,2.76,2.76,2.76,2.76,2.76,2.76,2.76,2.7869,2.8094,2.8094,2.8554,2.9173,2.9829,3.0328,3.1087,3.2403,3.3017,3.3803,3.5096,3.6034,3.6827,3.7339,3.8002,3.846,3.8652,3.9276,4.006,4.1047,4.1618,4.1814,4.1535,4.1549,4.1507,4.1396,4.0057,3.9335,3.9321,3.7976,3.7303,3.7303,3.7303,3.7303,3.7303,3.7303,3.7303,3.7303,3.7303,3.7303,3.7303,3.7303,3.7303,3.7303,3.7419,3.7272,3.6968,0.0,0.0,0.0,0.0,0.0,0.0,0.0,1.2173,1.2591,1.2603,1.2593,1.2528,1.2383,1.2343,1.2531,0.0,0.0,0.0,0.0,0.0,0.0,0.0,0.0,0.0,1.6805,0.0,0.0,1.7807,1.7946,0.0,0.0,0.0,0.0,0.0,1.8191,1.8115,1.7992,1.7992,1.79,0.0,0.0,1.7777,1.7777,0.0,0.0,0.0,0.0,1.8762,1.8927,1.9421,2.0089,2.0882,2.1934,2.2793,2.3565,2.4365,2.4963,2.5516,2.6198,2.6752,2.718,2.718,2.718,2.718,2.718,2.718,2.718,2.718,2.718,2.7225,2.736,2.7814,2.8427,2.9235,2.9826,3.0578,3.1857,3.2611,3.3463,3.4614,3.6011,3.7031,3.7352,3.8099,3.8516,3.8352,3.8888,3.9794,4.1033,4.1729,4.1995,4.1785,4.18,4.1645,4.1321,4.0149,3.9505,3.9347,3.8153,3.7625,3.7625,3.7625,3.7625,3.7625,3.7625,3.7625,3.7625,3.7625,3.7625,3.7625,3.7625,3.7625,3.7625,3.7663,3.7663,3.7563,0.0,0.0,0.0,0.0,0.0,0.0,0.0,1.2173,1.26,1.26,1.26,1.2591,1.2581,1.2463,1.2394,0.0,0.0,0.0,0.0,0.0,0.0,0.0,0.0,0.0,0.0,0.0,0.0,1.6571,1.7107,0.0,0.0,0.0,0.0,0.0,0.0,1.7869,1.7285,1.7285,0.0,0.0,0.0,0.0,0.0,0.0,0.0,0.0,0.0,1.802,1.897,1.8912,1.9696,2.0718,2.0838,2.1754,2.3032,2.4231,2.4649,2.4844,2.5501,2.5749,2.5794,2.5794,2.5794,2.5794,2.5794,2.5794,2.5794,2.5794,2.5794,2.5974,2.6572,2.6737,2.72,2.8487,2.9235,3.0105,3.1377,3.2511,3.3459,3.4171,3.5832,3.689,3.6949,3.8053,3.8745,3.8745,3.9214,3.9935,4.1033,4.1729,4.2092,4.2051,4.2051,4.1761,4.1152,4.0242,3.9488,3.8952,3.803,3.7625,3.7625,3.7625,3.7625,3.7625,3.7625,3.7625,3.7625,3.7625,3.7625,3.7625,3.7625,3.7625,3.7625,3.7815,3.7853,3.7805,0.0,0.0,0.0,0.0,0.0,0.0,1.1019,1.2045,1.2754,1.2671,1.2662,1.2642,1.261,1.2552,1.2503,1.2479,0.0,0.0,0.0,0.0,0.0,0.0,0.0,0.0,0.0,0.0,1.5991,1.6412,1.6635,0.0,0.0,0.0,0.0,0.0,0.0,1.6954,1.6663,1.6663,0.0,0.0,0.0,0.0,0.0,0.0,0.0,0.0,0.0,0.0,1.7974,1.8717,1.9235,1.9699,2.0509,2.1105,2.1754,2.3071,2.4014,2.4664,2.4933,2.5277,2.5615,2.5615,2.5615,2.5615,2.5615,2.5615,2.5615,2.5615,2.5615,2.5809,2.6467,2.6587,2.7036,2.8382,2.9146,2.9894,3.0791,3.2333,3.3497,3.375,3.549,3.6758,3.699,3.7834,3.8493,3.8789,3.9341,3.9868,4.0266,4.0673,4.0902,4.0902,4.0902,4.0771,4.0495,3.9807,3.9334,3.9074,3.8332,3.7953,3.7953,3.7953,3.7953,3.7953,3.7953,3.7953,3.7953,3.7953,3.7953,3.7953,3.7953,3.7953,3.7991,3.8066,3.8066,3.806,0.0,0.0,0.0,0.0,0.0,1.0525,1.07,1.1801,1.2648,1.2753,1.2766,1.2738,1.2697,1.2678,1.2649,1.2626,1.2613,0.0,0.0,0.0,0.0,0.0,0.0,0.0,0.0,0.0,1.5694,1.6166,1.6343,1.6423,0.0,0.0,1.6412,1.6412,0.0,0.0,0.0,0.0,0.0,0.0,0.0,0.0,0.0,0.0,0.0,0.0,0.0,0.0,0.0,0.0,0.0,1.9019,1.9972,2.0508,2.1008,2.2094,2.3176,2.4044,2.4066,2.4567,2.5077,2.5122,2.5122,2.5122,2.5122,2.5122,2.5122,2.5122,2.5122,2.5341,2.6002,2.6288,2.6799,2.7931,2.8985,2.9826,3.0233,3.2152,3.3499,3.3499,3.5265,3.6698,3.7154,3.7952,3.8614,3.8877,3.935,3.9579,3.9504,3.9651,3.9906,4.0261,4.0222,4.0095,3.9906,3.9446,3.9102,3.8899,3.8434,3.8202,3.8202,3.8202,3.8202,3.8202,3.8202,3.8202,3.8202,3.8202,3.8202,3.8202,3.8277,3.8277,3.8277,3.8352,3.8389,3.8389,0.0,0.0,0.0,0.0,0.0,0.0,1.0687,1.1425,1.2146,1.2817,1.2904,1.2901,1.2901,1.2839,1.2766,1.2703,1.2633,0.0,0.0,0.0,0.0,0.0,0.0,0.0,0.0,0.0,1.5608,1.5608,1.621,1.6501,1.6501,1.6423,1.6412,1.6412,0.0,0.0,0.0,0.0,0.0,0.0,0.0,0.0,1.6194,0.0,0.0,0.0,0.0,0.0,0.0,0.0,0.0,0.0,0.0,1.9929,2.1091,2.1559,2.2194,2.2724,2.2791,2.3314,2.3855,2.3976,2.4019,2.4019,2.4019,2.4019,2.4019,2.4019,2.4019,2.4231,2.49,2.5568,2.6237,2.6903,2.8565,2.9783,2.9798,3.1941,3.3499,3.3499,3.5265,3.6731,3.7345,3.8581,3.9301,3.9104,3.9104,3.9031,3.8833,3.8797,3.9401,4.0636,4.051,4.0125,3.9496,3.9304,3.887,3.8217,3.8202,3.8202,3.8202,3.8202,3.8202,3.8202,3.8202,3.8202,3.8202,3.8202,3.8202,3.8202,3.8404,3.8478,3.8516,3.8723,3.8782,3.8782,0.0,0.0,0.0,0.0,0.0,0.0,0.0,1.1424,1.2139,1.28,1.2906,1.2896,1.2896,1.2885,1.2857,1.2839,1.2728,0.0,0.0,0.0,0.0,0.0,0.0,0.0,0.0,1.4003,1.4678,1.5592,1.5789,1.6123,1.6567,1.6543,1.6543,1.6543,1.6543,1.6517,0.0,0.0,0.0,0.0,0.0,1.4912,1.4949,0.0,0.0,0.0,0.0,0.0,0.0,0.0,0.0,0.0,0.0,0.0,0.0,1.9811,2.099,2.2233,2.2253,2.2743,2.3258,2.3299,2.3669,2.4003,2.4003,2.4003,2.4003,2.4003,2.4003,2.4201,2.4884,2.5553,2.6221,2.6873,2.8652,2.9928,2.9928,3.1792,3.332,3.3774,3.5914,3.7346,3.7389,3.8631,3.9373,3.9301,3.9301,3.9265,3.9228,3.9228,3.9261,3.9401,3.9326,3.9223,3.9032,3.8958,3.8818,3.8598,3.8598,3.8598,3.8598,3.8598,3.8598,3.8598,3.8598,3.8598,3.8598,3.8598,3.8598,3.8612,3.8686,3.8723,3.8723,3.8797,3.8782,3.8782,0.0,0.0,0.0,0.0,0.0,0.0,0.0,1.1076,1.1769,1.246,1.2771,1.2942,1.2942,1.2922,1.2894,1.2901,1.2829,0.0,0.0,0.0,0.0,0.0,0.0,0.0,1.3208,1.3499,1.4163,1.5269,1.5514,1.5994,1.6678,1.6623,1.661,1.661,1.661,1.6439,0.0,0.0,0.0,0.0,1.4385,1.4365,1.4376,0.0,0.0,0.0,0.0,0.0,0.0,0.0,0.0,0.0,0.0,0.0,0.0,0.0,2.0006,2.1072,2.1553,2.2143,2.2681,2.272,2.3224,2.3727,2.3727,2.3926,2.4109,2.4109,2.4109,2.4231,2.4658,2.5482,2.626,2.6703,2.8621,3.0072,3.0072,3.1751,3.3332,3.4273,3.6408,3.7756,3.7639,3.8843,3.964,3.964,3.964,3.9604,3.9517,3.9517,3.9358,3.9031,3.8943,3.8907,3.8907,3.8819,3.8782,3.8782,3.8782,3.8782,3.8782,3.8782,3.8782,3.8782,3.8782,3.8782,0.0,3.8782,3.8782,3.8819,3.887,3.8907,3.8907,3.898,3.9017,3.9017,0.0,0.0,0.0,0.0,0.0,0.0,0.0,1.0423,1.1105,1.1893,1.2545,1.2947,1.2997,1.2951,1.2906,1.2911,0.0,0.0,0.0,0.0,0.0,0.0,0.0,0.0,1.261,1.3269,1.3983,1.4703,1.5316,1.6024,1.6798,1.6691,1.6623,1.661,1.661,1.6212,1.5482,0.0,0.0,0.0,1.4346,1.4315,0.0,0.0,0.0,0.0,0.0,0.0,0.0,0.0,0.0,0.0,0.0,0.0,0.0,0.0,0.0,0.0,0.0,2.1522,2.206,2.219,2.2763,2.3302,2.3302,2.3825,0.0,2.4302,2.4302,2.4317,2.4364,2.5419,2.6327,2.6441,2.8575,3.0215,3.0215,3.1866,3.3589,3.485,3.6765,3.7962,3.8007,3.9176,3.995,4.0011,4.0011,3.9925,3.9732,3.9732,3.9625,3.946,3.925,3.9141,3.9104,3.8943,3.8819,3.8819,3.8819,3.8819,3.8819,3.8819,3.8819,3.8819,3.8819,3.8819,3.8819,3.8819,3.887,3.8892,3.9053,3.9141,3.9177,3.9373,3.946,3.946,0.0,0.0,0.0,0.0,0.0,0.0,0.0,0.0,0.0,0.0,1.2149,1.2455,1.3009,1.3022,1.2986,0.0,0.0,0.0,0.0,0.0,0.0,0.0,0.0,0.0,1.2681,1.2851,1.3512,1.4703,1.4868,1.5603,1.6879,1.6853,1.6798,1.6743,1.6743,1.6038,1.4802,1.4063,0.0,0.0,1.2916,1.2885,0.0,0.0,0.0,0.0,1.429,1.4841,0.0,0.0,0.0,0.0,0.0,0.0,0.0,0.0,1.8854,1.9472,2.027,0.0,2.1498,2.1535,2.2409,2.3302,0.0,2.3825,2.4302,2.4302,2.4302,2.4471,2.4958,2.578,2.6549,2.7072,2.8972,3.0334,3.0334,3.253,3.4389,3.508,3.6484,3.7547,3.7962,3.8766,3.9464,3.9965,4.0011,3.996,3.9925,3.9925,3.9889,3.9854,3.9818,3.964,3.9337,3.9265,3.9265,3.9265,3.9265,3.9265,3.9265,3.9265,3.9265,3.9265,3.9265,3.9265,3.9265,3.9265,3.9358,3.9502,3.9538,3.9661,3.9783,3.9854,3.9854,3.9854,0.0,0.0,0.0,0.0,0.0,0.0,0.0,0.0,0.0,0.0,0.0,1.2158,1.2555,1.286,0.0,0.0,0.0,0.0,0.0,0.0,0.0,0.0,0.0,1.2776,1.2747,1.2747,1.3422,1.4786,1.4764,1.549,1.6946,1.6905,1.6879,1.6821,1.6141,1.5388,1.4579,1.35,1.283,1.2505,1.2459,0.0,0.0,0.0,0.0,0.0,1.3608,1.4066,0.0,1.5092,1.5531,1.5887,0.0,0.0,0.0,0.0,1.8362,1.9075,1.9741,2.0404,2.0895,2.0895,2.1951,2.2995,2.2995,2.3734,2.4426,2.4426,2.4426,2.4663,2.5344,2.6063,2.676,2.7419,2.9246,3.0892,3.1782,3.3409,3.4722,3.5262,3.6536,3.756,3.8165,3.8837,3.9509,4.0181,4.0226,4.0207,4.0137,4.0137,4.0101,4.0011,4.0011,3.9889,3.9676,3.9676,3.9676,3.9676,3.9676,3.9676,3.9676,3.9676,3.9676,3.9676,3.9676,3.9676,3.9676,3.9676,3.9747,3.9839,3.9839,3.9889,4.0011,4.0011,4.0011,4.0011,0.0,0.0,0.0,0.0,0.0,0.0,0.0,0.0,0.0,0.0,0.0,0.0,0.0,0.0,0.0,0.0,0.0,0.0,0.0,0.0,0.0,0.0,1.2811,1.2811,1.2811,1.2811,1.3488,1.4907,1.4847,1.5565,1.701,1.6959,1.6853,1.6696,1.5304,1.4642,1.4467,1.3093,1.2524,1.2524,1.2524,0.0,0.0,0.0,0.0,0.0,0.0,0.0,0.0,1.4682,1.5224,1.5505,1.6069,0.0,0.0,0.0,0.0,0.0,1.9311,1.9963,2.044,2.0423,2.1519,2.2605,2.2605,2.3647,2.4609,2.4609,2.4703,2.5004,2.5712,2.6398,2.711,2.789,2.9668,3.1654,3.3616,3.4264,3.4841,3.5643,3.6739,3.7725,3.8496,3.9082,3.976,4.0547,4.0558,4.0505,4.0366,4.0347,4.0242,4.0066,4.0066,4.0066,4.0066,4.0031,4.0011,4.0011,4.0011,4.0011,4.0011,4.0011,4.0011,4.0011,4.0011,4.0011,4.0011,4.0011,4.0011,4.0046,4.0046,4.0066,4.0066,4.0066,4.0066,4.0066,0.0,0.0,0.0,0.0,0.0,0.0,0.0,0.0,0.0,0.0,0.0,0.0,0.0,0.0,0.0,0.0,0.0,0.0,0.0,0.0,0.0,1.2892,1.2829,1.2811,1.2811,1.2811,1.3488,1.4907,1.488,1.5635,1.7083,1.707,1.6722,1.6004,1.511,1.4372,1.3797,1.2951,1.2577,1.2574,1.2574,0.0,0.0,0.0,0.0,0.0,0.0,0.0,0.0,1.3575,1.4405,1.5411,1.552,0.0,0.0,0.0,0.0,0.0,1.9311,2.0062,2.0626,2.051,2.1555,2.2605,2.2605,2.3647,2.4609,2.4609,2.5098,2.5743,2.643,2.7094,2.7968,2.9271,3.0697,3.2355,3.4428,3.4789,3.5334,3.6627,3.6939,3.7546,3.879,3.9008,3.96,4.0907,4.0848,4.073,4.073,4.0558,4.047,4.0436,4.0436,4.0436,4.0436,4.0137,4.0011,4.0011,4.0011,4.0011,4.0011,4.0011,4.0011,4.0011,4.0011,4.0011,4.0011,4.0011,4.0101,4.0242,4.0242,4.0331,4.0436,4.0436,4.0436,4.0455,0.0,0.0,0.0,0.0,0.0,0.0,0.0,0.0,0.0,0.0,0.0,0.0,0.0,0.0,0.0,0.0,0.0,0.0,0.0,0.0,1.2948,1.2901,1.2874,1.2839,1.2811,1.2811,1.3488,1.4907,1.4907,1.5646,1.7095,1.7095,1.6694,1.5918,1.5108,1.4379,1.3694,1.2933,1.2591,1.2597,0.0,0.0,0.0,0.0,0.0,0.0,0.0,0.0,0.0,0.0,1.4099,1.5037,1.5383,0.0,0.0,0.0,0.0,0.0,1.8982,1.9877,2.0838,2.1165,2.2014,2.2847,2.3224,2.4088,2.4921,2.5277,2.5628,2.6193,2.7262,2.7994,2.9053,3.0869,3.1569,3.2629,3.471,3.4951,3.5424,3.6843,3.7015,3.7358,3.8356,3.8793,3.9433,4.0413,4.0782,4.095,4.095,4.0882,4.0814,4.0814,4.0814,4.0814,4.0814,4.0658,4.0486,4.0261,4.0261,4.0261,4.0261,4.0366,4.0436,4.0436,4.0555,4.0589,4.0589,4.0589,4.0658,4.0727,4.0727,4.0761,4.0814,4.0814,4.0814,4.0768,0.0,0.0,0.0,0.0,0.0,0.0,0.0,0.0,0.0,0.0,0.0,0.0,0.0,0.0,0.0,0.0,0.0,0.0,0.0,1.3013,1.2977,1.2929,1.2904,1.2867,1.2794,1.2811,1.3488,1.4907,1.4907,1.5646,1.7095,1.7095,1.6609,1.5711,1.51,1.4352,1.3531,1.2918,1.2649,1.2614,0.0,0.0,0.0,0.0,0.0,0.0,0.0,0.0,0.0,0.0,0.0,0.0,0.0,0.0,0.0,1.6546,1.7604,1.8708,1.8708,1.9735,2.1033,2.1935,2.2536,2.3088,2.3746,2.4586,2.5381,2.5923,2.6319,2.6873,2.7949,2.8932,3.0172,3.2007,3.2425,3.3165,3.4927,3.5222,3.5728,3.698,3.7136,3.7372,3.8044,3.8716,3.9389,4.0092,4.0763,4.1135,4.1135,4.1117,4.1117,4.1117,4.1117,4.1039,4.0852,4.0852,4.0761,4.0643,4.0643,4.0643,4.0643,4.0799,4.0882,4.0882,4.1034,4.1117,4.1117,4.1117,4.1117,4.1117,4.1117,4.1008,4.0803,4.068,4.0634,4.0589,0.0,0.0,0.0,0.0,0.0,0.0,0.0,0.0,0.0,0.0,0.0,0.0,0.0,0.0,0.0,0.0,0.0,0.0,0.0,1.3031,1.3004,1.2995,1.2933,1.2878,1.2794,1.2811,1.3488,1.4907,1.4907,1.5646,1.7095,1.7095,1.6338,1.4972,1.4923,1.4141,1.2866,1.2808,1.2747,1.2684,1.2684,0.0,0.0,0.0,0.0,0.0,0.0,0.0,0.0,0.0,0.0,0.0,0.0,0.0,1.5785,1.642,1.7604,1.8708,1.8708,1.9766,2.1227,2.2579,2.2905,2.3088,2.3746,2.4946,2.5986,2.6157,2.7222,2.817,2.8265,2.9808,3.1334,3.2165,3.3324,3.4431,3.5268,3.5919,3.6569,3.7356,3.745,3.7719,3.8383,3.9077,3.9771,4.0513,4.1012,4.129,4.129,4.1153,4.1117,4.1117,4.1117,4.0756,4.0086,4.007,4.0413,4.1049,4.1049,4.1049,4.1049,4.1068,4.1083,4.1083,4.1083,4.1117,4.1117,4.1117,4.1117,4.1117,4.1117,4.0663,3.9992,3.9386,3.9279,3.9423,0.0,0.0,0.0,0.0,0.0,0.0,0.0,0.0,0.0,0.0,0.0,0.0,0.0,0.0,0.0,0.0,0.0,0.0,0.0,1.281,1.304,1.3004,1.297,1.2933,1.2869,1.2869,1.3349,1.4343,1.5266,1.6229,1.722,1.722,1.6436,1.5011,1.4978,1.4182,1.2857,1.282,1.2801,1.2757,1.2757,1.2747,0.0,0.0,0.0,0.0,0.0,0.0,0.0,0.0,1.3059,1.3744,1.4444,1.5145,1.5862,1.6578,1.7789,1.8887,1.8887,1.9922,2.1358,2.278,2.3113,2.3381,2.4509,2.5512,2.6329,2.6833,2.7726,2.8834,3.0105,3.1326,3.2369,3.3071,3.3995,3.4856,3.5561,3.6262,3.6963,3.7679,3.7759,3.7841,3.8096,3.8778,3.9304,3.959,4.015,4.0468,4.0468,4.0452,4.0404,4.0404,4.0404,4.0262,3.9993,4.0008,4.0119,4.0404,4.0002,3.9807,3.9807,3.992,4.0001,4.0001,4.0067,4.0116,4.0116,4.0116,4.0116,4.0116,4.0244,4.0166,3.9977,3.9723,3.9659,3.9674,0.0,0.0,0.0,0.0,0.0,0.0,0.0,0.0,0.0,0.0,0.0,0.0,0.0,0.0,0.0,0.0,0.0,0.0,1.1959,1.2688,1.3084,1.3031,1.3031,1.3013,1.2961,1.2961,1.3303,1.4005,1.549,1.6457,1.6949,1.6949,1.6293,1.5086,1.4809,1.4021,1.2894,1.2841,1.2832,1.2832,1.2832,1.2822,0.0,0.0,0.0,0.0,0.0,0.0,0.0,0.0,1.2959,1.3509,1.442,1.5055,1.5635,1.662,1.7901,1.8991,1.8991,2.0206,2.176,2.2931,2.3431,2.3979,2.5426,2.6218,2.6867,2.7608,2.8527,2.9746,3.1638,3.2367,3.2919,3.3582,3.4494,3.5262,3.5758,3.6622,3.739,3.7841,3.7905,3.7905,3.7905,3.8574,3.899,3.899,3.9615,4.0015,4.0015,4.0015,4.0015,4.0015,4.0015,3.9903,3.9679,3.9679,3.9567,3.9344,3.8871,3.8874,3.933,3.9456,3.9519,3.9519,3.9628,3.9675,3.9675,3.9675,3.9675,3.9659,3.9576,3.9588,3.9663,3.9423,3.9344,3.928,0.0,0.0,0.0,0.0,0.0,0.0,0.0,0.0,0.0,0.0,0.0,0.0,0.0,0.0,0.0,0.0,0.0,0.0,1.1942,1.2688,1.3093,1.3093,1.3093,1.3093,1.3093,1.3093,1.3394,1.4005,1.5474,1.6179,1.6195,1.6195,1.5802,1.5053,1.4333,1.3586,1.2898,1.2898,1.2898,1.2898,1.2898,1.2896,1.2901,0.0,0.0,0.0,0.0,0.0,0.0,0.0,1.2662,1.285,1.426,1.4703,1.4991,1.646,1.7901,1.8991,1.8991,2.0621,2.2471,2.3114,2.3911,2.4889,2.6361,2.7074,2.764,2.8442,2.9752,3.1146,3.2538,3.2753,3.2919,3.3598,3.4894,3.5822,3.5822,3.7009,3.7889,3.7889,3.7889,3.7889,3.7889,3.8574,3.899,3.899,3.9599,3.9983,3.9983,3.9983,3.9983,3.9983,3.9983,3.9663,3.899,3.899,3.8638,3.7889,3.7889,3.864,3.9999,3.9999,3.9999,3.9999,3.9999,3.9999,3.9999,3.9999,3.9983,3.9919,3.9262,3.899,3.891,3.816,3.7905,3.7905,0.0,0.0,0.0,0.0,0.0,0.0,0.0,0.0,0.0,0.0,0.0,0.0,0.0,0.0,0.0,0.0,0.0,0.0,1.1213,1.2406,1.3093,1.3093,1.3093,1.3093,1.3093,1.3093,1.3448,1.4136,1.4582,1.5054,1.5571,1.5571,1.5164,1.445,1.4189,1.366,1.2961,1.2917,1.2898,1.2898,1.2898,1.2889,1.2896,0.0,0.0,0.0,0.0,0.0,0.0,0.0,0.0,0.0,1.4395,1.4847,1.5137,1.6612,1.8033,1.9131,1.9131,2.0712,2.2539,2.3267,2.3981,2.5001,2.696,2.7514,2.8102,2.9857,3.0955,3.1916,3.2854,3.3395,3.3919,3.4646,3.5539,3.6314,3.6798,3.7669,3.825,3.825,3.825,3.825,3.825,3.8443,3.8572,3.8572,3.8766,3.8879,3.8879,3.8879,3.8879,3.8879,3.8879,3.8782,3.8572,3.8572,3.8476,3.825,3.825,3.8361,3.8528,3.8528,3.8528,3.8528,3.8528,3.8528,3.8528,3.8528,3.8616,3.8717,3.8509,3.8486,3.854,3.833,3.8307,3.8391,0.0,0.0,0.0,0.0,0.0,0.0,0.0,0.0,0.0,0.0,0.8717,0.8699,0.0,0.0,0.0,0.0,0.0,0.0,0.0,1.229,1.3093,1.3093,1.3093,1.3093,1.3093,1.3093,1.3324,1.3755,1.4053,1.4427,1.4867,1.4867,1.4625,1.4185,1.3859,1.346,1.3031,1.3004,1.297,1.297,1.297,1.2961,1.2942,0.0,0.0,0.0,0.0,0.0,0.0,0.0,0.0,0.0,1.4539,1.4984,1.526,1.6747,1.8179,1.927,1.927,2.106,2.3029,2.3469,2.4315,2.5536,2.7387,2.8224,2.9145,3.1112,3.1843,3.2485,3.3478,3.3999,3.438,3.4861,3.5805,3.6592,3.6999,3.7926,3.8544,3.8544,3.8544,3.8544,3.8544,3.8544,3.8544,3.8544,3.8544,3.8544,3.8544,3.8544,3.8544,3.8544,3.8544,3.8544,3.8544,3.8544,3.8544,3.8544,3.8544,3.846,3.8262,3.8205,3.8193,3.8193,3.8234,3.8262,3.8262,3.8262,3.8319,3.8432,3.8432,3.8488,3.8544,3.8544,3.86,3.8683,0.0,0.0,0.0,0.0,0.0,0.0,0.0,0.0,0.0,0.0,0.8699,0.8699,0.0,0.0,0.0,0.0,0.0,0.0,0.0,1.229,1.3093,1.3093,1.3093,1.3093,1.3093,1.3093,1.3093,1.3093,1.3771,1.4102,1.4102,1.4102,1.4102,1.4079,1.3416,1.3102,1.3111,1.3111,1.3111,1.3111,1.3111,1.3067,1.3022,1.3022,0.0,0.0,0.0,0.0,0.0,0.0,0.0,0.0,1.4628,1.5103,1.5381,1.6867,1.831,1.9394,1.9394,2.1458,2.362,2.3686,2.4914,2.6421,2.7735,2.9058,3.0506,3.2073,3.2407,3.2833,3.4235,3.4497,3.4513,3.4595,3.5774,3.6734,3.6774,3.7953,3.8805,3.8805,3.8805,3.8805,3.8805,3.8805,3.8805,3.8805,3.8805,3.8805,3.8805,3.8805,3.8805,3.8805,3.8805,3.8805,3.8805,3.8805,3.8805,3.8805,3.8805,3.8805,3.8805,3.8655,3.8616,3.8616,3.8766,3.8805,3.8805,3.8805,3.8805,3.8805,3.8805,3.8805,3.8805,3.8805,3.8805,3.8832,0.0,0.0,0.0,0.0,0.0,0.0,0.0,0.0,0.0,0.0,0.0,0.0,0.0,0.0,0.0,0.0,0.0,0.0,0.0,1.229,1.3093,1.3093,1.3093,1.3093,1.3093,1.3093,1.3093,1.3093,1.3258,1.3341,1.3341,1.3341,1.3359,1.3421,1.3255,1.3181,1.3175,1.3175,1.3175,1.3175,1.3175,1.3173,1.3154,1.3154,1.3127,0.0,0.0,0.0,0.0,0.0,0.0,0.0,1.4628,1.5103,1.5381,1.6867,1.831,1.9394,1.9394,2.1081,2.2981,2.3571,2.5651,2.7653,2.8046,2.9284,3.0701,3.2095,3.2407,3.2833,3.4235,3.4497,3.4693,3.5267,3.6102,3.6872,3.7412,3.8248,3.8805,3.8805,3.8805,3.8805,3.8805,3.8805,3.8805,3.8805,3.8805,3.8805,3.8805,3.8805,3.8805,3.8805,3.8805,3.8805,3.8805,3.8805,3.8805,3.8805,3.8805,3.8805,3.8805,3.8777,3.8766,3.875,3.8777,3.8805,3.8805,3.8805,3.8805,3.8805,3.8805,3.8805,3.8805,3.8805,3.886,3.8969,0.0,0.0,0.0,0.0,0.0,0.0,0.0,0.0,0.0,0.0,0.0,0.0,0.0,0.0,0.0,0.0,0.0,0.0,0.0,0.0,1.3093,1.3093,1.3093,1.3093,1.3093,1.3136,1.3145,1.3145,1.3138,1.3138,1.3145,1.3147,1.3173,1.3191,1.3191,1.3192,1.321,1.321,1.321,1.321,1.321,1.32,1.3191,1.3191,1.3182,1.3156,1.3156,0.0,0.0,0.0,0.0,0.0,0.0,0.0,1.5495,1.6962,1.84,1.9506,1.9506,2.1087,2.2996,2.4116,2.6307,2.8204,2.8279,2.9422,3.0835,3.2259,3.2533,3.2978,3.4427,3.4691,3.4823,3.5202,3.5893,3.6618,3.7301,3.8041,3.8634,3.899,3.904,3.904,3.904,3.904,3.904,3.904,3.904,3.904,3.904,3.904,3.904,3.904,3.9094,3.9148,3.9148,3.9185,3.9239,3.9239,3.9239,3.9239,3.9212,3.8996,3.8942,3.904,3.904,3.9067,3.9148,3.9148,3.9175,3.9239,3.9239,3.9239,3.9239,3.9239,3.9265,3.9345,0.0,0.0,0.0,0.0,0.0,0.0,0.0,0.0,0.0,0.0,0.0,0.0,0.0,0.0,0.0,0.0,0.0,0.0,0.0,0.0,0.0,1.3093,1.3093,1.3118,1.3127,1.3163,1.3206,1.3198,1.3209,1.3226,1.3216,1.3209,1.321,1.3218,1.3218,1.3218,1.3227,1.3227,1.3227,1.3227,1.3227,1.3227,1.3218,1.3218,1.321,1.321,1.321,1.321,1.3218,1.3349,0.0,0.0,0.0,0.0,1.5772,1.7123,1.8427,1.9475,1.9591,2.1346,2.3419,2.4647,2.6622,2.8282,2.8434,2.9443,3.0784,3.2265,3.2641,3.3143,3.4618,3.4899,3.4899,3.4899,3.5536,3.6249,3.6862,3.76,3.833,3.9086,3.9169,3.9246,3.9362,3.9379,3.9379,3.9379,3.9379,3.9379,3.9379,3.9379,3.9379,3.9379,3.9484,3.9537,3.9537,3.9625,3.9703,3.9703,3.9703,3.9703,3.9677,3.9292,3.9228,3.9379,3.9379,3.9432,3.9537,3.9537,3.9616,3.9703,3.9703,3.9703,3.9703,3.9703,3.9703,3.9703,0.0,0.0,0.0,0.0,0.0,0.0,0.0,0.0,0.0,0.0,1.0601,0.0,0.0,0.0,0.0,0.0,0.0,0.0,1.1992,0.0,0.0,1.3093,1.3093,1.3136,1.3188,1.3197,1.319,1.3192,1.3261,1.3295,1.3286,1.3218,1.3227,1.3286,1.3286,1.332,1.3379,1.3379,1.3379,1.3379,1.3379,1.3337,1.3286,1.3286,1.3244,1.321,1.321,1.321,1.3301,1.3937,1.4154,0.0,0.0,0.0,1.6502,1.7338,1.8167,1.8968,1.9599,2.1855,2.4061,2.4261,2.5981,2.7803,2.849,2.9259,3.0242,3.1784,3.2419,3.3143,3.4618,3.4899,3.4899,3.4899,3.5625,3.6213,3.6313,3.7053,3.7861,3.8622,3.8689,3.894,3.9584,3.9651,3.9651,3.9651,3.9651,3.9651,3.9651,3.9651,3.9651,3.9651,3.9651,3.9677,3.9677,3.9677,3.9703,3.9703,3.9703,3.9703,3.9703,3.9651,3.9625,3.9651,3.9651,3.9651,3.9677,3.9677,3.9677,3.9703,3.9703,3.9703,3.9703,3.9703,3.9703,3.9703,0.0,0.0,0.0,0.0,0.0,0.0,0.0,0.0,0.0,0.0,0.0,1.0906,0.0,0.0,0.0,1.1478,1.181,1.2174,1.2588,1.2911,1.3093,1.3093,1.3136,1.3163,1.3197,1.3242,1.3252,1.3261,1.3329,1.3363,1.3363,1.3329,1.3329,1.3363,1.3363,1.3608,1.4022,1.4022,1.4242,1.4623,1.4623,1.4614,1.4596,1.4596,1.456,1.4542,1.4542,1.4542,1.4592,1.4874,1.4965,1.515,1.6177,0.0,0.0,0.0,1.8107,1.896,2.0093,2.1967,2.369,2.4109,2.5547,2.7087,2.784,2.8894,3.0015,3.1102,3.1842,3.2745,3.4245,3.4845,3.5111,3.5111,3.5442,3.5833,3.625,3.6649,3.7159,3.7895,3.7978,3.8095,3.8439,3.8472,3.8639,3.9041,3.9075,3.9268,3.9687,3.9703,3.9703,3.9703,3.9781,3.9807,3.9807,3.9884,3.9961,4.0037,4.0037,4.0087,4.0163,4.0163,3.9969,3.9703,3.9703,3.9729,3.9807,3.9807,3.9858,3.9935,4.0011,4.0037,4.0037,4.0138,4.0163,4.0163,0.0,0.0,0.0,0.0,0.0,0.0,0.0,0.0,0.0,0.0,0.0,0.0,0.0,0.0,0.0,0.0,1.229,1.2522,1.306,1.3093,1.3118,1.3111,1.3163,1.3215,1.3224,1.3269,1.3312,1.3329,1.3379,1.3396,1.3396,1.3396,1.3396,1.3405,1.3396,1.382,1.4531,1.4531,1.4964,1.5644,1.5644,1.5644,1.5644,1.5644,1.5644,1.5644,1.5644,1.5634,1.5658,1.5788,1.5819,1.5934,1.6605,1.683,0.0,0.0,0.0,1.9261,2.0368,2.1907,2.335,2.4088,2.5245,2.6436,2.7376,2.8414,2.9489,3.0426,3.1234,3.2177,3.3487,3.4426,3.5023,3.5023,3.5197,3.5538,3.6092,3.6199,3.6467,3.7222,3.7306,3.739,3.7575,3.7591,3.7826,3.8388,3.8446,3.869,3.9253,3.9312,3.9312,3.9312,3.9412,3.9479,3.9479,3.9562,3.9661,3.9776,3.9776,3.9808,3.9904,4.0134,3.9999,3.964,3.9825,3.9961,4.0037,4.0037,4.0113,4.0196,4.0313,4.0337,4.0362,4.0461,4.051,4.051,0.0,0.0,0.0,0.0,0.0,0.0,0.0,0.0,0.0,0.0,0.0,0.0,1.2993,1.2993,1.2993,1.3043,1.3043,1.306,1.3093,1.3093,1.3136,1.3197,1.3197,0.0,1.3295,1.3312,1.3329,1.3388,1.3396,1.3396,1.3396,1.3396,1.3396,1.3404,1.3405,1.3846,1.4586,1.4586,1.5056,1.5786,1.5786,1.5786,1.5786,1.5786,1.5786,1.5786,1.5786,1.5757,1.5804,1.6489,1.6696,1.6773,1.7495,1.7721,1.7749,0.0,0.0,0.0,2.0023,2.1674,2.3547,2.4289,2.5084,2.6015,2.7451,2.784,2.8313,2.9816,3.0731,3.1495,3.2256,3.3412,3.4264,3.4264,3.4947,3.5508,3.5542,3.5594,3.5955,3.6738,3.684,3.7127,3.7814,3.7882,3.7898,3.7932,3.8001,3.8054,3.8088,3.8199,3.8286,3.8286,3.8286,3.8286,3.8286,3.831,3.831,3.831,3.831,3.831,3.8367,3.9102,3.9443,3.9453,4.0153,4.0461,4.0485,4.0485,4.0485,4.0485,4.0485,4.0485,4.0485,4.051,4.051,4.051,0.0,0.0,0.0,0.0,0.0,0.0,0.0,0.0,0.0,0.0,0.0,0.0,0.0,1.3093,1.3093,1.3093,1.3093,1.3093,1.3093,1.3145,1.3163,1.3197,1.3234,1.3269,1.3295,1.3337,1.3379,1.3396,1.3396,1.3396,1.3396,1.3396,1.3676,1.4178,1.416,1.4586,1.5338,1.587,1.6519,1.7202,1.7202,1.7202,1.7202,1.7202,1.7202,1.7202,1.7202,1.7192,1.7215,1.7478,1.7552,1.7582,1.7854,1.7928,1.7928,1.7928,1.8977,2.0135,2.0135,2.1445,2.2994,2.3743,2.4475,2.5309,2.6348,2.7317,2.8151,2.8695,2.9819,3.0772,3.1028,3.251,3.37,3.37,3.4006,3.4447,3.4927,3.5081,3.544,3.619,3.6292,3.6394,3.6667,3.6684,3.6865,3.7359,3.7399,3.7632,3.811,3.8167,3.8213,3.8213,3.8213,3.8213,3.8213,3.8213,3.8236,3.8322,3.8322,3.8368,3.8482,3.8842,3.9261,3.9727,4.0095,4.0352,4.051,4.051,4.051,4.051,4.0583,4.0624,4.0648,4.0817,4.0905,4.0888,0.0,0.0,0.0,0.0,0.0,0.0,0.0,0.0,0.0,1.3093,0.0,0.0,0.0,0.0,1.3093,1.3093,1.3093,1.3093,1.3093,1.3154,1.3189,1.3199,1.326,1.332,1.3329,1.3379,1.3396,1.3396,1.3396,1.3396,1.3396,1.3396,1.3837,1.4648,1.4887,1.5418,1.6172,1.6705,1.7374,1.8076,1.8076,1.8076,1.8082,1.8339,1.8436,1.8459,1.8727,1.8802,1.8756,1.8499,1.8392,1.8335,1.8079,1.7994,1.7994,1.7994,1.9035,2.0208,2.0208,2.1323,2.2672,2.3406,2.3984,2.4601,2.5659,2.6649,2.7503,2.8015,2.8903,2.9705,2.9944,3.1315,3.2561,3.3053,3.3403,3.3805,3.4299,3.443,3.4677,3.5156,3.5467,3.5638,3.5638,3.5843,3.6202,3.6693,3.6771,3.7016,3.7512,3.7552,3.758,3.7619,3.7619,3.7641,3.7703,3.7703,3.7747,3.7831,3.7831,3.7875,3.7962,3.8309,3.8729,3.9232,3.9837,4.0326,4.0717,4.0717,4.0717,4.0734,4.083,4.0871,4.0894,4.1076,4.1123,4.1146,0.0,0.0,0.0,0.0,0.0,0.0,0.0,0.0,1.3159,1.3159,0.0,0.0,0.0,0.0,0.0,1.3159,1.3159,1.3168,1.3168,1.3213,1.3232,1.3243,1.3286,1.3329,1.3396,1.3396,1.3396,1.3396,1.3396,1.3396,1.3404,1.3429,1.3897,1.4753,1.5507,1.6272,1.7047,1.7047,1.7497,1.82,1.8217,1.8235,1.8304,1.9045,1.9326,1.9441,2.0136,2.04,2.0278,1.9493,1.919,1.9013,1.8295,1.8062,1.8062,1.8062,1.9098,2.0243,0.0,0.0,0.0,2.3386,2.3591,2.4001,2.5489,2.5864,2.6308,2.7759,2.8083,2.8323,2.904,2.9843,3.0851,3.2286,3.3157,3.3652,3.3669,3.3686,3.3686,3.3704,3.4408,3.4869,3.4869,3.554,3.595,3.595,3.6092,3.6191,3.6191,3.6259,3.6364,3.6502,3.6502,3.6582,3.6702,3.6702,3.6702,3.6702,3.6702,3.6702,3.6719,3.745,3.7777,3.7902,3.9377,4.0478,4.1174,4.1192,4.1209,4.1209,4.1209,4.1209,4.1209,4.1192,4.1209,4.1209,0.0,0.0,0.0,0.0,0.0,1.3904,1.3904,1.4354,1.4695,0.0,0.0,0.0,1.4695,1.4695,1.4695,1.4695,1.4695,1.4705,1.4761,1.4284,1.4013,1.4067,1.3616,1.3379,1.3396,1.3396,1.3396,1.3396,1.3396,1.3396,1.3404,1.405,1.4743,1.5525,1.6308,1.7102,1.788,1.788,1.8,1.8252,1.8786,1.8993,1.9079,1.9809,2.0102,2.0119,2.0325,2.0394,2.0365,2.0141,2.0061,2.0003,1.9797,1.9728,1.9728,1.9728,2.0445,0.0,2.1201,0.0,0.0,0.0,0.0,0.0,2.4282,2.5227,2.617,2.6566,2.7529,2.8371,2.8578,2.9282,2.9954,3.0351,3.1412,3.2383,3.2968,3.3095,3.3323,3.3928,3.4186,3.4347,3.4389,3.4579,3.474,3.4834,3.5376,3.5674,3.5674,3.6269,3.6602,3.6643,3.6643,3.6643,3.6702,3.6702,3.6702,3.6702,3.6702,3.6702,3.6702,3.6954,3.7379,3.7958,3.8461,3.9452,4.0797,4.1073,4.1209,4.1209,4.1209,4.1209,4.1209,4.1318,4.134,4.1363,0.0,0.0,0.0,1.4022,1.436,1.4659,1.4659,1.5027,1.5303,0.0,0.0,0.0,1.5303,1.5303,1.5303,1.5303,1.534,1.5361,1.5398,1.5017,1.4814,1.486,1.4511,1.4319,1.4319,1.4014,1.3853,1.3862,1.388,1.3905,1.3956,1.4778,1.5568,1.6325,1.6792,1.7449,1.8217,1.8528,1.8666,1.87,1.9131,1.9481,1.9838,2.0613,2.0906,2.0941,2.1251,2.1371,2.132,2.1009,2.067,2.0394,2.0394,2.0394,2.0394,2.0394,2.0975,0.0,0.0,0.0,2.2738,2.2738,0.0,0.0,2.3846,2.4625,2.5351,2.5648,2.6684,2.7514,2.7514,2.8429,2.919,2.919,3.0128,3.1007,3.1473,3.1856,3.2239,3.2706,3.3329,3.3729,3.3769,3.41,3.4328,3.4384,3.4803,3.5168,3.5484,3.5936,3.6374,3.6728,3.6745,3.6766,3.6826,3.6849,3.6869,3.6869,3.6926,3.6946,3.6946,3.6987,3.7273,3.773,3.8106,3.8818,3.9738,4.066,4.1222,4.152,4.152,4.152,4.1542,4.1604,4.1644,4.1666,0.0,0.0,1.5292,1.5292,1.5369,1.5408,1.5408,1.5541,1.5657,0.0,1.5723,1.5773,1.5773,1.5773,1.5773,1.5784,1.5843,1.5858,1.5785,1.5761,1.5721,1.5637,1.5609,1.5595,1.5595,1.4952,1.4625,1.4619,1.4697,1.4759,1.4838,1.5576,1.6308,1.6991,1.7077,1.7569,1.8373,1.9039,1.9418,1.9573,1.9573,1.997,2.0642,2.1448,2.1741,2.1828,2.2483,2.2725,2.2621,2.1966,2.1275,2.0677,2.0677,2.0677,2.0677,2.0677,2.1189,0.0,0.0,0.0,0.0,2.2816,2.2855,0.0,2.3793,2.4037,2.428,2.4927,2.5654,2.6173,2.6173,2.7304,2.8227,2.8227,2.8852,2.9426,2.9758,3.0368,3.0785,3.0785,3.2003,3.2838,3.282,3.3551,3.4039,3.4039,3.4232,3.4652,3.5386,3.5421,3.5826,3.6691,3.6729,3.6821,3.7027,3.7089,3.7127,3.7127,3.7239,3.7297,3.7297,3.7297,3.7297,3.735,3.8056,3.8392,3.8534,4.0061,4.1159,4.1881,4.197,4.2005,4.2005,4.2005,4.2005,4.2005,0.0,1.5068,1.5246,1.5292,1.579,1.6188,1.6188,1.7155,1.7876,1.7876,1.8389,1.8754,1.8754,1.8754,1.8779,1.8843,1.8855,1.8655,1.8162,1.7591,1.703,1.6492,1.59,1.5595,1.5595,1.5501,1.5471,1.5464,1.553,1.5557,1.5593,1.6404,1.6853,1.7036,1.7673,1.839,1.9096,1.929,2.0091,2.1233,2.1233,2.1356,2.1612,2.2364,2.2642,2.2659,2.2816,2.2868,2.285,2.2694,2.2538,2.2416,2.2416,2.2416,2.2416,2.2416,2.2521,2.2642,2.2642,2.2759,2.2881,2.2881,2.2893,0.0,2.3098,2.3637,2.4141,2.428,2.4906,2.5397,2.5397,2.5694,2.5928,2.5928,2.6111,2.709,2.9479,2.9916,3.0002,3.0002,3.0281,3.0489,3.0555,3.1271,3.1777,3.1811,3.3073,3.4181,3.4976,3.5011,3.5381,3.6211,3.6247,3.6566,3.7222,3.7259,3.7259,3.7259,3.7278,3.7297,3.7297,3.7297,3.7297,3.7314,3.7474,3.7919,3.8635,3.9595,4.0405,4.1102,4.1757,4.2005,4.2005,4.2005,4.2005,4.2005,1.5643,1.6033,1.6463,1.6828,1.7193,1.7574,1.7938,1.8605,1.9038,1.9038,1.9369,1.9601,1.9601,1.9624,1.9664,1.9704,1.9783,1.9727,1.9416,1.9053,1.8706,1.8369,1.7642,1.7264,1.7285,1.6608,1.6257,1.6299,1.6373,1.6402,1.6421,1.7215,1.7604,1.7621,1.8407,1.8981,1.9411,2.0206,2.1033,2.1805,2.1751,2.199,2.2432,2.3197,2.3506,2.3559,2.3911,2.405,2.3981,2.3615,2.3506,2.3437,2.3041,2.2906,2.2906,2.2906,2.2906,2.2906,2.2906,2.2914,2.2957,2.2957,2.2982,0.0,0.0,2.3304,2.3601,2.3601,2.4239,2.4791,2.4791,2.5156,2.5442,2.5442,2.5469,2.6032,2.7496,2.836,2.8993,2.936,2.9777,3.0053,3.0101,3.0453,3.0873,3.1326,3.2135,3.3121,3.4288,3.4341,3.4695,3.5473,3.5491,3.588,3.6694,3.6786,3.6982,3.7336,3.7448,3.7503,3.7503,3.7576,3.7612,3.7612,3.7612,3.7845,3.8311,3.9115,3.9863,4.0608,4.1798,4.2261,4.2305,4.2305,4.2305,4.2305,1.6626,1.7308,1.8058,1.8621,1.872,1.8906,1.9502,1.9717,1.9912,2.021,2.0359,2.0458,2.0472,2.0511,2.055,2.0608,2.0747,2.0722,2.0465,2.0428,2.0306,2.0002,1.9447,1.9178,1.9231,1.7939,1.7287,1.7343,1.726,1.7239,1.7259,1.7907,1.8286,1.8441,1.9056,1.9503,1.9923,2.1194,2.1962,2.235,2.2302,2.2643,2.3253,2.4051,2.4343,2.4431,2.5028,2.5237,2.515,2.4553,2.4343,2.4221,2.341,2.3166,2.3149,2.2979,2.2944,2.2944,2.2944,2.2982,2.3033,2.3045,2.3082,2.3114,0.0,0.0,0.0,2.3144,2.3698,2.4194,2.4194,2.4726,2.5163,2.5163,2.5163,2.5199,2.5371,2.6462,2.7529,2.8259,2.8971,2.946,2.9602,2.9885,3.0413,3.1223,3.1294,3.1896,3.3312,3.34,3.3825,3.4747,3.4782,3.5173,3.5989,3.6257,3.6684,3.7272,3.7596,3.7739,3.7739,3.7846,3.7899,3.7899,3.7899,3.7899,3.7971,3.878,3.9535,4.0381,4.1757,4.2422,4.2609,4.2609,4.2609,4.2609,1.8198,1.8706,1.9329,1.9452,1.9468,1.9502,1.9584,2.0158,2.105,2.2344,2.3089,2.3519,2.3582,2.3598,2.3677,2.3848,2.3878,2.3369,2.2113,2.2043,2.1434,2.0052,2.0026,2.0059,2.0071,1.9326,1.8932,1.8943,1.834,1.8062,1.8062,1.8166,1.8545,1.9183,1.9324,2.0154,2.146,2.1742,2.2688,2.3937,2.3989,2.4067,2.4212,2.4971,2.5252,2.5252,2.5357,2.5374,2.5357,2.5269,2.5252,2.5111,2.437,2.4155,2.4002,2.3288,2.3082,2.3082,2.3082,2.3077,2.3089,2.3168,2.3193,2.3205,2.3265,0.0,2.3277,2.3277,0.0,2.3413,2.3413,0.0,0.0,2.3566,2.3566,2.3814,2.4516,2.4832,2.5222,2.5906,2.6083,2.6401,2.7136,2.8431,2.9594,3.0467,3.0521,3.0924,3.1889,3.1985,3.2713,3.4217,3.4334,3.4743,3.5567,3.6285,3.6697,3.6787,3.7522,3.7881,3.7881,3.7881,3.7899,3.7899,3.7899,3.7899,3.7971,3.878,3.9608,4.0455,4.1226,4.1978,4.2609,4.2609,4.2609,4.2609,1.9083,1.9262,1.9703,2.0158,2.0588,2.1019,2.1435,2.2145,2.2841,2.3454,2.3834,2.4065,2.4098,2.421,2.4305,2.4399,2.4446,2.4206,2.3613,2.3579,2.3321,2.2703,2.1898,2.1509,2.1588,2.0482,1.9912,1.9906,1.9619,1.9481,1.9481,1.9481,1.9659,2.0016,2.0506,2.1149,2.1882,2.2833,2.3618,2.4353,2.5261,2.563,2.5665,2.5981,2.6367,2.6736,2.6736,2.6736,2.6665,2.6244,2.609,2.5949,2.5173,2.4927,2.48,2.4065,2.3849,2.3774,2.334,2.3217,2.3229,2.3253,2.3265,2.3265,2.3289,2.3301,2.3301,2.3301,0.0,0.0,0.0,0.0,0.0,0.0,2.3459,2.3589,2.3928,2.4033,2.4474,2.5524,2.5691,2.5867,2.6244,2.7322,2.8344,2.9175,2.9658,3.0295,3.1127,3.164,3.2229,3.2893,3.3373,3.3982,3.479,3.5132,3.5779,3.6712,3.7087,3.75,3.795,3.8038,3.8089,3.814,3.814,3.8156,3.8224,3.855,3.9456,4.0671,4.0944,4.1759,4.2786,4.2861,4.2899,4.2899,2.0734,2.0555,2.0674,2.1216,2.1912,2.2576,2.3123,2.4,2.4597,2.463,2.5013,2.5329,2.538,2.553,2.5629,2.5662,2.5711,2.5642,2.5406,2.5218,2.5047,2.4921,2.3694,2.3084,2.3227,2.179,2.1037,2.1032,2.0601,2.0394,2.0394,2.0418,2.0574,2.0859,2.1484,2.2044,2.2595,2.374,2.4498,2.5029,2.6156,2.6721,2.6897,2.6897,2.7227,2.7701,2.7701,2.7701,2.7613,2.7087,2.6943,2.6817,2.6008,2.5776,2.5645,2.4953,2.4766,2.459,2.3831,2.3619,2.3578,2.3378,2.3324,2.3324,2.3348,2.3348,2.336,2.3372,2.3407,0.0,0.0,0.0,2.3491,2.3265,0.0,2.3224,2.3009,2.2998,2.358,2.4973,2.5372,2.5559,2.5595,2.6361,2.7194,2.8016,2.8609,2.9381,3.0424,3.1045,3.1582,3.2013,3.2568,3.325,3.4073,3.4308,3.5135,3.6504,3.6787,3.7326,3.8119,3.8206,3.8272,3.8322,3.8322,3.837,3.8399,3.8399,3.9221,4.0481,4.0699,4.1559,4.2686,4.2995,4.3141,4.3123,2.372,2.324,2.2791,2.2824,2.3437,2.3934,2.3967,2.5209,2.6138,2.6211,2.7478,2.8434,2.8639,2.8658,2.8713,2.8839,2.8857,2.8536,2.7756,2.7029,2.6335,2.5688,2.4999,2.468,2.482,2.3378,2.263,2.263,2.1118,2.0394,2.0394,2.0465,2.0916,2.1673,2.1824,2.2718,2.413,2.4247,2.5169,2.6528,2.6581,2.7034,2.7648,2.7648,2.7683,2.7701,2.7701,2.7701,2.7701,2.7666,2.776,2.7712,2.6901,2.671,2.6623,2.587,2.5657,2.548,2.4688,2.4458,2.4293,2.3579,2.3413,2.3407,2.3482,2.3494,2.3517,2.3573,2.3585,2.3618,2.3678,2.3689,2.3437,0.0,2.2524,0.0,0.0,2.1375,2.1978,2.3581,2.4404,2.483,2.4841,2.556,2.6368,2.7176,2.7248,2.798,2.9543,2.9733,3.0495,3.2047,3.2173,3.2643,3.3513,3.4312,3.5139,3.6033,3.6817,3.7601,3.8382,3.8382,3.8382,3.8399,3.8399,3.8399,3.8399,3.8399,3.8891,3.9714,4.0516,4.1301,4.2121,4.2905,4.3196,4.3196,2.3935,2.4183,2.4199,2.3719,2.4249,2.506,2.6039,2.7053,2.7722,2.7742,2.8323,2.8718,2.8792,2.8883,2.8956,2.901,2.8993,2.8891,2.8602,2.8403,2.8219,2.8032,2.6903,2.6347,2.6492,2.5008,2.4229,2.4229,2.3164,2.266,2.2712,2.2237,2.2213,2.2579,2.3165,2.3753,2.4335,2.5384,2.6121,2.6634,2.7139,2.7473,2.7701,2.7701,2.7701,2.7701,2.7701,2.7763,2.7827,2.7827,2.7885,2.7922,2.7653,2.7579,2.7447,2.6712,2.6477,2.6331,2.5565,2.5364,2.5186,2.4444,2.4302,2.4182,2.3687,2.3607,2.3634,2.3656,2.3674,2.3667,2.37,2.37,2.3437,0.0,2.2538,2.2298,0.0,2.1391,2.1628,2.2174,2.2898,2.3541,2.4086,2.4865,2.5448,2.5718,2.6778,2.7634,2.8178,2.9274,3.0402,3.1461,3.2051,3.2734,3.3563,3.3836,3.4397,3.5228,3.6012,3.6833,3.7617,3.8161,3.8415,3.8478,3.8478,3.8512,3.8611,3.8611,3.9101,3.9939,4.0747,4.1568,4.241,4.3082,4.3323,4.334,2.5093,2.5575,2.564,2.4911,2.5607,2.6584,2.7547,2.8602,2.9293,2.9351,2.9956,3.0409,3.0432,3.0509,3.0567,3.0567,3.0567,3.0567,3.0641,3.0155,2.9941,3.005,2.8682,2.7856,2.7696,2.6454,2.5678,2.5402,2.4612,2.4257,2.4323,2.3865,2.3706,2.3842,2.4388,2.4813,2.5187,2.6191,2.6739,2.7069,2.7824,2.8122,2.8157,2.8469,2.8255,2.7763,2.7763,2.7839,2.7946,2.7946,2.7971,2.8042,2.8042,2.8056,2.7978,2.7508,2.7361,2.7197,2.643,2.6241,2.6088,2.5355,2.4992,2.4699,2.4179,2.3871,2.3711,2.3721,2.375,2.3732,2.3736,2.3736,2.3483,0.0,0.0,2.1847,0.0,2.0644,2.0789,2.1071,2.1759,2.2534,2.3371,2.3899,2.4446,2.5027,2.607,2.6929,2.7493,2.8549,2.9648,3.0742,3.155,3.2365,3.3195,3.3501,3.4049,3.4881,3.5718,3.6537,3.7357,3.8178,3.8572,3.8634,3.8634,3.8683,3.8765,3.8765,3.909,3.9706,4.0809,4.1578,4.2184,4.318,4.3551,4.355,2.7197,2.7365,2.7199,2.6516,2.7528,2.8459,2.8511,2.9802,3.0836,3.0992,3.2353,3.3334,3.3385,3.3406,3.3406,3.3406,3.3406,3.3448,3.359,3.223,3.1494,3.1649,3.0279,2.9197,2.8523,2.7782,2.7023,2.6197,2.5488,2.5118,2.5149,2.5185,2.5237,2.5306,2.5396,2.5879,2.6598,2.6634,2.7087,2.7824,2.8649,2.8965,2.9051,2.9884,2.9296,2.8009,2.7973,2.7999,2.8067,2.8032,2.8056,2.8099,2.8099,2.814,2.8196,2.8196,2.8196,2.8035,2.7277,2.7102,2.6974,2.624,2.553,2.5013,2.4959,2.4341,2.3775,2.3848,2.3822,2.3807,2.3795,2.3806,2.357,0.0,0.0,2.0925,1.9403,1.9211,1.9476,2.0259,2.0952,2.1761,2.2719,2.2792,2.3457,2.5025,2.5181,2.5892,2.746,2.76,2.8347,2.9953,3.0792,3.1621,3.2509,3.3309,3.4124,3.4949,3.5877,3.6746,3.7573,3.842,3.8851,3.891,3.891,3.891,3.891,3.891,3.8892,3.9058,4.0643,4.1308,4.1567,4.3195,4.3804,4.3804,2.8058,2.8506,2.8986,2.933,2.9268,2.9354,3.0019,3.1003,3.1893,3.2589,3.3098,3.3381,3.3385,3.3406,3.3406,3.3406,3.3406,3.3448,3.359,3.3281,3.2903,3.2509,3.164,3.0851,3.0127,2.9334,2.8575,2.7816,2.7122,2.6506,2.5985,2.5499,2.5306,2.5409,2.602,2.6405,2.6634,2.7192,2.7877,2.8667,2.9474,2.9822,2.9884,3.011,3.0011,2.9656,2.9015,2.8865,2.8866,2.828,2.8112,2.8168,2.8168,2.82,2.8196,2.8196,2.8196,2.8174,2.8009,2.7982,2.7811,2.7087,2.6789,2.6531,2.5936,2.5213,2.4668,2.4679,2.4219,2.3813,2.3876,2.3858,2.3624,2.2881,2.1607,2.0341,1.9338,1.9211,1.93,1.9551,1.9744,2.064,2.2619,2.2792,2.322,2.4233,2.4923,2.573,2.6724,2.7391,2.8494,3.0106,3.098,3.1826,3.2634,3.3508,3.4031,3.4265,3.574,3.6565,3.6819,3.8235,3.8877,3.891,3.891,3.891,3.891,3.891,3.8921,3.9075,4.0093,4.1267,4.2536,4.3465,4.3804,4.3804,2.8771,2.9665,3.0609,3.1402,3.1207,3.1095,3.1591,3.2462,3.3244,3.3708,3.4423,3.4878,3.4878,3.5165,3.5385,3.5385,3.5413,3.5348,3.5134,3.492,3.4511,3.3894,3.3177,3.2301,3.1196,3.0731,2.9989,2.8969,2.8586,2.806,2.7382,2.7023,2.6682,2.6437,2.6876,2.728,2.7666,2.8421,2.9018,2.9492,3.0312,3.0659,0.0,3.1176,3.1377,3.1331,3.0533,2.9855,2.9276,2.8831,2.8453,2.8196,2.8196,2.8196,2.8196,2.8237,2.825,2.8264,2.8327,2.8367,2.8298,2.7869,2.7554,2.723,2.676,2.609,2.5425,2.5114,2.4679,2.4283,2.4,2.3937,2.3702,2.2967,2.2082,2.1095,1.9925,1.9778,1.9666,1.9384,1.9337,2.0008,2.1723,2.2163,2.2703,2.35,2.4335,2.5328,2.6523,2.7051,2.8066,2.9704,3.0917,3.1771,3.2219,3.3413,3.3998,3.4016,3.5697,3.6523,3.6601,3.8214,3.8964,3.8993,3.8993,3.8993,3.8993,3.9021,3.9064,3.9203,4.0416,4.1704,4.2981,4.3745,4.3995,4.3982,2.9731,3.0853,3.2006,3.289,3.3151,3.3256,3.3356,3.4035,3.4594,3.4695,3.6016,3.6948,3.6948,3.7516,3.7905,3.7929,3.8031,3.7859,3.7308,3.6688,3.604,3.537,3.4648,3.3559,3.2127,3.199,3.1302,2.9988,2.9901,2.9533,2.8944,2.8959,2.8623,2.8017,2.8017,2.8403,2.9105,2.9913,3.0246,3.0333,3.1133,3.1466,3.1585,3.2474,3.2823,3.2732,3.2083,3.0921,2.9672,2.9476,2.8927,2.8338,2.8231,2.8196,2.8223,2.8286,2.8313,2.8327,2.8393,2.8458,2.8492,2.8505,2.8037,2.7568,2.7568,2.6946,2.6191,2.5557,2.5241,2.4917,2.4298,2.4089,2.378,2.3023,2.2905,2.2401,2.0878,2.0601,2.0286,1.9644,1.9479,0.0,2.0617,2.1383,2.2141,2.2958,2.3759,2.4892,2.6463,2.6648,2.7424,2.8986,3.0611,3.1517,3.1609,3.3118,3.3913,3.4042,3.5631,3.648,3.6676,3.8183,3.8985,3.9129,3.9129,3.9129,3.9142,3.9197,3.9229,3.941,4.1138,4.2216,4.2963,4.393,4.4274,4.4229,3.2105,3.2315,3.2774,3.3656,3.4397,3.513,3.5849,3.5576,3.556,3.6293,3.7161,3.7719,3.7719,3.7821,3.7953,3.8054,3.8078,3.8127,3.8185,3.7487,3.6814,3.6146,3.5387,3.4614,3.3734,3.3041,3.2321,3.1513,3.0959,3.0349,2.9713,2.983,2.9809,2.9685,2.9685,2.9772,2.9948,3.0685,3.1051,3.1151,3.1978,3.2396,3.2561,3.2719,3.2838,3.2866,3.2739,3.2097,3.11,2.9833,2.9315,2.9084,2.841,2.8237,2.8286,2.83,2.834,2.8393,2.8453,2.8479,2.8505,2.8574,2.8478,2.8382,2.8382,2.7798,2.724,2.7106,2.6074,2.5163,2.509,2.4581,2.3914,2.3107,2.2978,2.2646,2.1716,2.105,2.0612,2.0491,1.9882,1.9789,2.0617,2.1422,2.2218,2.303,2.3842,2.469,2.566,2.6334,2.7155,2.8189,2.9813,3.1013,3.1679,3.2671,3.3511,3.4179,3.5244,3.6105,3.6801,3.7808,3.8667,3.9346,3.9346,3.9346,3.9346,3.936,3.936,3.9528,4.1152,4.1894,4.2212,4.3739,4.4329,4.4373,3.3673,3.3908,3.4349,3.5599,3.6219,3.6706,3.7202,3.7293,3.7317,3.7364,3.8007,3.8464,3.8464,3.8875,3.9161,3.9234,3.9378,3.9309,3.8997,3.8705,3.8067,3.6956,3.6577,3.5835,3.47,3.436,3.3659,3.2557,3.2317,3.1637,3.0584,3.0634,3.0475,3.0124,3.051,3.0668,3.072,3.1525,3.1892,3.1977,3.2465,3.2707,3.2789,3.2838,3.2868,3.29,3.29,3.265,3.2079,3.0511,2.9726,2.9262,2.85,2.8273,2.8313,2.8375,2.8432,2.8471,2.8536,2.8549,2.8562,2.8587,2.8625,2.8644,2.8644,2.8403,2.8081,2.7679,2.7009,2.6257,2.5489,2.5061,2.4548,2.3759,2.3621,2.3354,2.2578,2.2179,2.1797,2.1414,2.1025,2.0951,2.1337,2.2097,2.2737,2.3127,2.3895,2.4718,2.557,2.6366,2.72,2.8024,2.9707,3.0995,3.1794,3.2668,3.351,3.4305,3.5223,3.6056,3.6876,3.7723,3.8588,3.9405,3.9405,3.9405,3.9405,3.9444,3.9482,3.9658,4.1274,4.1897,4.2117,4.3784,4.443,4.4426,3.5179,3.5507,3.5985,3.7308,3.7765,3.798,3.8118,3.8886,3.914,3.8261,3.8768,3.9249,3.9274,3.9898,4.033,4.0379,4.0576,4.0439,3.9845,3.9755,3.9181,3.803,3.7668,3.6943,3.5739,3.5509,3.4866,3.3728,3.3681,3.2985,3.1703,3.1703,3.13,3.0615,3.1194,3.1458,3.151,3.2209,3.2524,3.254,3.2724,3.2805,3.2821,3.2884,3.29,3.29,3.29,3.29,3.2686,3.1242,3.0261,2.9558,2.8788,2.847,2.8349,2.8466,2.8505,2.8518,2.8587,2.86,2.86,2.8612,2.8662,2.8694,2.8706,2.8773,2.8651,2.8077,2.7826,2.731,2.5935,2.5541,2.5202,2.4579,2.434,2.4045,2.3452,2.3229,2.2913,2.2317,2.2102,2.2081,2.2253,2.2848,2.3293,2.3471,2.4076,2.479,2.568,2.6507,2.7307,2.8107,2.9822,3.1092,3.1904,3.2776,3.3601,3.4404,3.5294,3.6147,3.6951,3.7773,3.8608,3.9444,3.9444,3.9444,3.9457,3.9495,3.9558,3.9771,4.1392,4.2031,4.2263,4.3917,4.4537,4.4524,3.7012,3.7095,3.7219,3.7614,3.8235,3.8722,3.8886,4.0087,4.0493,3.9073,3.9554,4.0044,4.0178,4.0254,4.0404,4.0648,4.069,4.071,4.0784,4.0095,3.9629,3.9491,3.8198,3.7469,3.7382,3.6087,3.5407,3.5463,3.4749,3.4017,3.3284,3.3284,3.288,3.2195,3.2265,3.2283,3.23,3.2438,3.254,3.2606,3.274,3.2838,3.2884,3.29,3.29,3.29,3.29,3.29,3.2775,3.1867,3.1145,3.0438,2.9643,2.8968,2.8479,2.851,2.8531,2.8587,2.86,2.86,2.8612,2.8687,2.8694,2.8724,2.8773,2.8846,2.8875,2.8795,2.8256,2.7541,2.6733,2.5988,2.5482,2.5392,2.482,2.4357,2.4283,2.3651,2.3176,2.3102,2.2442,2.2317,2.3098,2.3255,2.3617,2.4414,2.4474,2.4867,2.5743,2.6617,2.7447,2.8259,2.9856,3.1125,3.1984,3.278,3.3594,3.4404,3.5341,3.6218,3.7016,3.7877,3.8757,3.9577,3.9577,3.9577,3.9577,3.9596,3.9633,3.9851,4.1469,4.2128,4.2379,4.4063,4.4685,4.4685,3.7852,3.8087,3.8505,3.9514,3.9977,4.0408,4.0899,4.1474,4.167,4.1163,4.1376,4.1545,4.1597,4.1784,4.1953,4.207,4.1697,4.1495,4.1543,4.0843,4.0198,3.9715,3.9129,3.8661,3.8339,3.7345,3.6684,3.6354,3.5645,3.4914,3.4232,3.4232,3.4056,3.3757,3.3266,3.3108,3.316,3.2735,3.2623,3.2722,3.282,3.2868,3.29,3.29,3.29,3.29,3.29,3.29,3.2846,3.259,3.1693,3.056,2.9793,2.908,2.8505,2.8549,2.8574,2.86,2.86,2.8637,2.8675,2.8682,2.8755,2.8834,2.8858,2.8905,2.8952,2.8952,2.8753,2.8349,2.7561,2.7187,2.6841,2.6364,2.5634,2.5134,2.518,2.4492,2.3971,2.3977,2.3706,2.3648,2.4033,2.4078,2.4217,2.4569,2.459,2.491,2.5768,2.6626,2.7475,2.8269,2.9905,3.1187,3.2048,3.2903,3.373,3.4536,3.5439,3.6276,3.7094,3.7913,3.8794,3.9669,3.9656,3.9649,3.9649,3.9649,3.9679,3.9854,4.1524,4.2178,4.2391,4.4089,4.4712,4.4712,3.9304,3.9612,4.0112,4.1191,4.1473,4.1694,4.2219,4.2543,4.2749,4.2838,4.3113,4.3149,4.2679,4.286,4.3005,4.3056,4.2639,4.2258,4.2033,4.1516,4.0877,4.0077,3.9865,3.9588,3.9197,3.8525,3.7847,3.7184,3.67,3.5987,3.5021,3.4793,3.4706,3.4689,3.4127,3.3935,3.3988,3.3527,3.3256,3.3127,3.3208,3.3114,3.29,3.29,3.29,3.29,3.29,3.2916,3.2932,3.2979,3.2166,3.0988,3.0222,2.9476,2.8851,2.8659,2.86,2.86,2.86,2.865,2.8694,2.8718,2.8822,2.8917,2.8929,2.897,2.9005,2.9028,2.9074,2.8935,2.8415,2.8144,2.7816,2.7274,2.6506,2.5913,2.5754,2.5242,2.4794,2.4557,2.452,2.4555,2.4615,2.4623,2.4743,2.4984,2.5003,2.535,2.6138,2.6998,2.7857,2.869,3.031,3.1473,3.2091,3.3191,3.4049,3.4634,3.5761,3.66,3.7194,3.8247,3.9067,3.9698,3.9696,3.9701,3.9701,3.9701,3.9863,4.0245,4.1661,4.2403,4.2811,4.4247,4.4745,4.4745,4.1843,4.1963,4.2126,4.2243,4.2286,4.2286,4.2286,4.3098,4.3671,4.3671,4.4553,4.4593,4.3134,4.3005,4.3056,4.3207,4.3189,4.2844,4.2043,4.1974,4.1671,4.0929,4.0245,3.9961,4.009,3.9438,3.8758,3.8073,3.8093,3.7303,3.5757,3.5039,3.4706,3.4706,3.4763,3.4799,3.4799,3.4978,3.4604,3.3893,3.403,3.3598,3.29,3.29,3.29,3.29,3.29,3.2948,3.2995,3.2995,3.2583,3.1939,3.1145,3.0387,2.9639,2.8835,2.86,2.86,2.86,2.865,2.8724,2.8773,2.8846,2.8917,2.8975,2.9005,2.9028,2.9096,2.9089,2.9141,2.9262,2.8569,2.8015,2.8086,2.7408,2.6628,2.5892,2.5789,2.549,2.4692,2.4607,2.4623,2.4682,2.4701,2.5062,2.5917,2.5981,2.6314,2.7032,2.7901,2.8772,2.9664,3.1241,3.2086,3.2105,3.3738,3.4615,3.4706,3.6381,3.7224,3.7354,3.8946,3.9701,3.9701,3.9701,3.9701,3.9701,3.9701,4.0257,4.1158,4.199,4.2877,4.3777,4.4611,4.4895,4.4895,4.1997,4.2142,4.2402,4.2936,4.3064,4.3234,4.3785,4.42,4.4473,4.4582,4.4932,4.5058,4.469,4.4638,4.4647,4.4716,4.4259,4.3845,4.3586,4.2585,4.1937,4.1784,4.1105,4.0804,4.0969,4.0285,3.9865,3.9747,3.8638,3.7584,3.6601,3.6392,3.6269,3.6252,3.5819,3.5628,3.5666,3.5279,3.4976,3.4742,3.4295,3.3955,3.3651,3.3114,3.29,3.29,3.2948,3.2979,3.3028,3.317,3.3085,3.2802,3.2032,3.1242,3.0473,2.9658,2.9409,2.9313,2.8789,2.8724,2.8913,2.9515,2.9734,2.98,2.9812,2.9425,2.9067,2.9108,2.9175,2.924,2.9291,2.9111,2.8967,2.8988,2.8311,2.7698,2.7475,2.699,2.6587,2.6332,2.6294,2.633,2.6391,2.6399,2.652,2.6791,2.7336,2.774,2.7967,2.8257,2.9054,3.0462,3.1599,3.2446,3.3038,3.417,3.4747,3.4787,3.6465,3.7841,3.8965,3.9501,3.977,3.977,3.9823,3.9845,3.9845,3.9845,4.0367,4.1241,4.2056,4.2901,4.3796,4.4611,4.4895,4.4895,4.2902,4.3067,4.3301,4.3775,4.3859,4.4039,4.4586,4.4776,4.4923,4.5059,4.5194,4.53,4.5397,4.5397,4.5397,4.5397,4.4992,4.4596,4.4328,4.3464,4.2718,4.2213,4.1864,4.158,4.1403,4.0993,4.0696,4.0502,3.8883,3.7865,3.7411,3.713,3.7009,3.7031,3.665,3.6515,3.6555,3.6203,3.5883,3.5614,3.515,3.4615,3.4062,3.3526,3.3184,3.2948,3.2979,3.306,3.3122,3.3262,3.3325,3.3247,3.2799,3.2306,3.1673,3.0581,3.0282,3.0199,2.973,2.9678,2.9868,3.0405,3.0601,3.0662,3.0686,3.0336,2.9941,2.9691,2.9691,2.9664,2.9389,2.9376,2.9407,2.9399,2.8983,2.8565,2.8306,2.7886,2.7482,2.7161,2.7151,2.716,2.7204,2.7204,2.7344,2.7662,2.8142,2.8583,2.892,2.8902,2.9522,3.0942,3.1798,3.2646,3.3494,3.4363,3.4809,3.4866,3.6539,3.8194,3.9789,3.9815,3.9826,3.9837,3.9889,3.99,3.99,3.99,4.0582,4.17,4.2192,4.3133,4.4213,4.4706,4.4895,4.4895,4.431,4.4468,4.4615,4.4615,4.4598,4.4654,4.4776,4.4913,4.5059,4.5177,4.53,4.5397,4.5397,4.5397,4.5397,4.5423,4.5423,4.5113,4.4432,4.4481,4.3873,4.2451,4.2533,4.2247,4.1513,4.1555,4.1236,4.0502,3.8989,3.8251,3.8181,3.7429,3.7119,3.7179,3.7276,3.7353,3.7411,3.754,3.7184,3.647,3.6417,3.5543,3.4258,3.4151,3.3682,3.3084,3.3046,3.3137,3.331,3.331,3.3352,3.3393,3.3393,3.3393,3.31,3.1542,3.1125,3.116,3.1137,3.1193,3.1302,3.1388,3.1438,3.1501,3.1575,3.1544,3.134,3.0705,3.058,3.0361,2.9609,2.95,2.9473,2.9421,2.9412,2.9191,2.8568,2.8493,2.8211,2.7459,2.7373,2.7373,2.7373,2.7373,2.7718,2.8514,2.8589,2.8973,2.9846,2.9829,3.0225,3.1156,3.1977,3.2789,3.3581,3.4402,3.4904,3.5086,3.6707,3.8338,3.99,3.99,3.99,3.99,3.99,3.99,3.99,3.9976,4.0942,4.2412,4.2469,4.3493,4.4907,4.4907,4.4907,4.4907,4.4497,4.457,4.4615,4.4615,4.4682,4.4748,4.482,4.5005,4.515,4.5194,4.53,4.5397,4.5397,4.5397,4.545,4.5537,4.5537,4.5468,4.5295,4.4902,4.454,4.4265,4.3185,4.2555,4.2467,4.1898,4.1236,4.0502,4.0133,3.9621,3.8985,3.8315,3.8005,3.8007,3.7563,3.7392,3.7411,3.754,3.7488,3.7274,3.6649,3.6185,3.5721,3.4592,3.4071,3.3852,3.3402,3.3262,3.331,3.3367,3.3396,3.3393,3.3393,3.3437,3.3281,3.2278,3.2001,3.1901,3.1389,3.1276,3.1461,3.2135,3.2294,3.2333,3.2409,3.198,3.1542,3.1439,3.1459,3.1251,3.0456,3.0358,3.0174,2.9514,2.9491,2.9494,2.9336,2.9364,2.9317,2.9119,2.9101,2.9101,2.9101,2.9099,2.9191,2.9407,2.9452,2.9873,3.0756,3.0785,3.1146,3.1987,3.2845,3.3696,3.4556,3.4774,3.5523,3.6831,3.7883,3.8925,3.99,3.99,3.99,3.99,3.99,3.99,3.9957,4.062,4.1525,4.2538,4.3202,4.4129,4.5038,4.5038,4.5038,4.5038,4.5585,4.5613,4.5613,4.5699,4.5739,4.5852,4.6009,4.6176,4.6148,4.5885,4.5905,4.5793,4.5432,4.545,4.5528,4.5589,4.5607,4.5632,4.5684,4.5438,4.5179,4.4921,4.4172,4.3448,4.2793,4.2377,4.178,4.099,4.0703,4.032,3.9877,3.9209,3.8724,3.841,3.8101,3.7786,3.7503,3.7558,3.7595,3.7559,3.7131,3.6756,3.6362,3.518,3.4582,3.4249,3.355,3.3307,3.3352,3.3396,3.3393,3.3393,3.3393,3.3452,3.3419,3.3007,3.2921,3.2853,3.2514,3.2426,3.2575,3.3023,3.3172,3.3211,3.3276,3.3019,3.2655,3.2356,3.2317,3.2109,3.1292,3.1205,3.0969,3.0133,3.0073,3.0029,2.9692,2.9683,2.9701,2.9701,2.971,2.9701,2.9701,3.0085,3.0337,3.0336,3.074,3.121,3.167,3.2068,3.2494,3.293,3.3393,3.4056,3.4888,3.5296,3.614,3.742,3.8273,3.9115,3.99,3.99,3.99,3.99,3.9933,3.9943,4.0019,4.0924,4.1792,4.2623,4.3517,4.4357,4.5103,4.5103,4.5103,4.5103,4.6786,4.6815,4.6874,4.6973,4.7031,4.7164,4.7455,4.7511,4.7372,4.6828,4.6682,4.6355,4.5665,4.5598,4.5632,4.5658,4.5641,4.5693,4.5821,4.5947,4.5743,4.5121,4.5095,4.4431,4.3009,4.2745,4.2289,4.1626,4.1045,4.0793,4.0814,4.0126,3.9447,3.878,3.8692,3.8251,3.7595,3.7595,3.7595,3.7595,3.7613,3.7256,3.6664,3.591,3.522,3.4573,3.3776,3.346,3.3393,3.3393,3.3393,3.3393,3.3408,3.3466,3.352,3.3605,3.3657,3.3712,3.3712,3.3766,3.3788,3.3802,3.3873,3.3921,3.3998,3.4061,3.3938,3.3312,3.3187,3.2946,3.2139,3.2046,3.184,3.1042,3.0954,3.0779,3.0152,3.0058,3.0068,3.0077,3.0076,3.0085,3.0094,3.0818,3.1297,3.1303,3.1974,3.2465,3.2587,3.3297,3.3752,3.3884,3.3884,3.4263,3.5097,3.595,3.6794,3.7609,3.8481,3.9248,3.99,3.9911,3.9911,3.9922,3.9986,4.0026,4.0112,4.1153,4.1992,4.2707,4.3716,4.4516,4.5136,4.5136,4.5136,4.5136,4.6786,4.6903,4.6973,4.7003,4.7221,4.7437,4.7494,4.7578,4.7655,4.7534,4.6993,4.6589,4.6584,4.6005,4.5693,4.5922,4.5947,4.5947,4.5972,4.6097,4.6119,4.5996,4.5407,4.4676,4.3746,4.2447,4.1771,4.1758,4.1656,4.1664,4.1771,4.1097,4.0359,3.9578,3.9017,3.8325,3.7595,3.7595,3.7595,3.7595,3.7649,3.7614,3.747,3.6819,3.6094,3.5349,3.4651,3.3976,3.3393,3.3393,3.3393,3.3408,3.3466,3.352,3.3605,3.3657,3.3739,3.3793,3.3793,3.3775,3.3802,3.3868,3.3895,3.3934,3.4061,3.4099,3.4087,3.4036,3.4011,3.3794,3.3052,3.2948,3.2761,3.2002,3.1885,3.1851,3.1748,3.1729,3.1749,3.1816,3.1807,3.1836,3.1883,3.208,3.2192,3.2201,3.2323,3.272,3.3468,3.3638,3.4017,3.468,3.4718,3.5135,3.5998,3.6813,3.7647,3.8519,3.9323,3.9786,3.99,3.9954,3.9986,3.9986,4.0057,4.0077,4.021,4.1772,4.2519,4.2846,4.438,4.5118,4.5275,4.5275,4.5275,4.5275,4.809,4.815,4.8222,4.8429,4.8591,4.8724,4.8827,4.8902,4.8786,4.8344,4.8111,4.7647,4.687,4.6595,4.6342,4.6032,4.6073,4.6097,4.6097,4.6172,4.6196,4.6196,4.5863,4.5174,4.4032,4.2484,4.1758,4.1902,4.1931,4.1995,4.2055,4.1807,4.1261,4.0477,3.9715,3.8968,3.8219,3.7791,3.7613,3.7667,3.7685,3.7757,3.7772,3.7067,3.6358,3.5612,3.4881,3.4081,3.3411,3.3437,3.3452,3.3466,3.3534,3.3605,3.3657,3.3684,3.3753,3.3807,3.3807,3.3834,3.3855,3.3895,3.3947,3.4023,3.4086,3.4124,3.4161,3.4197,3.4233,3.4146,3.3808,3.3833,3.3657,3.2874,3.2777,3.2649,3.2161,3.2105,3.2125,3.2184,3.2232,3.2289,3.2345,3.2816,3.3099,3.3099,3.3496,3.3922,3.432,3.4358,3.451,3.4889,3.5363,3.578,3.6206,3.7457,3.8291,3.8709,3.9532,3.9922,3.9954,3.9986,4.0007,4.0057,4.0118,4.0404,4.09,4.2179,4.2981,4.3517,4.4768,4.5275,4.5307,4.5307,4.5307,4.5307,4.9168,4.926,4.9411,4.9649,4.9737,4.9813,4.9982,5.0011,4.9786,4.9194,4.9111,4.8588,4.7289,4.7169,4.6905,4.6118,4.6147,4.6196,4.6196,4.6196,4.6196,4.6196,4.6063,4.5398,4.4137,4.2789,4.2082,4.203,4.2079,4.2103,4.2145,4.2246,4.1859,4.1056,4.0271,3.9504,3.8774,3.7952,3.7667,3.7757,3.7757,3.7862,3.7947,3.7351,3.6696,3.5983,3.5186,3.4371,3.3676,3.3535,3.3506,3.3534,3.3605,3.3657,3.3698,3.3726,3.378,3.3815,3.3815,3.3855,3.3908,3.3934,3.4023,3.4099,3.4124,3.4161,3.4209,3.4221,3.4257,3.4305,3.434,3.4439,3.43,3.3701,3.365,3.3456,3.278,3.2678,3.2727,3.2806,3.2873,3.2921,3.2986,3.3582,3.3979,3.3979,3.4548,3.4908,3.4908,3.4908,3.4984,3.5192,3.5836,3.6396,3.6775,3.8064,3.8784,3.8993,3.9618,3.9943,3.9996,4.0027,4.0077,4.0137,4.0186,4.0673,4.1493,4.2411,4.3271,4.4083,4.4953,4.5307,4.5307,4.5307,4.5307,4.5307,4.9199,4.9441,4.9679,4.9708,4.986,4.9964,5.0011,5.0011,5.0034,5.0091,4.9496,4.8861,4.8277,4.7613,4.693,4.6242,4.6196,4.6196,4.6196,4.6196,4.6196,4.6196,4.5651,4.4965,4.4119,4.339,4.2703,4.2082,4.2103,4.2166,4.2287,4.2287,4.1859,4.1056,4.0271,3.9524,3.885,3.8026,3.7757,3.7899,3.795,3.7984,3.8001,3.8068,3.7594,3.6814,3.6001,3.5217,3.4494,3.3764,3.3534,3.3605,3.3671,3.3698,3.3712,3.378,3.3829,3.3895,3.3895,3.3895,3.3934,3.4049,3.4099,3.4124,3.4185,3.4197,3.4221,3.4281,3.4293,3.4328,3.4461,3.4495,3.4498,3.4497,3.4508,3.4489,3.4414,3.4467,3.4538,3.459,3.4669,3.4718,3.4728,3.4775,3.4813,3.4813,3.487,3.4908,3.4908,3.4908,3.5268,3.6093,3.6168,3.6946,3.85,3.8633,3.9058,3.9805,3.9927,3.9996,3.9996,4.0118,4.0186,4.0196,4.0263,4.074,4.1571,4.245,4.3271,4.4083,4.4953,4.5307,4.5307,4.5307,4.5307,4.5307,4.9471,4.9619,4.9737,4.986,4.9935,5.0011,5.0011,5.008,5.0132,5.0189,5.0098,4.9585,4.8426,4.8128,4.7514,4.6319,4.6196,4.6196,4.6196,4.6295,4.6326,4.6326,4.5741,4.5075,4.4347,4.3616,4.2903,4.2207,4.2207,4.2246,4.2308,4.2308,4.2147,4.1787,4.0579,3.9885,3.9547,3.8331,3.7881,3.7967,3.7984,3.8053,3.814,3.8174,3.7701,3.6959,3.6699,3.5786,3.4673,3.4444,3.4045,3.3671,3.3739,3.3766,3.378,3.3842,3.3868,3.3908,3.3998,3.4023,3.4036,3.4086,3.4136,3.4173,3.4197,3.4197,3.4221,3.4281,3.4328,3.4386,3.4484,3.4528,3.4561,3.4602,3.4612,3.4604,3.4655,3.4676,3.4747,3.4858,3.4877,3.4898,3.4908,3.4908,3.4908,3.4908,3.5401,3.5704,3.5704,3.6178,3.6851,3.7723,3.7742,3.8064,3.869,3.9191,3.9618,3.9965,3.9986,4.0038,4.0137,4.0176,4.0215,4.0301,4.0817,4.1514,4.2374,4.3195,4.4036,4.4838,4.5163,4.5307,4.5307,4.5307,4.5307,4.5307,4.9649,4.9737,4.983,4.9982,5.0011,4.9993,5.0051,5.0149,5.0246,5.0313,5.0492,5.0035,4.8522,4.8443,4.7881,4.6337,4.6196,4.6221,4.627,4.6423,4.6518,4.6453,4.6112,4.546,4.452,4.3995,4.3259,4.2308,4.2308,4.2308,4.2308,4.2346,4.2366,4.2295,4.0783,4.0141,4.0089,3.8582,3.7985,3.8053,3.8053,3.8122,3.8209,3.8207,3.788,3.7388,3.7196,3.6427,3.549,3.5334,3.4755,3.4124,3.4147,3.4022,3.3829,3.3881,3.3934,3.3985,3.4074,3.4124,3.4136,3.4136,3.4173,3.4197,3.4197,3.4221,3.4245,3.4316,3.4374,3.4461,3.4517,3.4561,3.4612,3.4612,3.4612,3.4623,3.4687,3.4727,3.4768,3.4887,3.5134,3.5315,3.5306,3.5533,3.5685,3.5685,3.6234,3.6585,3.6585,3.7363,3.8083,3.8671,3.8955,3.9077,3.9077,3.9616,3.9933,3.9996,4.0017,4.0087,4.0196,4.0215,4.0253,4.0339,4.1151,4.1991,4.287,4.3663,4.4513,4.5307,4.5307,4.5307,4.5307,4.5307,4.5307,4.5307,4.9708,4.986,5.0011,5.0011,5.0011,5.0051,5.0189,5.0189,5.0285,5.0575,5.0585,5.0062,4.8653,4.8495,4.7881,4.6337,4.6196,4.627,4.6381,4.6637,4.6731,4.6613,4.6731,4.6067,4.4538,4.4559,4.3839,4.2308,4.2308,4.2308,4.2308,4.2445,4.2503,4.2432,4.0898,4.0273,4.0293,3.8687,3.8088,3.8209,3.8209,3.8209,3.8209,3.8274,3.8307,3.8198,3.7476,3.7262,3.7177,3.6387,3.5626,3.5023,3.5023,3.4508,3.3913,3.3913,3.4016,3.4117,3.4117,3.4167,3.4216,3.4197,3.4197,3.4197,3.4197,3.4257,3.4316,3.4393,3.4461,3.4536,3.462,3.4631,3.4631,3.4631,3.4631,3.4642,3.4706,3.4776,3.4856,3.4906,3.5674,3.6206,3.6206,3.6927,3.7401,3.7401,3.742,3.742,3.742,3.8235,3.8709,3.8709,3.9475,3.99,3.99,3.99,3.9933,3.9996,4.0067,4.0137,4.0196,4.0263,4.0301,4.0339,4.1151,4.1991,4.287,4.3682,4.4532,4.5307,4.5307,4.5307,4.5307,4.5307,4.5307,4.5307,4.9889,4.9964,5.0011,5.0011,5.008,5.0132,5.0189,5.0369,5.0519,5.0585,5.0729,5.0205,4.867,4.8556,4.7941,4.6337,4.6295,4.6447,4.6661,4.6772,4.6819,4.6888,4.6376,4.5633,4.4595,4.4086,4.334,4.2308,4.2387,4.2445,4.2445,4.2528,4.2568,4.2514,4.1588,4.0888,4.0347,3.939,3.8682,3.8209,3.8209,3.8242,3.8274,3.829,3.8322,3.8348,3.8172,3.7765,3.7284,3.7139,3.6564,3.5917,3.5974,3.5818,3.5657,3.5779,3.5814,3.5866,3.5905,3.593,3.5665,3.4494,3.4197,3.4209,3.4257,3.4281,3.4514,3.5236,3.5401,3.5604,3.6235,3.6359,3.6359,3.6359,3.6393,3.6456,3.6511,3.6575,3.6637,3.665,3.6879,3.704,3.704,3.7268,3.7401,3.7401,3.7969,3.8546,3.9123,3.9388,3.9551,3.9551,3.9767,3.99,3.99,3.99,3.9973,4.0067,4.0077,4.0157,4.0263,4.0301,4.0616,4.1189,4.203,4.2889,4.3701,4.4551,4.5067,4.5307,4.5307,4.5307,4.5307,4.5307,4.5307,4.5307,4.9982,5.0011,5.004,5.008,5.0149,5.0246,5.0341,5.0492,5.063,5.0702,5.0819,5.0294,4.867,4.8573,4.7984,4.6393,4.6447,4.6637,4.6795,4.6842,4.6911,4.6998,4.5927,4.5084,4.4603,4.3872,4.3129,4.2366,4.2463,4.2524,4.2546,4.2647,4.2668,4.265,4.1954,4.1197,4.0384,3.9714,3.895,3.8241,3.8241,3.829,3.8354,3.837,3.8401,3.8446,3.8544,3.8282,3.786,3.794,3.747,3.6765,3.6495,3.644,3.6509,3.6586,3.6621,3.6647,3.6686,3.6699,3.6458,3.5442,3.5206,3.5231,3.528,3.5328,3.5537,3.615,3.6297,3.6482,3.7005,3.711,3.7122,3.7145,3.7167,3.7224,3.733,3.7373,3.7396,3.739,3.7704,3.7912,3.7912,3.8205,3.8395,3.8395,3.8888,3.9399,3.9862,3.99,3.99,3.99,3.99,3.99,3.99,3.9922,3.9986,4.0106,4.0137,4.0205,4.0301,4.0635,4.1036,4.1571,4.2756,4.3548,4.4064,4.4934,4.5307,4.5307,4.5307,4.5307,4.5307,4.5307,4.5307,4.5307,5.0011,5.0011,5.0051,5.0189,5.0217,5.0313,5.0557,5.063,5.0702,5.0891,5.0838,5.0206,4.867,4.8503,4.7947,4.6522,4.6637,4.6819,4.6819,4.6934,4.6962,4.689,4.5427,4.4589,4.4517,4.3786,4.3117,4.2503,4.2524,4.2566,4.2629,4.2745,4.2803,4.2767,4.2102,4.1379,4.0582,3.9839,3.9093,3.8398,3.8325,3.8354,3.8415,3.8478,3.851,3.8525,3.8658,3.8707,3.8707,3.8707,3.8272,3.7591,3.6854,3.6726,3.6816,3.683,3.687,3.6922,3.6922,3.6922,3.6922,3.6922,3.6974,3.6988,3.6839,3.6901,3.7016,3.7103,3.7169,3.7223,3.7317,3.7317,3.7347,3.7405,3.7427,3.7472,3.7591,3.7612,3.7614,3.7618,3.8329,3.8803,3.8803,3.9475,3.99,3.99,3.99,3.99,3.99,3.99,3.99,3.99,3.99,3.9938,4.0014,4.0089,4.0122,4.0106,4.0243,4.0339,4.0435,4.1246,4.1648,4.18,4.3338,4.4045,4.4178,4.4972,4.5307,4.5307,4.5307,4.5307,4.5307,4.5307,4.5307,4.5307,5.0011,5.0063,5.0178,5.0189,5.0352,5.053,5.0585,5.0729,5.0846,5.0891,5.0346,4.9592,4.8679,4.8131,4.7431,4.6469,4.6637,4.6842,4.6934,4.698,4.6712,4.6088,4.5229,4.4467,4.3841,4.3089,4.2665,4.2588,4.2667,4.2745,4.2764,4.2842,4.2881,4.2863,4.2719,4.2249,4.1542,4.0761,3.9995,3.9261,3.864,3.8415,3.8478,3.8476,3.8575,3.8658,3.8692,3.8707,3.8707,3.8765,3.8711,3.86,3.8473,3.8446,3.8489,3.854,3.8567,3.8581,3.8581,3.8581,3.8595,3.8649,3.8747,3.8501,3.7181,3.6937,3.7178,3.7882,3.8025,3.8244,3.8932,3.9063,3.9088,3.9147,3.9164,3.9184,3.9263,3.9307,3.9359,3.9351,3.9521,3.9635,3.9635,3.9805,3.99,3.99,3.99,3.99,3.99,3.99,3.99,3.99,3.99,4.0222,4.0904,4.1043,4.0753,4.0106,4.0814,4.1179,4.1266,4.2125,4.287,4.3472,4.3834,4.4399,4.5029,4.522,4.5307,4.5307,4.5307,4.5307,4.5307,4.5307,4.5307,4.5392,5.0063,5.0132,5.0246,5.0369,5.0519,5.063,5.0729,5.0846,5.0891,5.0891,5.0215,4.9425,4.8721,4.8023,4.7329,4.6661,4.6795,4.6911,4.6998,4.6998,4.6663,4.5944,4.5183,4.4462,4.3758,4.3003,4.2665,4.2706,4.2764,4.2822,4.2842,4.2881,4.2901,4.2901,4.2975,4.2595,4.1869,4.1486,4.0681,3.967,3.925,3.8878,3.8609,3.8609,3.8643,3.8707,3.8735,3.8765,3.8792,3.8837,3.8877,3.895,3.8979,3.9021,3.9045,3.9087,3.9101,3.9101,3.9101,3.9129,3.9156,3.9183,3.9328,3.9219,3.834,3.8196,3.837,3.8826,3.892,3.9051,3.9514,3.9589,3.9614,3.9698,3.9696,3.9735,3.9826,3.9878,3.99,3.99,3.99,3.99,3.99,3.99,3.99,3.99,3.99,4.0089,4.0506,4.0525,4.0696,4.1075,4.1094,4.1302,4.1757,4.1909,4.1745,4.1296,4.1817,4.2096,4.2144,4.2985,4.3605,4.4025,4.4437,4.4876,4.5307,4.5307,4.5307,4.5307,4.5307,4.5307,4.5307,4.5307,4.5545,4.6042,5.0189,5.0246,5.0341,5.0557,5.063,5.0702,5.0873,5.0891,5.0891,5.0891,5.0092,4.9319,4.877,4.7957,4.7291,4.6872,4.6952,4.6998,4.6998,4.702,4.6677,4.5835,4.5197,4.4494,4.374,4.311,4.2822,4.2822,4.2822,4.2842,4.2901,4.2919,4.2938,4.2938,4.3068,4.2759,4.2141,4.2066,4.1332,4.0209,4.0081,3.958,3.8909,3.8909,3.8817,3.8719,3.8777,3.8851,3.8925,3.8925,3.895,3.9021,3.9021,3.9064,3.9101,3.9101,3.9101,3.9101,3.9115,3.9156,3.921,3.9237,3.9386,3.9495,3.9508,3.9571,3.9589,3.9589,3.9589,3.9589,3.9589,3.962,3.9638,3.9677,3.9712,3.9758,3.9878,3.99,3.99,3.99,3.99,3.9957,4.0108,4.0127,4.0184,4.0317,4.0336,4.0639,4.1359,4.1397,4.17,4.2393,4.2401,4.2458,4.2621,4.2764,4.2887,4.3039,4.3163,4.3157,4.3023,4.3854,4.4216,4.4255,4.4991,4.5307,4.5307,4.5307,4.5307,4.5307,4.5307,4.5307,4.5326,4.5449,4.6118,4.715,5.0189,5.0397,5.0575,5.0585,5.0729,5.0873,5.0891,5.0891,5.0891,5.0891,4.9697,4.8798,4.8718,4.7634,4.6943,4.6975,4.6998,4.6998,4.6998,4.7111,4.6494,4.5029,4.5021,4.4385,4.2964,4.2916,4.29,4.29,4.29,4.29,4.2901,4.303,4.3068,4.3086,4.3142,4.3178,4.3139,4.2462,4.2093,4.1902,4.1189,4.0453,3.9735,3.9735,3.9341,3.8792,3.8807,3.8881,3.8997,3.8997,3.9036,3.9087,3.9087,3.9087,3.9101,3.9101,3.9101,3.9115,3.917,3.9197,3.9237,3.9412,3.9482,3.9508,3.9583,3.9577,3.9589,3.9589,3.9589,3.9589,3.9589,3.9645,3.9686,3.9708,3.9747,3.9815,3.9889,3.99,3.99,3.99,3.99,4.0203,4.0942,4.1018,4.1302,4.2003,4.206,4.2098,4.223,4.223,4.2287,4.2401,4.2401,4.2773,4.3531,4.3658,4.4056,4.476,4.49,4.4571,4.3873,4.4723,4.5125,4.5125,4.525,4.5307,4.5307,4.5307,4.5307,4.5307,4.5307,4.5307,4.5373,4.608,4.736,4.8785,5.038,5.0519,5.063,5.0747,5.0846,5.0891,5.0891,5.0891,5.0918,5.0998,4.9661,4.8751,4.8926,4.7737,4.6952,4.698,4.6998,4.7043,4.7111,4.7174,4.6546,4.5018,4.505,4.4391,4.2898,4.2881,4.2901,4.2901,4.2901,4.2938,4.3012,4.3068,4.3123,4.316,4.3269,4.334,4.3394,4.3061,4.2674,4.2268,4.1919,4.1293,4.0641,4.0641,4.0173,3.9456,3.9058,3.8979,3.9064,3.9064,3.9073,3.9101,3.9101,3.9101,3.9115,3.9142,3.9156,3.917,3.9288,3.9341,3.9399,3.9482,3.9533,3.9571,3.9577,3.9589,3.9589,3.9589,3.9589,3.9589,3.9589,3.9657,3.9698,3.9708,3.9758,3.9815,3.9889,4.0317,4.079,4.1245,4.1302,4.1454,4.1832,4.187,4.2033,4.2363,4.2401,4.2609,4.3095,4.3133,4.3341,4.3777,4.3796,4.3985,4.4364,4.4494,4.4741,4.5103,4.5243,4.5105,4.4743,4.5125,4.5307,4.5307,4.5307,4.5307,4.5307,4.5307,4.5307,4.5307,4.5307,4.5564,4.6061,4.692,4.8028,4.9167]}]]